GFSSW_sfc_temp_000.txt.gz
Temp
67 67 67 67 67 67 67 67 67 68 68 69 69 69 69 69 68 78 79 77 79 80 79 84 85 86 85 80 81 80 64 63 69 70 71 77 74 80 81 76 78 77 73 75 79
67 67 67 67 67 67 67 67 67 68 68 68 69 69 69 68 76 80 78 80 80 80 82 84 81 83 77 78 77 71 64 68 75 76 72 75 75 75 74 72 71 71 74 77 78
66 66 66 66 66 67 67 67 67 68 68 69 69 68 68 70 75 77 79 80 80 80 84 86 85 82 76 78 77 75 67 74 75 77 78 75 75 78 72 66 71 68 71 74 75
66 66 66 66 66 66 66 66 67 68 68 68 68 67 68 77 66 80 80 80 80 82 86 84 81 75 73 71 79 70 75 77 75 76 77 73 77 71 73 70 78 74 74 73 72
65 65 65 65 65 66 66 66 67 68 68 67 67 68 74 75 77 84 81 82 85 86 82 81 78 76 72 76 76 72 74 77 76 74 75 78 71 71 70 73 75 75 74 72 72
65 65 65 65 64 65 65 66 66 67 66 67 68 67 75 70 87 89 87 86 85 84 83 82 80 82 76 75 73 76 75 74 74 74 75 72 70 69 71 72 71 70 69 70 70
64 65 65 64 64 64 65 65 65 65 66 67 68 76 76 76 88 89 87 85 85 84 81 84 84 79 79 72 78 76 68 70 71 72 71 73 65 64 72 71 69 67 67 69 69
64 64 64 63 63 64 64 64 64 65 66 67 67 77 73 86 87 85 88 85 86 87 83 83 83 78 76 77 75 70 69 58 70 71 72 69 57 68 73 68 66 67 68 67 68
63 63 63 63 62 63 63 64 65 67 67 68 75 76 73 79 80 86 86 82 84 84 83 86 81 75 74 66 62 65 58 61 64 73 71 66 59 69 71 68 65 67 68 68 66
62 62 62 61 62 62 62 63 69 68 73 81 81 72 77 76 81 84 87 84 79 79 76 75 72 66 66 63 53 60 60 65 64 68 69 62 61 66 68 67 65 67 68 69 67
62 62 61 61 61 61 66 76 71 69 75 72 75 76 78 83 84 79 84 80 79 75 65 70 63 59 66 68 70 67 65 64 69 72 66 63 63 67 68 66 64 65 68 68 69
62 61 61 61 61 60 63 73 73 73 64 78 78 78 81 83 74 78 84 72 71 63 70 66 58 70 75 73 69 68 63 62 68 69 65 63 62 68 71 66 65 65 66 68 69
61 60 61 61 60 64 75 76 80 79 64 73 76 75 76 78 73 76 78 75 70 66 68 64 69 75 72 68 66 64 62 63 63 65 66 61 56 61 69 73 70 68 69 70 70
61 60 60 60 63 79 76 80 80 79 58 64 67 73 75 76 68 82 81 76 71 66 69 68 74 69 66 66 68 59 68 68 64 58 49 62 46 60 67 66 70 71 68 68 69
60 60 59 59 67 75 76 81 80 74 47 67 68 81 78 70 69 69 80 73 64 68 68 64 64 63 63 66 70 62 65 63 62 56 54 56 48 55 66 62 67 70 71 68 69
60 59 58 68 70 78 81 79 74 57 49 63 70 66 66 69 71 70 69 73 74 66 68 67 70 69 68 71 69 66 62 59 58 53 42 54 54 53 61 67 68 70 71 69 68
59 59 58 75 72 80 79 73 57 50 70 63 64 68 65 66 66 67 63 61 59 53 55 64 65 69 71 61 63 61 54 44 41 40 41 59 55 59 66 67 67 67 67 67 66
58 58 66 76 81 79 75 64 48 64 68 72 68 67 62 67 67 67 63 58 64 63 59 56 53 63 68 63 57 56 56 47 39 41 48 55 46 57 70 68 67 69 68 66 64
57 76 75 79 78 77 67 52 58 66 70 67 67 62 62 66 67 66 63 61 66 65 56 57 58 71 69 69 67 58 50 60 51 54 47 52 59 66 69 63 64 65 64 62 62
61 69 72 81 79 73 60 53 62 70 69 68 58 64 60 65 63 63 63 68 65 71 70 64 55 67 66 67 66 62 63 48 48 38 37 49 52 53 61 62 62 61 60 61 62
63 65 70 78 77 65 53 58 64 71 72 64 61 59 59 58 62 63 64 69 70 69 70 66 60 58 57 55 55 54 52 55 54 51 41 42 48 64 63 65 64 62 62 61 61
64 57 73 77 59 62 57 62 62 67 70 66 65 62 59 59 58 58 58 67 72 70 64 68 60 52 53 63 65 62 57 57 48 45 51 51 51 69 63 68 68 65 65 62 62
58 61 74 72 52 56 62 63 66 65 65 63 61 64 65 58 52 59 61 68 69 66 63 64 56 47 51 55 58 55 60 61 59 55 50 46 51 66 63 64 65 64 63 63 62
58 53 65 65 63 56 54 56 56 64 62 60 57 59 57 55 59 54 56 63 57 65 66 61 57 53 45 52 56 50 56 59 57 49 50 51 55 61 60 61 61 61 63 63 63
59 56 58 51 55 56 56 55 53 52 61 62 57 56 53 46 48 46 52 54 58 58 59 59 51 56 58 61 62 60 57 56 54 55 50 55 56 63 66 64 63 65 64 63 63
52 49 53 49 53 52 51 51 51 54 56 54 53 56 54 48 48 43 45 47 45 50 45 49 43 51 52 59 59 57 60 60 57 57 57 57 56 67 66 65 64 66 66 64 64
60 58 50 46 48 47 49 51 51 55 56 58 55 52 50 53 57 54 50 48 46 42 38 38 38 39 37 53 55 49 56 59 60 61 58 51 59 62 64 65 67 64 64 63 63

GFSSW_sfc_temp_003.txt.gz
Temp
67 67 67 67 67 67 66 66 67 67 67 68 69 68 68 68 68 69 70 72 73 80 79 77 77 77 75 69 71 69 56 54 59 61 64 70 69 73 73 69 68 67 65 68 73
66 67 66 66 66 66 66 66 67 67 67 68 68 69 69 67 67 69 77 80 80 80 77 75 73 75 66 68 67 61 53 59 67 67 65 69 70 70 68 65 62 64 68 71 72
66 66 66 66 66 66 66 66 67 67 68 68 68 67 67 66 65 70 79 80 80 79 77 76 78 74 65 67 66 64 58 67 68 71 71 70 68 72 65 60 64 62 66 69 68
66 65 65 65 65 65 65 65 66 67 68 67 67 67 67 67 58 73 79 81 81 79 77 77 73 64 62 62 70 60 69 70 69 71 70 68 70 67 66 64 70 68 68 68 67
65 65 65 65 65 65 65 65 66 67 67 66 67 67 67 62 67 79 80 80 78 78 75 73 68 65 61 65 68 63 66 71 70 69 69 72 66 66 64 65 68 70 69 67 65
64 65 65 64 64 64 65 65 66 66 66 66 67 67 64 58 79 80 80 79 80 77 75 74 70 72 68 65 64 66 68 68 68 68 68 67 64 67 65 66 66 67 65 65 65
64 64 64 63 63 63 64 64 65 65 65 66 67 72 66 66 78 78 81 77 78 77 72 76 74 68 68 63 70 68 61 62 64 66 65 67 60 61 65 65 63 62 60 63 64
64 64 63 63 62 63 63 63 63 64 65 66 66 66 60 77 74 79 80 77 80 79 76 76 75 70 66 68 66 60 58 49 61 64 66 64 50 62 64 62 59 59 57 61 63
63 62 62 62 62 62 63 63 64 66 66 67 66 63 61 76 72 78 78 75 77 77 75 83 73 66 66 56 51 53 46 51 57 65 64 60 53 63 64 64 60 56 58 60 59
62 62 61 61 61 62 61 63 66 65 70 74 75 61 69 69 74 77 75 77 73 72 70 67 62 56 54 50 43 48 48 55 53 61 61 56 56 59 60 62 60 59 60 60 61
62 61 61 61 61 61 59 64 62 60 64 62 66 66 72 74 76 71 77 72 71 66 55 61 53 48 53 56 58 57 56 55 59 65 60 57 58 59 60 60 58 57 59 62 62
62 61 60 61 60 60 57 61 64 64 55 68 70 71 75 74 67 70 76 64 62 54 58 55 49 59 63 62 61 59 55 54 60 63 61 56 57 62 60 61 62 61 61 62 63
61 60 60 60 59 59 63 66 71 69 55 64 70 69 70 72 66 67 71 66 60 56 56 50 59 67 64 61 60 58 55 53 55 59 60 55 50 55 63 64 65 64 65 65 64
60 60 60 59 61 64 65 70 70 68 46 57 63 68 71 69 62 74 73 68 62 57 58 56 66 65 60 60 61 52 61 61 59 52 43 54 44 51 60 61 62 63 61 62 64
60 59 59 57 58 63 68 70 68 63 38 61 63 75 71 64 65 65 72 66 58 60 58 55 59 58 57 60 63 56 62 58 57 50 44 47 42 46 56 56 60 62 62 62 65
60 59 59 58 58 66 69 68 63 47 40 57 62 61 60 62 64 65 64 67 65 59 61 57 65 62 62 64 64 62 58 55 51 46 36 46 45 53 52 61 61 60 63 64 64
59 59 57 66 63 69 68 61 46 38 62 57 58 61 58 57 59 60 56 52 50 44 45 54 58 62 66 56 58 57 48 37 35 33 35 51 46 55 58 62 64 65 61 62 64
58 58 60 68 66 67 62 53 36 54 57 63 62 60 55 60 58 59 54 49 54 52 46 43 44 57 62 60 52 51 50 38 31 32 42 49 41 53 64 71 66 66 63 59 60
57 59 60 65 67 64 54 41 45 54 61 57 59 53 53 59 57 56 52 53 56 57 47 46 48 61 62 62 62 50 47 56 43 43 37 44 49 58 60 59 59 60 59 58 59
49 54 59 68 67 60 48 46 51 61 63 60 50 55 49 54 51 52 51 59 59 62 63 54 48 60 61 61 59 54 55 43 41 33 30 40 42 47 57 65 58 56 57 57 58
52 51 61 68 64 52 41 46 56 64 63 57 53 52 52 50 53 51 53 60 61 62 62 60 50 53 53 50 52 49 50 48 47 40 33 35 39 54 61 61 56 60 57 57 57
48 46 63 64 48 46 43 52 57 58 61 58 59 56 53 53 52 52 52 57 61 58 55 60 54 48 53 55 60 59 55 55 43 37 43 47 48 59 61 61 60 58 60 57 58
42 47 61 60 40 41 49 54 56 56 55 55 53 56 56 50 44 50 51 55 52 53 50 51 49 44 48 48 50 48 54 54 56 45 46 43 48 63 68 65 59 60 58 59 59
43 40 48 51 49 44 45 46 48 55 54 56 54 55 52 49 52 47 46 52 53 52 55 54 49 47 42 49 51 45 50 54 51 45 47 48 52 55 56 57 58 57 58 59 60
44 41 43 36 40 41 41 44 44 44 52 53 49 49 45 43 46 43 48 50 52 54 47 45 39 42 41 43 46 50 54 53 50 52 47 52 52 58 61 59 58 59 59 56 57
41 39 41 38 40 39 41 39 43 46 45 44 42 46 46 40 43 40 44 42 41 45 45 45 34 36 34 40 40 38 44 47 54 55 54 55 55 60 63 60 58 58 61 58 59
45 47 47 43 37 35 37 42 43 46 47 49 47 44 42 45 48 47 46 47 46 42 40 39 37 34 29 40 37 31 42 48 52 58 57 49 57 61 63 64 66 62 58 60 61

GFSSW_sfc_temp_006.txt.gz
Temp
67 67 67 67 67 66 66 66 67 67 67 68 68 68 68 67 67 67 67 73 72 80 79 75 75 75 72 67 69 66 55 53 57 59 62 67 67 69 69 66 64 63 63 67 71
66 66 66 66 66 66 66 66 67 67 67 67 68 68 68 67 64 66 77 80 80 80 75 72 70 72 64 65 65 59 52 58 65 64 63 66 67 68 66 62 59 60 63 67 68
66 66 66 65 65 65 65 66 66 67 67 67 67 67 67 65 63 68 80 80 80 79 74 73 73 70 61 64 63 60 56 64 67 68 68 67 65 68 63 58 61 61 64 67 65
66 65 65 65 65 65 65 65 66 67 68 67 67 66 66 64 57 71 80 80 80 76 75 73 69 62 59 59 66 59 66 68 67 69 68 64 67 64 63 63 67 66 68 65 64
65 65 65 64 64 65 65 65 66 67 67 66 67 67 65 59 64 77 79 79 76 75 72 69 64 62 58 62 63 60 63 68 67 68 67 67 64 64 63 65 66 67 66 64 63
64 64 64 64 63 64 64 64 65 66 65 66 67 66 62 56 75 77 76 75 76 73 71 70 67 68 63 63 62 64 65 64 65 66 66 64 63 63 63 62 63 66 64 63 64
64 64 64 63 63 63 64 64 64 64 65 66 67 69 62 64 75 74 76 74 75 74 69 72 71 66 65 61 67 65 59 59 61 63 62 65 60 59 62 62 61 61 60 62 62
63 63 63 63 62 63 63 63 63 64 65 66 66 63 58 75 72 75 76 73 76 75 73 74 72 67 64 66 64 58 56 47 58 61 64 63 50 60 62 60 58 59 57 59 61
62 62 62 62 62 62 63 63 64 66 67 67 63 60 59 75 70 75 74 72 73 73 73 80 70 63 63 55 50 50 43 47 54 61 60 58 52 59 60 61 60 58 58 60 58
62 61 61 61 61 62 62 64 66 66 69 71 72 58 65 66 70 73 72 74 70 68 67 64 59 53 51 48 42 45 45 49 50 58 58 54 55 58 58 60 61 59 58 59 60
62 61 61 61 61 61 60 64 61 60 62 60 62 61 67 70 73 68 72 69 68 62 53 57 50 46 50 53 53 52 50 51 55 62 56 55 57 60 60 56 57 56 57 58 61
61 60 61 61 60 60 57 61 61 63 54 64 65 66 70 70 63 67 72 61 59 52 55 51 46 57 58 57 55 54 50 49 55 61 57 54 54 60 57 56 59 60 58 58 61
61 61 60 60 60 58 61 63 68 66 52 60 65 64 67 70 63 63 69 62 57 52 52 46 54 61 59 55 54 53 52 50 53 56 55 52 51 53 58 61 63 63 63 62 62
60 60 60 59 60 61 62 68 67 65 45 55 60 65 68 68 61 71 70 65 57 53 53 52 61 60 55 55 57 50 57 58 56 50 43 52 45 48 54 56 57 62 64 62 63
60 59 59 58 57 61 66 66 64 62 38 58 60 72 66 62 63 63 69 64 56 56 53 51 56 53 55 58 59 55 59 57 55 47 41 46 40 42 51 53 59 60 63 63 65
59 59 59 59 57 63 66 64 62 47 39 54 60 58 57 59 61 63 62 65 63 57 56 55 60 59 58 62 61 60 54 50 46 43 35 47 44 52 51 58 63 67 63 63 62
59 58 57 64 61 65 64 59 46 38 58 53 55 57 55 55 56 58 55 52 49 43 42 50 56 60 64 55 56 55 47 36 34 32 36 48 43 54 55 57 59 64 65 58 60
58 57 60 65 62 63 59 52 36 51 52 60 58 57 53 56 55 54 51 47 52 48 43 42 45 53 60 60 53 49 49 38 31 32 42 45 39 52 58 68 70 66 63 58 56
56 55 57 63 64 61 53 40 44 49 58 55 56 49 49 55 54 52 48 48 53 53 45 43 44 57 59 63 60 51 44 53 43 38 34 39 46 55 57 58 58 58 59 58 56
50 53 58 64 63 57 48 44 48 57 57 55 45 51 46 50 49 49 48 54 54 56 58 49 44 57 60 57 56 54 54 41 38 33 31 40 38 46 51 61 62 56 56 58 55
50 51 61 63 61 50 40 42 52 59 57 53 49 48 49 47 50 47 49 56 53 53 55 51 47 49 51 49 49 47 48 45 43 40 37 38 44 51 59 61 59 59 59 59 56
45 45 61 61 47 40 41 50 54 54 56 54 53 50 47 48 45 46 48 52 53 51 45 50 44 40 47 58 60 58 54 53 44 41 36 45 47 55 56 57 58 63 59 55 56
41 42 56 57 39 38 45 49 52 50 50 51 50 51 51 46 42 46 48 54 53 50 45 48 42 36 41 48 49 45 49 52 51 51 45 41 46 60 62 63 59 57 57 56 57
42 39 44 44 42 38 37 40 43 51 49 49 48 48 44 42 46 42 45 51 51 52 55 49 42 39 34 36 36 35 36 42 39 41 45 46 50 58 56 55 58 57 56 56 57
41 37 39 33 36 35 36 39 40 40 46 46 43 43 40 35 39 39 42 45 48 52 47 46 35 39 38 42 42 39 38 36 34 36 32 38 45 57 62 62 64 63 56 54 54
38 37 39 35 37 35 37 35 39 41 41 40 38 42 42 36 38 35 40 40 39 44 42 41 33 39 35 40 39 37 39 40 38 40 40 45 45 59 64 61 61 63 59 57 56
42 43 40 38 34 32 33 38 40 42 43 45 42 40 38 42 44 45 44 43 42 40 39 38 35 29 28 38 38 31 39 40 43 47 44 36 42 49 45 50 60 59 60 61 62

GFSSW_sfc_temp_009.txt.gz
Temp
66 66 66 66 66 66 66 66 66 67 67 67 68 68 68 67 66 63 65 72 71 80 79 73 73 72 70 65 67 63 54 50 55 56 60 65 66 68 66 64 63 64 62 64 69
66 66 66 66 65 65 65 66 66 67 67 67 68 68 68 67 61 64 76 80 80 80 73 70 68 70 64 63 63 59 52 56 63 62 62 65 65 66 64 60 59 59 62 63 65
66 66 65 65 65 65 65 65 66 66 67 67 67 66 67 64 61 66 80 80 80 78 72 71 70 68 61 62 61 57 55 61 65 67 66 65 64 67 61 56 61 61 63 63 62
66 65 65 64 64 65 65 65 66 66 67 67 66 66 66 62 54 69 80 80 80 73 72 70 67 60 56 57 63 56 63 64 65 68 66 63 66 63 62 64 66 65 65 66 62
64 64 64 64 64 64 64 65 65 66 66 66 66 67 63 57 63 74 79 78 72 72 69 67 61 59 56 59 60 57 61 65 66 66 65 65 64 63 62 65 62 65 64 65 65
64 64 64 63 63 63 64 64 65 66 65 65 67 66 60 54 72 74 73 71 73 70 68 67 64 65 60 60 59 62 63 63 64 63 64 62 61 61 63 64 62 62 62 64 64
64 64 64 63 63 63 64 64 64 64 64 66 66 68 59 62 72 71 73 70 72 71 67 69 68 63 61 59 65 62 57 59 59 60 61 62 58 57 64 60 60 58 62 63 63
63 63 63 62 62 63 63 64 63 64 65 66 66 62 57 72 70 71 71 71 72 72 71 71 69 65 62 64 61 55 53 46 55 59 62 62 50 58 61 58 57 56 57 60 61
62 62 62 62 62 62 63 63 64 66 66 67 62 60 57 74 67 72 71 69 70 70 69 78 68 61 60 53 49 48 42 45 51 58 58 57 50 58 58 59 58 57 58 60 61
62 61 61 61 61 62 62 64 65 66 67 70 70 56 62 62 67 69 68 70 66 66 65 62 56 51 49 47 42 43 43 46 46 55 53 51 52 59 55 56 59 59 58 59 61
62 61 60 61 61 61 59 62 60 59 60 59 59 59 63 68 70 65 70 68 65 61 50 55 48 45 49 52 50 50 46 46 51 58 54 51 55 59 60 54 56 55 57 57 60
61 61 61 61 60 60 56 62 60 62 52 62 62 62 66 67 61 63 69 60 57 50 52 49 44 53 55 54 52 49 47 46 51 57 54 52 53 58 61 54 60 59 58 59 61
61 60 60 60 60 59 60 61 66 65 52 58 62 62 64 67 60 61 67 59 54 50 50 45 52 58 55 52 50 50 48 47 50 55 52 49 51 50 56 59 59 60 64 64 61
60 60 60 59 60 59 60 66 65 63 45 53 58 63 65 65 59 68 67 63 54 51 50 48 58 57 52 51 52 47 54 54 53 47 43 49 43 48 52 55 56 60 61 60 61
59 59 59 59 55 60 62 63 62 60 38 56 58 69 63 60 60 60 66 61 54 54 52 50 52 52 50 54 55 50 57 52 51 45 40 44 41 41 48 50 55 60 60 62 64
59 59 58 58 56 61 63 61 61 46 37 52 58 57 55 57 59 61 60 62 60 54 52 54 58 56 55 58 58 57 52 48 43 41 35 46 43 50 55 55 58 62 62 61 64
58 58 56 62 59 61 61 57 45 38 56 51 53 57 52 52 54 55 52 50 48 42 41 48 51 55 61 53 54 52 45 35 33 31 38 46 42 52 53 55 57 62 65 65 59
57 58 59 63 60 60 58 51 34 48 49 56 55 54 51 53 52 52 48 46 51 46 41 40 42 51 56 55 50 48 49 40 30 31 42 42 37 51 57 61 63 63 64 65 62
57 54 57 62 62 59 53 40 40 46 52 51 52 46 46 51 51 51 45 46 50 49 43 41 41 55 57 58 56 47 41 53 42 48 34 45 46 54 55 54 57 57 58 60 65
51 53 56 62 60 56 47 43 45 53 53 52 42 47 41 46 45 46 45 51 48 51 50 45 39 52 56 55 54 51 52 40 36 32 32 41 37 44 50 54 59 57 58 58 59
51 51 60 61 59 50 39 40 49 55 54 50 45 45 44 42 43 42 46 50 50 49 50 46 41 44 49 47 48 49 44 43 43 40 37 35 42 53 57 61 61 59 58 58 59
46 44 58 58 46 38 39 45 51 50 52 51 49 47 43 43 41 43 44 48 51 51 43 48 43 37 43 53 57 54 49 44 39 37 37 42 44 54 52 56 56 57 58 58 55
41 42 53 54 37 35 40 45 48 47 47 47 45 46 45 42 37 42 41 50 50 48 45 46 40 31 36 43 42 37 41 42 38 35 32 32 40 56 52 49 54 57 60 61 57
41 39 42 42 38 35 33 37 41 47 45 45 44 45 41 38 42 38 39 46 48 47 53 49 39 35 29 35 40 37 41 43 38 29 30 31 34 42 46 46 49 51 58 62 56
39 35 37 32 34 33 33 36 37 38 43 43 40 40 37 32 35 35 39 41 45 48 45 41 32 36 38 40 40 39 39 39 36 35 29 35 39 44 48 48 46 47 49 48 55
37 36 37 33 34 32 34 32 37 38 38 37 37 39 38 33 35 32 37 37 36 41 40 39 32 36 31 37 37 34 39 39 38 39 39 39 35 45 48 47 45 45 46 48 52
40 41 38 36 32 30 31 36 38 38 40 42 40 37 35 38 42 42 42 42 41 37 36 35 32 28 25 34 33 28 35 37 40 43 42 35 41 43 42 43 43 43 46 49 48

GFSSW_sfc_temp_012.txt.gz
Temp
66 66 66 66 66 66 66 66 66 66 67 67 68 68 68 67 66 61 62 71 70 80 78 71 71 70 68 64 65 62 54 49 54 55 60 63 64 65 64 62 61 64 61 62 66
66 65 65 65 65 65 65 65 66 66 67 67 67 67 67 66 59 60 74 80 80 80 71 68 66 68 61 61 61 57 50 54 61 60 60 63 64 64 63 58 59 59 62 61 62
66 65 65 65 64 65 65 65 65 66 67 67 67 66 66 63 59 63 80 80 80 77 70 69 67 65 58 59 58 55 53 58 63 65 65 63 61 65 61 56 62 63 63 61 59
65 65 64 64 64 64 64 64 65 66 67 66 66 66 66 60 53 67 80 80 80 72 70 68 65 58 54 55 60 54 61 62 63 66 63 62 64 62 61 66 66 66 63 62 60
64 64 64 64 64 64 64 64 65 66 66 65 66 66 62 57 61 72 79 77 71 70 67 65 60 57 53 56 58 55 59 64 66 65 64 63 62 62 61 65 62 63 63 61 64
64 64 64 64 63 64 64 64 65 66 65 65 66 66 59 53 70 71 72 70 71 68 66 65 62 63 58 57 56 59 60 62 62 62 62 61 60 59 60 64 63 61 60 61 64
63 64 63 63 63 63 64 64 64 64 64 66 67 67 57 62 68 67 71 68 69 69 65 67 66 61 59 57 62 61 56 57 57 58 60 60 57 57 62 59 60 58 57 59 63
63 63 62 62 62 63 63 63 63 64 64 66 66 61 56 69 67 69 69 68 70 69 68 68 67 63 59 61 59 54 51 45 54 56 60 61 52 59 59 58 59 57 54 57 60
62 62 62 62 62 62 62 63 64 65 66 66 60 58 57 72 65 68 68 66 67 68 67 76 66 58 58 51 47 47 42 43 49 57 55 56 49 56 56 55 56 55 56 57 60
62 61 61 61 61 62 62 63 65 65 65 68 68 55 61 60 65 67 64 69 64 63 63 61 54 49 47 47 40 41 41 43 44 52 51 50 49 57 56 54 55 57 54 54 57
61 61 61 61 61 61 59 60 59 58 58 58 57 57 61 67 67 64 66 65 63 59 49 52 47 43 46 48 48 46 43 44 48 54 50 49 52 56 61 52 54 55 55 55 58
61 61 61 61 60 60 56 59 57 59 52 59 59 60 64 65 60 61 67 58 54 48 49 47 43 51 53 51 50 48 44 45 49 53 51 49 52 58 60 56 59 59 59 59 60
61 60 60 60 60 59 59 59 63 62 50 57 60 59 61 64 58 59 65 56 51 48 48 44 51 56 53 49 48 47 44 46 47 50 51 48 51 54 54 58 55 59 63 65 62
60 60 60 60 61 58 59 62 62 62 45 53 57 61 63 62 56 65 64 60 52 49 48 46 53 53 49 49 50 43 51 52 49 43 41 47 42 47 52 56 53 56 58 60 62
59 59 59 60 57 58 61 61 60 59 38 54 57 67 62 57 58 59 63 59 51 51 49 49 49 49 48 50 52 47 54 50 48 42 39 42 39 53 49 48 53 57 57 59 62
59 58 58 58 56 60 60 59 59 46 35 51 57 56 55 55 57 60 58 60 58 52 50 52 55 55 53 56 55 54 49 46 41 39 33 44 41 49 51 52 55 58 60 61 62
58 58 58 61 57 59 59 56 44 37 53 48 50 54 51 51 53 54 51 48 47 43 38 46 49 53 56 49 52 50 43 33 32 30 35 46 41 52 52 51 55 58 62 65 61
57 59 59 62 57 57 57 51 34 44 44 53 52 51 47 50 50 50 47 44 49 44 39 37 38 48 53 49 46 43 43 34 29 28 34 40 36 50 52 56 56 59 59 59 60
58 55 56 61 59 57 53 39 37 42 49 48 49 44 43 48 47 47 44 44 45 45 38 37 38 52 57 56 52 44 39 47 41 45 37 43 46 56 57 55 55 56 57 58 61
52 52 55 60 57 55 46 41 43 51 50 49 40 45 39 42 43 42 42 46 45 48 47 42 36 49 51 54 53 48 49 39 37 30 30 38 37 43 51 55 55 50 53 56 59
51 50 58 58 57 49 38 38 46 52 51 47 42 42 41 39 40 39 43 44 47 46 47 42 39 41 45 43 42 44 44 42 42 43 33 28 36 46 39 44 47 50 54 54 55
46 44 56 55 44 36 37 42 49 47 49 47 46 44 40 40 38 38 40 43 49 48 41 43 38 33 38 48 50 47 43 43 31 30 31 29 32 46 47 50 52 52 53 54 55
41 41 52 52 36 33 37 43 46 45 44 43 42 44 42 38 35 38 40 46 46 44 40 43 33 25 31 36 40 38 43 44 39 33 28 26 31 51 49 51 52 53 49 50 51
41 39 41 39 35 33 32 35 38 45 42 43 41 42 39 36 40 35 37 44 45 45 51 47 35 31 25 30 36 32 37 39 36 27 29 31 35 42 45 46 49 48 47 48 50
38 34 35 31 34 32 32 34 34 36 40 41 38 37 35 30 33 33 37 39 42 46 43 38 29 33 35 37 37 35 34 35 32 33 27 32 34 40 45 47 48 47 46 48 49
36 36 35 31 32 29 33 31 35 36 36 36 34 36 35 30 33 30 35 35 36 39 37 36 30 33 29 35 35 31 35 36 36 36 35 36 36 45 44 45 47 49 48 46 46
39 39 37 34 31 30 31 33 36 36 38 40 37 34 33 36 40 40 42 40 38 35 34 32 29 24 24 32 31 25 34 36 38 39 39 31 34 37 37 40 43 47 47 46 47

GFSSW_sfc_temp_015.txt.gz
Temp
66 66 66 66 66 65 65 66 66 66 67 67 68 68 68 66 66 69 69 76 76 80 79 75 76 74 74 71 71 69 63 60 62 61 67 70 70 73 73 72 70 73 73 74 75
66 65 65 65 65 65 65 65 66 66 66 67 67 67 67 66 64 66 77 80 80 80 75 71 70 72 68 69 68 66 60 62 67 67 68 70 70 72 71 68 69 70 73 70 72
65 65 65 64 64 64 64 65 65 66 67 67 67 66 66 65 67 69 80 80 80 77 75 74 73 72 68 69 67 63 61 63 68 69 70 70 68 72 69 65 72 72 75 69 69
64 64 64 64 64 64 64 64 65 66 67 66 66 66 66 65 60 72 80 80 80 76 76 73 71 67 64 63 67 62 65 66 68 70 69 68 70 68 67 75 75 75 72 69 68
64 64 64 64 64 64 64 65 65 66 66 66 66 67 67 65 66 75 79 78 75 74 72 70 68 66 62 64 65 63 65 67 68 67 68 69 67 68 66 73 73 71 69 69 71
64 64 64 64 63 63 64 64 65 66 65 65 66 66 66 60 73 75 73 73 74 74 71 72 69 69 65 64 64 64 65 65 66 67 67 66 66 66 68 71 70 70 70 71 70
64 63 63 63 63 63 64 64 64 64 64 65 67 68 63 65 72 73 73 72 73 74 71 73 73 70 67 62 66 65 61 62 63 65 66 65 63 62 72 70 71 69 72 70 69
63 62 62 62 62 62 63 63 63 63 65 66 66 66 60 71 71 72 74 73 75 75 73 73 73 70 67 67 65 60 60 54 62 62 65 67 58 68 68 68 68 70 71 67 69
62 62 62 62 62 62 62 63 64 65 66 66 64 64 61 74 69 72 73 71 71 73 72 76 71 63 64 58 55 54 53 51 55 62 61 61 58 64 65 62 64 67 68 67 68
62 61 61 61 61 62 62 63 66 66 66 68 68 60 66 63 68 69 71 72 68 68 66 64 59 56 55 56 49 50 50 51 50 59 57 56 55 62 67 63 65 68 69 66 67
62 61 61 61 61 61 60 63 61 60 62 58 58 58 63 68 70 68 70 69 68 63 56 57 55 51 53 54 54 53 50 50 56 60 57 57 58 61 65 62 62 65 68 67 69
61 61 61 61 60 60 58 60 59 62 54 60 60 61 64 66 62 65 71 63 60 54 56 53 49 56 55 54 53 52 50 50 54 57 55 54 55 61 63 64 67 66 68 70 72
60 60 60 61 60 60 61 60 63 64 54 59 62 61 63 66 60 62 67 61 57 52 51 50 56 55 55 52 50 50 49 50 51 55 56 52 54 59 62 65 66 66 68 71 71
60 60 60 60 61 59 60 63 62 63 49 54 59 63 64 63 59 67 67 63 58 53 51 51 55 55 52 50 53 46 54 54 52 49 46 56 46 58 63 65 61 63 65 67 69
59 59 59 60 60 58 61 61 61 61 41 56 59 69 65 60 61 61 66 62 55 55 55 53 53 52 51 53 54 52 55 52 51 48 47 50 47 60 62 60 65 70 69 65 67
59 58 59 59 58 59 59 60 60 48 39 52 58 56 57 58 59 61 61 63 61 55 53 54 57 58 57 58 56 57 55 51 46 47 40 51 49 53 59 60 63 68 68 68 69
59 59 60 61 57 58 59 58 47 41 51 48 50 53 52 51 54 54 53 51 48 44 44 48 51 56 58 54 55 55 48 39 39 37 39 49 48 55 61 66 65 65 65 62 64
58 60 60 62 57 58 58 52 41 44 45 52 52 50 48 49 50 50 50 46 48 46 43 39 42 53 56 54 51 50 49 42 34 37 42 49 43 54 62 62 58 58 58 60 61
58 56 56 60 58 57 54 38 39 44 49 47 49 44 44 48 48 47 45 44 45 46 40 40 40 53 57 56 55 49 46 51 43 46 40 46 52 59 65 56 54 56 58 59 60
53 53 55 60 55 55 46 41 44 50 50 49 42 45 41 42 44 43 44 45 45 48 49 44 36 49 51 55 54 50 51 40 42 32 31 41 44 46 54 47 52 54 56 57 58
52 51 58 57 56 50 39 40 47 52 50 47 44 43 42 40 42 42 44 43 46 46 48 45 40 43 47 45 42 44 42 44 43 40 30 30 38 46 47 50 51 54 56 56 56
48 45 55 55 45 37 39 43 49 47 47 46 47 44 41 41 40 41 40 41 46 47 40 45 39 32 37 47 50 47 42 41 29 28 31 27 26 50 51 53 53 53 56 57 57
42 42 51 52 38 35 39 43 45 44 42 42 42 43 43 40 36 40 40 45 45 43 40 43 35 27 34 39 44 40 41 41 39 34 27 24 30 51 50 50 53 51 54 56 55
42 41 42 39 36 36 35 37 39 44 42 43 41 41 38 36 40 36 38 44 44 44 50 47 37 33 26 31 36 32 36 38 36 26 28 30 33 41 44 45 44 46 49 52 53
38 34 36 33 35 34 35 36 36 35 40 41 37 37 34 31 32 33 38 39 42 46 43 40 30 34 35 37 36 35 34 35 33 34 27 32 33 39 42 39 44 47 49 50 52
38 37 34 32 34 33 35 33 35 36 37 36 35 36 36 31 34 31 35 35 35 40 40 39 30 34 29 35 35 32 35 36 36 37 37 37 36 43 42 45 46 47 48 48 50
38 39 38 34 31 32 32 34 35 37 39 41 38 35 33 36 40 41 40 40 39 36 35 33 31 29 23 33 32 26 34 37 38 40 39 32 38 42 40 44 47 47 48 48 50

GFSSW_sfc_temp_018.txt.gz
Temp
66 66 66 66 66 66 66 66 66 67 67 67 68 68 68 67 68 81 80 81 82 80 81 84 85 83 84 80 80 79 74 71 74 74 78 82 79 83 85 85 82 85 87 86 89
66 66 66 66 65 65 65 66 66 67 67 67 68 68 68 67 79 80 81 80 80 80 84 82 79 82 81 78 79 78 72 75 80 81 79 83 81 85 79 82 81 84 88 84 87
65 65 65 65 65 65 65 65 66 66 67 67 67 67 67 71 78 78 80 80 80 82 84 83 81 80 77 78 77 75 72 76 78 79 79 79 78 81 79 79 84 85 88 85 84
65 65 64 64 64 65 65 65 66 66 67 67 66 66 66 77 69 81 80 80 80 84 84 81 80 76 74 73 76 71 76 75 77 78 77 77 81 78 80 83 87 87 89 88 83
65 65 64 64 64 64 65 65 66 67 67 66 66 67 75 78 76 84 79 81 84 83 80 78 77 75 72 73 74 72 75 76 78 77 77 79 75 78 80 85 89 87 81 84 84
64 64 64 64 63 64 64 65 65 66 65 66 67 66 77 73 82 84 82 82 82 82 79 80 77 78 74 73 72 73 74 75 77 77 78 74 76 78 81 85 85 86 85 86 85
64 63 63 63 63 63 64 64 65 65 65 66 67 76 75 74 83 85 81 82 82 81 77 80 80 76 75 71 74 74 69 75 77 77 74 76 71 73 83 85 84 85 88 88 87
63 63 63 62 62 63 63 63 64 64 65 66 67 77 74 81 85 80 83 82 83 83 81 81 81 77 74 75 74 70 72 66 73 71 74 73 68 80 81 80 80 84 86 86 88
63 63 62 62 62 63 63 63 65 66 67 68 75 76 71 79 78 81 83 79 80 81 81 81 79 72 72 68 68 67 66 67 69 73 71 70 69 79 77 77 77 83 86 87 86
62 62 62 62 62 62 62 64 66 69 72 76 77 72 76 72 77 78 82 80 77 76 74 74 73 70 69 68 61 65 65 68 65 72 69 67 67 74 79 79 77 79 83 85 87
62 61 61 61 62 62 68 76 73 71 73 69 70 70 72 78 79 78 80 77 76 73 68 68 66 65 70 69 69 65 63 62 68 73 68 66 67 71 77 77 76 78 80 84 87
61 61 61 61 61 61 73 73 69 70 67 69 68 70 72 75 71 75 80 71 69 65 66 66 63 66 64 64 62 63 61 62 68 71 67 67 66 71 75 76 78 78 80 82 85
61 61 61 61 61 69 74 69 72 73 69 67 70 70 71 73 69 70 75 71 67 62 64 62 66 64 63 63 60 62 60 62 62 67 68 66 65 75 79 77 79 80 82 82 82
60 60 60 61 67 73 71 72 73 73 67 63 67 70 73 72 66 74 75 71 67 62 62 63 65 61 61 61 63 58 65 62 60 58 56 65 54 69 76 75 77 81 83 81 78
59 59 60 60 74 72 69 72 74 73 55 64 67 78 74 68 68 68 74 71 64 64 62 64 63 62 60 62 63 61 63 61 60 58 58 60 54 68 76 71 73 75 71 71 73
60 59 60 71 76 69 71 71 72 62 52 59 65 63 66 67 67 69 69 72 69 62 63 63 69 63 64 64 64 65 62 62 59 56 48 61 58 62 67 68 72 70 69 70 71
59 61 67 72 70 71 71 72 63 57 60 55 57 61 60 59 62 62 60 58 56 53 57 61 61 63 64 60 63 63 59 51 50 48 50 59 56 62 71 68 64 63 66 68 69
58 61 64 70 70 69 73 68 55 51 53 59 58 59 56 57 58 59 59 56 56 55 53 50 52 59 61 58 54 57 55 50 40 46 50 59 49 61 74 75 68 67 67 67 67
58 76 74 71 68 71 71 61 52 52 55 54 57 54 53 55 57 58 53 51 51 54 48 48 49 61 61 61 59 56 51 55 47 51 45 51 59 68 72 67 62 63 64 62 65
74 73 70 70 68 74 69 49 52 57 56 56 51 54 50 51 53 55 53 51 49 53 57 51 42 56 56 61 60 56 58 44 48 36 37 48 49 50 55 54 59 59 60 61 62
73 70 71 70 73 71 58 52 53 57 56 54 52 51 49 48 50 50 50 47 51 51 55 53 48 50 54 51 49 49 47 47 46 44 35 32 40 56 52 56 56 57 58 58 59
69 64 70 70 66 61 55 52 51 53 57 54 54 51 48 48 48 48 46 46 50 51 45 50 46 40 45 54 54 50 43 45 35 33 38 35 33 56 57 58 58 57 56 57 59
64 63 71 70 59 55 52 50 51 51 49 50 47 50 50 47 44 47 47 49 50 49 46 48 43 34 44 46 51 46 46 46 44 38 30 28 34 55 56 56 58 56 56 57 58
65 61 62 61 56 55 52 48 46 50 48 49 47 49 47 44 46 44 45 49 50 49 50 50 43 39 33 38 43 38 41 44 41 31 34 35 39 47 51 52 54 54 55 57 57
58 49 49 53 50 51 51 48 45 43 49 50 44 44 42 40 42 41 44 46 48 48 48 46 37 42 42 42 42 40 39 41 39 40 34 38 40 46 51 51 52 54 55 55 56
58 55 53 49 47 51 47 45 44 43 45 43 44 42 43 39 42 40 43 43 41 46 44 46 33 38 34 40 40 37 41 42 42 42 43 43 41 53 54 53 51 53 53 52 55
54 54 58 42 47 51 48 45 43 45 46 48 45 43 42 44 47 49 49 48 46 42 41 40 36 32 27 39 38 32 41 44 44 46 45 37 44 50 47 48 50 51 52 53 55

GFSSW_sfc_temp_021.txt.gz
Temp
66 66 66 66 67 66 66 67 67 67 67 68 68 68 68 67 67 83 85 81 83 81 79 89 90 88 89 85 85 86 75 73 76 78 80 90 84 92 92 88 92 92 91 93 96
66 66 66 66 66 66 66 66 66 67 67 67 68 68 68 67 85 86 81 80 81 80 89 86 84 86 85 83 83 80 74 76 84 83 81 85 86 86 87 86 88 91 95 93 93
66 65 65 65 65 65 65 66 66 67 67 68 68 67 67 71 84 82 80 81 81 82 90 89 87 85 80 82 83 82 74 83 82 84 83 82 83 88 84 79 87 88 92 95 90
65 65 65 65 65 65 65 65 66 67 67 68 67 67 67 82 72 85 80 81 81 87 89 86 85 80 77 77 82 74 83 82 81 83 80 79 85 83 84 84 92 93 93 93 90
65 65 65 65 65 65 65 65 66 67 67 67 67 67 77 81 79 88 80 83 89 87 84 83 82 81 76 79 80 77 81 82 83 82 81 82 79 80 81 88 93 93 92 89 92
64 64 64 64 64 64 64 65 66 66 66 66 67 66 81 77 87 89 87 87 87 86 84 84 82 82 78 77 77 80 78 79 81 81 82 78 79 81 84 90 89 90 90 92 90
64 64 64 63 63 63 64 64 65 65 65 66 67 79 82 76 88 90 86 86 87 85 81 84 84 80 80 77 81 78 72 78 81 83 80 81 74 76 87 89 87 89 92 92 92
64 64 63 63 63 63 64 64 64 64 65 67 67 83 78 86 90 86 88 86 88 87 84 85 85 80 77 82 78 74 76 69 80 78 79 75 68 83 88 85 84 88 91 91 92
63 63 63 63 62 63 63 64 65 66 67 69 78 82 75 80 83 86 87 82 84 85 85 85 82 77 76 70 71 76 68 71 74 80 76 74 68 80 86 84 82 85 87 89 91
62 62 62 62 62 63 63 64 67 67 74 82 83 76 80 77 81 83 87 84 80 80 78 77 77 72 74 71 62 67 68 71 69 78 76 73 72 78 83 82 82 84 87 88 89
62 62 61 62 62 62 67 78 76 75 80 71 73 75 77 82 84 82 84 81 80 77 71 75 68 69 73 73 73 70 67 66 72 77 73 70 71 75 80 82 81 83 85 86 88
61 61 61 61 62 62 72 79 74 77 70 75 75 76 78 80 74 79 84 75 73 69 73 70 66 70 70 69 67 67 65 66 72 77 72 70 69 75 79 81 82 83 84 85 86
61 61 61 61 62 68 81 75 79 80 75 71 75 75 75 78 73 74 79 76 71 68 70 66 71 69 67 67 66 67 65 66 65 68 71 70 68 75 83 84 83 80 78 78 77
60 60 61 62 65 81 76 78 80 79 70 66 71 74 77 76 70 78 79 74 72 67 68 68 71 66 66 65 68 61 67 65 63 61 57 71 54 68 77 78 73 73 73 73 73
60 60 61 58 80 79 75 79 80 77 57 67 70 82 78 73 72 72 79 74 67 69 66 67 67 64 62 65 67 61 67 63 63 61 60 62 59 70 75 70 70 70 69 71 72
61 61 61 75 82 75 79 78 77 65 55 62 69 67 70 71 71 74 73 76 74 66 69 67 74 67 65 67 67 68 65 66 66 62 51 64 62 65 69 69 66 69 70 70 70
59 61 71 79 76 78 79 76 65 60 65 60 62 66 65 64 66 67 64 62 59 55 61 66 65 67 68 63 68 65 60 52 53 49 52 66 59 65 73 67 65 65 68 69 69
58 60 68 76 78 77 77 71 58 58 60 64 63 64 61 62 63 64 63 61 60 59 57 55 55 62 66 60 56 58 58 50 42 49 53 60 51 64 74 70 70 69 69 69 67
56 81 81 79 76 78 74 66 57 59 60 59 62 60 59 60 61 63 58 55 55 57 51 52 55 65 65 63 62 59 53 57 48 52 47 54 62 70 74 65 64 63 64 65 65
81 81 75 79 78 77 73 54 57 60 60 61 57 58 56 56 58 59 58 55 53 56 60 56 45 60 60 63 64 60 60 46 51 39 40 52 52 53 56 55 58 59 61 64 64
78 75 77 80 79 78 67 58 57 61 61 59 56 56 55 53 55 55 56 52 54 54 58 55 51 53 59 56 53 54 51 52 51 47 39 36 44 61 54 56 55 59 61 62 62
77 71 78 81 73 72 62 59 54 57 61 58 58 55 53 53 52 52 52 53 54 55 50 53 48 43 49 58 59 55 51 48 39 37 41 38 36 58 58 58 59 59 61 62 62
74 72 80 79 67 62 59 54 56 56 54 55 52 55 55 52 48 52 52 54 53 52 50 51 47 39 48 50 53 49 50 51 48 43 33 30 35 57 58 58 60 59 60 60 61
74 68 70 71 69 65 59 55 51 55 53 55 53 54 52 50 53 50 50 54 52 52 52 50 45 42 37 43 48 43 46 48 45 34 37 38 41 49 53 54 57 58 59 59 59
69 58 58 61 60 61 60 57 52 50 54 55 50 50 48 47 50 48 49 52 54 52 51 49 40 45 47 47 46 44 43 44 41 42 36 40 42 48 53 55 56 58 57 57 57
67 65 64 58 58 60 53 54 52 50 52 50 50 49 49 46 48 44 48 48 47 51 48 50 38 41 37 43 43 40 44 45 45 45 45 46 44 56 57 58 55 55 55 55 56
67 65 66 48 57 60 55 53 50 51 51 53 51 49 48 50 53 54 53 52 51 47 45 44 41 36 30 42 41 34 44 46 47 49 47 40 46 53 51 52 52 52 54 55 56

GFSSW_sfc_temp_024.txt.gz
Temp
66 66 66 67 67 67 67 67 67 67 67 68 68 68 68 68 67 78 81 79 81 80 80 84 88 88 86 81 81 81 64 61 66 69 72 82 79 86 88 81 84 86 83 84 87
66 66 66 66 66 66 66 66 67 67 67 67 68 68 68 67 74 84 79 81 80 81 86 85 84 85 78 79 77 71 63 67 77 76 73 78 78 80 80 79 79 82 87 86 87
66 66 65 65 65 65 66 66 66 67 67 68 68 67 67 69 76 79 80 81 80 81 88 88 87 83 76 78 77 74 65 75 77 79 79 76 76 81 76 71 78 77 82 83 81
65 65 65 65 65 65 66 66 66 67 68 68 67 67 67 76 68 81 80 80 80 83 87 86 84 77 74 73 80 69 76 78 78 79 77 73 78 75 75 75 82 83 84 83 81
65 65 65 65 65 65 65 66 66 67 67 67 67 67 74 75 77 86 81 82 85 88 84 82 79 77 71 77 77 73 75 80 80 78 76 78 73 73 74 80 83 85 84 81 80
65 64 64 64 64 64 65 65 66 66 66 66 67 66 74 73 88 90 88 88 87 86 84 83 80 80 74 75 72 76 75 75 77 77 77 75 73 74 76 81 82 82 80 80 81
64 64 64 64 64 64 64 65 65 65 66 66 67 76 78 74 89 90 88 86 87 85 81 84 82 77 77 72 79 76 68 71 74 77 75 75 67 69 78 82 80 79 79 80 81
64 64 64 63 63 64 64 64 64 64 65 67 67 76 74 86 88 86 89 87 88 88 84 83 83 77 75 77 74 70 69 60 74 75 72 72 58 71 79 77 75 76 76 77 80
63 63 63 63 63 63 64 64 65 66 67 69 75 78 72 80 82 86 87 82 84 85 84 86 80 73 74 65 62 66 58 63 68 77 73 69 61 72 78 77 75 74 75 77 77
62 62 62 62 63 63 63 64 67 66 70 82 83 74 79 76 81 83 87 84 80 80 78 76 72 66 66 64 53 59 60 63 61 70 72 66 65 72 75 75 72 73 73 74 76
62 62 62 62 62 63 65 73 71 72 80 71 74 75 78 83 84 83 85 82 80 76 67 72 62 60 64 65 66 64 61 60 65 73 68 64 65 69 74 73 70 70 72 70 72
62 62 61 62 62 62 67 76 73 75 68 77 76 77 79 81 75 79 84 74 73 65 72 66 59 67 70 69 65 63 60 60 66 71 66 63 62 68 72 70 68 67 66 67 68
61 61 61 62 62 64 78 74 80 80 69 72 76 76 75 78 74 74 79 75 70 66 68 62 68 71 68 65 63 63 60 60 58 63 65 62 59 63 67 68 68 67 66 66 65
61 61 61 62 65 80 75 79 81 79 64 64 70 74 77 77 69 79 80 73 71 65 66 65 71 67 64 63 65 55 65 62 59 55 47 62 44 57 63 62 63 63 62 63 64
61 61 62 58 74 76 75 80 80 74 52 67 70 83 79 73 73 71 79 74 65 65 65 62 65 62 59 62 65 58 64 60 58 54 53 55 48 57 63 57 59 61 63 63 63
61 62 62 71 78 76 79 79 74 59 51 62 71 68 70 72 72 74 73 75 73 64 66 64 72 68 63 66 66 66 61 59 58 54 43 54 53 54 56 56 58 61 62 63 62
60 61 67 80 72 79 78 73 60 54 66 61 62 66 66 64 67 67 65 59 54 50 55 62 65 66 67 59 65 60 52 42 42 40 42 57 51 52 57 59 58 57 59 61 62
59 58 70 78 78 77 75 66 54 61 59 66 64 65 61 62 63 64 62 57 57 55 52 51 51 61 65 59 53 53 51 42 34 39 42 54 43 52 60 60 60 60 59 59 59
57 76 79 78 78 76 69 59 53 58 61 59 63 60 59 61 60 62 56 54 54 55 46 48 52 64 64 62 59 54 47 52 43 47 40 46 54 59 58 56 56 56 58 57 58
72 78 73 80 79 73 65 54 56 61 61 62 57 59 56 57 57 58 58 55 53 56 58 53 41 58 60 61 61 55 57 42 43 32 31 42 43 44 47 49 53 54 55 57 59
71 72 76 81 80 69 60 56 57 62 62 58 57 57 56 53 55 55 55 52 54 54 56 53 47 50 55 53 49 49 47 48 46 42 31 30 37 51 49 50 51 54 56 56 55
73 66 76 81 67 69 59 60 54 59 63 59 59 56 54 54 52 53 53 52 54 54 48 52 44 38 46 56 57 52 48 48 34 33 35 30 32 54 52 53 55 55 57 56 56
70 69 78 78 61 58 58 55 58 57 55 57 54 55 56 53 47 52 53 52 53 51 46 48 43 33 42 46 52 48 50 49 45 38 31 26 31 53 54 53 55 55 54 55 56
70 63 69 71 69 62 58 56 51 56 55 57 54 56 53 52 54 49 51 53 52 52 52 49 42 38 31 37 44 40 44 46 42 31 32 33 37 45 49 50 53 52 53 53 54
66 57 60 58 60 61 61 59 53 51 56 57 52 52 49 46 50 49 51 52 54 52 50 47 37 42 44 44 43 41 41 42 39 39 32 36 38 44 49 50 51 53 53 52 53
62 62 64 59 62 61 53 56 55 52 54 52 50 52 51 46 48 44 47 47 46 51 48 48 35 40 35 42 42 39 42 42 42 43 42 43 41 51 52 53 52 50 51 50 51
68 66 61 50 59 59 55 55 53 54 53 55 53 50 48 50 51 51 51 50 49 45 43 42 37 34 27 40 38 30 41 44 44 46 44 35 42 49 46 46 47 47 50 50 50

GFSSW_sfc_temp_027.txt.gz
Temp
66 66 66 67 67 67 67 67 67 67 67 67 68 68 68 67 67 68 72 74 75 80 80 79 79 79 77 71 73 71 56 52 57 62 65 72 71 77 78 74 78 76 74 80 81
66 66 66 66 66 66 66 66 66 66 67 67 68 68 68 67 66 71 77 80 80 80 79 77 75 77 68 69 69 62 53 58 68 66 65 71 70 71 72 71 71 74 76 77 78
66 66 65 65 65 65 65 65 66 66 67 67 67 67 67 66 67 70 80 80 81 80 79 79 79 74 66 68 67 64 58 66 70 72 71 69 69 72 68 65 69 70 75 77 73
65 65 65 65 65 65 65 65 66 66 67 67 66 66 66 67 60 74 80 81 81 79 77 78 75 66 64 63 71 62 69 70 70 74 72 68 71 68 69 70 73 74 74 72 74
65 65 65 65 65 65 65 65 66 67 67 66 66 67 67 64 68 80 81 80 79 80 78 75 69 66 61 64 68 63 66 71 71 70 70 72 67 67 69 73 75 77 77 74 72
64 64 64 64 64 64 64 65 66 66 65 66 67 66 64 61 79 82 81 81 82 79 76 75 69 71 65 65 62 66 67 67 69 69 69 69 66 66 70 73 74 74 73 73 74
64 64 64 63 63 63 64 64 65 65 65 66 67 71 67 67 79 77 82 77 79 78 73 75 74 67 66 63 69 69 62 62 65 67 67 69 62 65 71 72 69 70 64 67 71
63 63 63 63 63 63 64 64 64 64 65 66 66 65 62 78 75 79 81 79 81 80 77 76 75 69 65 68 66 60 57 51 65 69 66 66 54 66 72 68 69 70 68 71 64
63 63 63 63 63 63 63 64 64 65 67 67 65 63 61 77 74 78 77 76 78 78 76 84 72 65 65 56 51 54 48 52 58 67 65 62 56 64 70 70 67 65 65 66 66
62 62 62 62 62 63 63 64 65 66 68 74 76 63 70 69 74 76 75 77 73 73 70 67 62 56 54 51 43 47 48 53 51 62 64 59 57 63 66 66 62 63 63 63 63
62 61 61 62 62 62 62 63 62 62 66 62 65 68 72 74 76 73 77 74 72 66 56 62 54 49 52 56 57 55 52 51 56 64 58 56 56 63 64 60 58 58 58 59 60
62 61 61 61 61 61 60 62 64 65 59 71 71 72 75 73 68 72 77 64 63 56 61 55 50 60 63 62 59 57 52 50 56 62 59 55 56 58 60 58 58 57 57 58 60
61 61 61 61 61 60 65 66 71 70 59 67 71 70 70 71 66 66 72 66 60 57 57 51 58 67 63 59 57 54 51 50 50 55 56 53 49 53 57 59 61 58 58 58 57
61 61 61 61 62 67 65 71 71 69 50 58 65 68 72 71 63 74 73 66 62 57 59 56 64 63 57 56 56 48 57 56 54 48 41 54 37 48 52 53 55 53 53 53 55
61 61 61 60 61 65 67 70 69 64 40 62 65 76 72 66 66 66 72 67 57 58 56 54 56 55 54 56 59 52 58 54 53 46 42 47 40 42 52 48 50 52 55 53 54
60 61 61 62 61 66 69 68 64 51 42 57 66 64 63 66 65 68 67 67 65 58 57 56 64 61 57 61 60 61 54 52 48 43 35 46 45 42 44 45 48 50 53 54 55
60 60 61 73 62 68 67 61 49 43 60 55 57 62 60 57 61 61 55 50 46 43 43 53 55 60 63 54 57 53 43 33 35 34 35 49 44 39 46 49 50 50 51 53 54
59 59 66 71 67 67 62 53 41 54 53 61 59 59 54 56 57 58 53 46 50 47 41 40 42 54 59 52 47 46 44 34 28 29 34 47 38 41 51 52 51 52 52 53 53
57 60 62 65 69 64 55 43 41 50 56 54 56 51 51 56 53 54 47 46 48 47 38 38 43 55 58 57 53 47 40 46 37 38 31 37 43 46 49 48 49 50 51 51 52
57 58 60 69 67 60 51 46 48 56 56 56 48 51 46 49 49 48 45 49 49 51 49 43 35 49 55 56 54 48 51 37 35 26 24 32 36 37 41 43 49 50 51 51 51
58 56 63 68 64 54 44 45 52 59 57 52 49 49 49 46 47 46 45 48 50 49 49 44 39 41 48 45 41 43 40 41 38 34 25 22 29 41 40 46 48 51 53 53 50
56 51 65 65 53 46 43 51 54 55 56 54 52 50 47 47 44 45 45 45 50 49 42 43 37 30 38 48 52 47 41 40 26 28 28 20 28 45 47 50 52 51 53 51 50
53 52 63 62 45 40 46 51 51 52 51 52 49 50 50 46 40 46 45 49 49 47 41 42 34 24 34 40 46 41 44 43 39 30 23 19 31 51 50 50 52 51 49 49 50
53 49 52 53 49 46 45 46 45 52 51 52 50 50 47 44 46 42 44 48 49 49 53 47 35 31 24 31 37 34 38 40 35 17 28 30 34 42 45 47 49 46 46 47 48
50 45 47 42 47 47 47 49 46 45 50 50 46 47 44 39 42 42 45 45 47 51 46 41 30 35 37 39 39 38 37 38 35 35 27 34 35 41 45 42 42 45 47 48 49
48 47 47 45 48 46 44 43 48 47 46 45 44 48 44 39 41 38 41 40 40 43 42 41 30 34 31 38 38 35 38 38 38 38 38 38 36 44 46 42 43 43 45 46 48
48 50 48 45 45 43 42 46 48 48 48 50 47 43 42 43 43 42 42 42 41 38 37 36 31 26 19 34 34 25 35 38 39 40 38 32 39 41 41 43 44 45 46 46 48

GFSSW_sfc_temp_030.txt.gz
Temp
66 66 66 66 67 67 66 66 66 66 67 67 67 68 68 67 67 67 70 73 74 80 80 77 77 76 74 69 70 66 55 51 56 58 63 68 68 72 74 69 72 74 70 76 76
66 66 66 66 66 65 65 65 66 66 66 67 67 68 67 66 65 68 77 80 80 80 77 74 73 74 67 66 67 60 52 57 64 63 63 67 65 68 68 65 65 70 75 76 74
65 66 65 65 65 65 65 65 66 66 67 67 67 66 66 65 66 68 80 80 81 79 76 75 75 72 64 65 64 61 56 62 67 69 68 67 67 69 64 62 65 66 71 74 69
65 65 65 65 65 65 65 65 66 66 67 67 66 66 65 64 58 72 81 81 81 77 75 74 71 64 61 61 66 58 66 66 68 69 68 66 69 65 67 68 71 71 70 71 71
64 64 64 64 64 65 65 65 65 66 66 66 66 66 65 63 65 77 81 80 78 77 73 71 66 62 58 61 64 60 63 68 69 67 66 67 65 63 67 71 70 71 72 68 67
64 64 64 64 63 64 64 64 65 66 65 66 66 66 63 59 76 78 77 78 77 75 72 71 66 67 62 61 59 63 64 64 66 65 66 65 63 65 69 69 70 69 65 61 63
64 64 64 63 63 63 64 64 65 65 65 66 66 69 64 65 75 75 78 74 76 74 70 72 70 65 63 60 66 65 59 61 63 65 64 64 59 61 69 67 68 65 59 62 63
63 63 63 63 63 63 64 64 64 64 65 66 66 63 59 75 73 76 77 75 77 76 74 73 72 66 62 65 63 57 55 50 62 64 66 63 51 63 67 64 63 58 56 61 62
62 62 62 63 62 63 63 64 64 66 66 67 63 60 59 76 71 75 74 72 74 74 73 81 70 62 63 53 49 51 45 48 55 63 62 59 54 61 65 64 57 55 56 60 59
62 62 62 62 62 62 63 63 65 66 68 72 73 61 67 66 71 73 72 74 70 69 67 65 59 53 51 49 43 44 45 50 49 59 60 56 52 55 58 57 55 52 52 56 57
62 61 61 62 62 62 62 63 61 61 64 61 62 64 68 71 73 70 74 71 68 63 54 58 52 47 52 55 55 51 48 48 52 60 55 52 49 52 55 55 53 51 51 52 54
61 61 61 61 61 61 61 62 61 64 59 68 68 68 71 70 65 69 74 62 61 54 56 53 48 57 61 59 56 52 48 47 53 58 55 52 47 52 54 52 53 51 50 51 52
61 61 61 61 61 60 63 63 68 67 57 64 68 67 67 69 63 64 68 62 57 54 53 49 56 63 60 55 53 50 48 47 48 52 52 50 43 48 53 54 55 53 52 52 52
61 61 61 62 61 63 62 69 67 67 49 56 62 66 69 68 61 71 70 63 59 53 55 53 61 59 54 53 53 45 54 53 51 46 39 51 34 43 47 47 49 49 48 48 50
61 61 61 62 59 62 65 66 65 63 39 59 62 74 68 63 63 64 70 65 54 54 54 51 53 53 52 53 56 51 55 52 50 44 40 42 37 37 46 43 45 48 50 50 49
60 61 61 61 60 63 66 65 63 49 40 55 63 61 60 62 62 64 61 63 60 55 53 53 60 57 54 58 57 57 51 47 43 40 32 41 40 37 39 42 44 47 50 52 51
59 60 61 69 62 65 64 60 48 41 57 52 54 58 56 54 57 58 51 47 43 42 41 49 53 56 59 52 54 50 40 33 34 32 34 45 40 35 43 45 46 47 49 51 51
59 60 63 68 64 64 60 54 38 51 50 58 56 56 52 54 54 53 48 43 47 44 39 37 40 50 56 50 45 44 41 33 29 28 32 42 34 37 47 49 48 49 50 51 50
59 58 59 63 66 61 55 43 42 46 53 52 54 48 48 53 51 49 43 43 45 44 38 36 40 52 55 54 50 44 38 43 35 33 29 34 36 44 46 45 45 47 49 48 49
56 56 57 65 62 58 49 44 45 53 54 53 45 49 43 46 46 45 42 46 46 48 45 40 34 46 52 53 51 46 48 36 33 27 25 29 31 34 38 40 44 46 45 47 50
56 54 61 63 61 52 43 42 49 56 55 50 46 46 45 44 43 41 41 45 48 47 47 41 37 40 45 42 39 41 39 39 36 31 25 21 29 39 39 40 44 47 50 50 46
52 50 61 61 50 41 41 49 54 52 53 52 49 47 44 44 42 41 42 44 48 47 40 40 35 29 36 46 49 43 38 36 26 27 26 19 25 45 41 47 49 48 49 48 47
50 50 58 60 44 38 43 49 49 49 48 49 46 48 47 43 38 42 42 47 48 45 41 40 32 25 32 39 43 39 41 40 36 27 21 19 30 45 49 48 49 43 44 45 47
50 48 50 48 44 43 42 42 44 49 48 49 47 48 45 42 44 41 41 46 47 46 52 46 33 31 26 31 34 32 36 37 34 17 26 30 35 42 44 44 43 42 43 43 45
46 43 45 41 45 43 43 45 43 43 47 47 43 44 42 37 39 39 43 43 45 51 43 39 29 32 35 37 37 36 35 36 32 33 26 33 33 40 43 41 40 42 43 45 46
47 46 44 42 45 42 44 41 45 45 44 43 42 45 42 38 40 38 40 39 38 41 39 38 29 30 28 35 35 33 36 36 36 36 36 36 35 44 43 40 40 41 43 46 47
44 46 47 43 42 41 41 43 46 46 45 47 46 42 41 43 42 41 41 41 39 38 36 34 30 25 20 31 30 25 32 35 37 39 37 30 38 40 39 40 42 45 46 46 46

GFSSW_sfc_temp_033.txt.gz
Temp
66 66 66 66 66 66 66 66 66 66 66 67 67 68 67 66 66 66 68 72 73 80 80 76 76 75 72 68 68 64 54 50 54 56 60 66 66 69 70 65 67 68 66 72 73
66 66 66 65 65 65 65 65 66 66 66 67 67 67 67 66 64 67 77 80 80 80 75 72 71 72 66 65 65 59 51 56 61 61 60 65 63 66 66 63 62 66 70 72 69
65 66 65 65 65 65 64 65 65 66 66 67 67 66 66 64 65 67 81 80 81 78 74 72 71 69 62 63 62 58 56 60 64 66 65 64 64 67 64 62 64 65 68 69 70
65 64 64 64 64 65 65 65 65 66 67 67 66 66 65 62 57 71 81 81 81 75 74 72 69 62 59 58 64 57 63 63 65 67 65 62 66 64 62 67 67 64 62 61 60
64 64 64 64 64 64 65 65 65 66 66 66 66 66 63 61 63 76 81 79 76 75 72 69 64 60 57 59 62 56 60 65 66 65 63 64 60 62 65 64 62 63 62 60 60
64 63 64 64 63 64 64 64 65 66 65 66 66 66 61 57 74 75 76 76 76 73 70 69 64 64 59 58 57 59 61 62 63 63 61 61 60 61 65 62 60 60 58 59 59
63 63 63 63 63 63 64 64 64 64 65 66 66 67 62 62 73 72 76 72 74 72 68 69 67 62 60 58 63 61 57 59 60 62 62 62 58 60 61 60 56 56 56 58 59
63 63 63 62 63 63 63 63 63 64 65 66 66 61 58 73 71 74 75 73 74 73 71 70 69 64 60 62 59 54 52 48 59 62 62 61 49 54 58 57 53 53 51 55 56
62 62 62 62 62 63 63 63 64 66 66 67 61 59 57 76 69 72 71 69 71 71 70 79 68 59 60 51 48 49 43 45 54 59 59 58 46 53 57 56 52 49 50 54 54
62 62 62 62 62 62 62 63 65 66 67 70 70 59 65 63 68 71 69 71 67 67 65 64 56 51 49 48 42 43 43 46 47 56 57 48 45 50 53 52 49 47 47 50 52
61 61 61 61 62 62 61 61 61 60 63 58 59 61 65 69 71 68 71 69 66 62 52 56 51 46 50 52 52 49 46 45 49 56 52 46 45 48 51 50 48 47 48 49 51
61 61 61 61 61 61 59 60 59 62 57 65 65 65 68 67 62 67 71 61 59 52 54 51 46 55 57 56 53 50 46 45 50 55 52 45 44 48 50 48 49 48 47 49 50
61 61 61 61 61 60 61 62 65 64 56 61 65 64 65 67 60 63 67 60 55 52 51 47 53 60 58 52 51 48 46 44 46 50 50 45 41 43 48 50 51 49 48 48 48
61 61 61 62 60 61 61 65 65 65 48 54 60 64 67 66 60 69 68 61 57 51 51 50 58 57 52 51 51 44 52 51 49 44 38 46 33 39 43 44 46 45 45 46 48
61 61 61 62 60 61 63 64 63 63 38 57 60 70 65 61 61 62 65 62 52 52 52 49 51 51 50 51 53 49 53 50 47 42 37 39 36 34 42 40 42 45 48 48 50
60 60 60 61 60 61 63 62 62 49 39 52 60 58 58 60 59 61 59 60 57 53 51 50 57 54 52 55 54 54 48 45 41 38 31 37 38 34 37 41 42 44 49 49 49
60 60 61 66 60 62 62 59 47 40 54 50 52 56 53 52 55 54 49 44 42 41 38 46 50 54 56 49 52 49 39 32 33 31 33 41 37 34 42 44 45 44 47 48 49
59 62 63 66 61 62 59 53 37 48 47 55 54 53 49 51 51 50 46 41 45 41 37 36 39 48 54 48 42 42 39 32 30 28 30 38 33 36 45 47 47 47 47 47 48
60 57 57 61 63 60 55 42 42 45 51 50 52 46 45 50 49 46 40 40 42 41 37 36 38 49 52 51 48 41 36 40 34 30 27 31 36 39 43 43 43 44 46 46 47
55 54 57 62 60 57 48 43 43 51 51 50 45 46 43 44 44 42 40 43 44 45 43 38 34 43 49 50 49 43 46 35 32 27 25 28 29 33 37 38 42 42 43 45 46
55 53 60 59 59 51 43 41 48 53 53 48 44 44 43 42 42 39 40 43 46 45 44 38 36 39 42 39 37 39 37 36 35 30 26 21 29 38 38 41 40 42 44 45 44
51 49 58 58 49 38 41 46 52 49 51 49 47 45 43 42 40 39 40 42 46 45 39 38 34 29 37 43 44 41 36 35 27 27 24 19 24 42 41 42 43 43 44 44 45
49 49 55 57 44 37 41 46 47 47 46 46 45 46 45 42 37 40 40 45 46 43 39 40 32 26 32 38 40 36 38 37 31 26 20 20 27 40 39 43 46 42 42 43 45
49 48 50 45 41 41 40 40 42 47 46 47 45 46 43 40 42 39 39 44 45 45 52 45 31 31 28 32 33 32 35 36 32 17 23 28 36 43 45 42 45 45 41 42 44
44 42 43 41 44 40 40 42 41 41 45 45 42 43 41 37 38 39 40 40 43 49 41 38 30 30 33 35 34 34 35 34 31 30 26 33 31 39 42 43 44 41 41 43 45
47 45 41 40 42 40 41 39 44 42 43 41 40 43 40 37 39 37 39 38 37 39 38 36 29 29 28 33 33 31 34 34 35 35 34 35 33 44 45 39 39 40 42 44 45
41 44 47 42 40 40 40 42 45 45 43 45 44 41 38 41 41 39 39 39 38 37 34 33 29 24 19 29 29 27 33 34 33 35 35 29 38 39 38 39 39 42 43 43 44

GFSSW_sfc_temp_036.txt.gz
Temp
66 66 66 66 66 66 66 66 66 66 66 67 67 68 67 67 67 67 72 71 73 80 80 74 75 73 71 67 67 62 54 50 52 53 57 63 63 67 66 62 64 66 67 67 69
66 65 65 65 65 65 65 65 65 66 66 66 67 67 67 66 66 71 78 80 80 80 73 71 69 70 65 64 63 58 51 54 59 58 58 63 60 63 63 61 63 62 63 62 65
65 65 65 65 64 64 64 64 65 66 66 67 67 66 66 64 67 69 81 81 81 78 72 71 70 68 62 62 61 56 55 58 62 63 63 62 63 65 61 56 53 53 55 58 59
64 64 64 64 64 64 64 64 65 66 66 67 66 66 65 61 58 70 81 81 81 74 72 70 68 62 58 57 61 55 60 60 63 64 62 60 64 58 53 51 57 57 56 58 57
64 64 64 64 64 64 64 64 65 66 66 66 66 66 62 61 62 75 80 78 74 73 70 67 63 59 56 57 60 54 58 63 64 62 60 61 60 56 53 56 57 60 58 56 57
64 63 63 63 63 63 64 64 65 65 65 65 66 66 59 56 72 74 74 74 74 72 68 68 62 62 58 56 55 57 58 59 60 62 61 60 59 58 55 56 56 56 54 55 55
63 63 63 63 63 63 63 64 64 64 64 65 66 66 61 60 70 70 74 70 71 70 67 67 66 61 58 55 60 58 56 57 58 60 58 58 53 48 54 54 52 50 50 54 54
62 63 63 62 62 63 63 63 63 63 64 66 66 60 57 71 70 72 73 70 73 71 70 68 68 63 58 59 58 52 51 46 56 59 60 59 43 50 54 52 48 49 48 51 53
62 62 62 62 62 62 63 63 64 65 66 67 60 57 55 74 68 69 69 67 69 70 70 76 67 57 58 50 47 47 42 44 52 57 56 52 42 49 52 52 48 46 47 50 51
62 61 61 62 62 62 62 63 65 65 66 68 69 58 64 61 67 69 67 70 66 64 64 62 55 50 48 47 41 40 41 44 45 53 50 44 42 47 49 48 46 45 45 48 50
61 61 61 61 62 62 60 59 59 59 61 56 57 60 62 67 69 67 68 66 64 61 51 54 50 45 48 49 50 48 44 43 47 53 46 42 43 45 47 46 46 45 45 47 49
61 61 61 61 61 61 58 59 58 61 56 63 63 63 66 65 60 66 68 59 57 50 52 50 45 52 55 54 51 48 43 42 48 53 47 42 41 45 46 46 46 45 44 46 48
61 61 61 61 61 59 59 60 63 62 55 59 63 62 63 65 58 61 65 58 54 50 49 45 51 58 55 50 49 46 43 42 45 48 46 43 38 42 46 47 48 47 47 48 48
61 61 61 61 59 59 59 63 63 63 47 52 58 61 64 64 58 66 64 59 55 49 49 48 56 54 51 49 49 42 50 49 47 42 36 44 33 36 41 43 44 45 45 46 48
61 61 61 62 59 59 61 62 61 62 38 55 58 68 63 60 60 60 62 61 50 50 50 46 49 50 48 49 51 48 50 46 45 40 35 37 35 35 40 39 41 43 46 46 47
61 61 61 60 59 59 61 60 61 48 38 50 58 56 56 58 57 59 57 58 55 51 49 48 54 51 50 53 52 52 46 42 38 36 31 34 35 34 35 39 41 42 46 47 48
60 60 60 64 59 60 61 58 47 40 52 48 50 54 52 50 52 51 48 43 41 39 38 46 47 52 53 47 50 47 38 33 34 32 32 38 35 36 40 42 44 43 43 47 47
59 61 61 64 59 60 58 53 36 46 45 53 52 51 47 49 47 47 44 40 42 39 36 37 40 46 51 45 40 40 38 32 30 29 30 36 32 38 43 45 46 45 43 45 46
60 56 57 59 61 59 54 42 40 43 49 48 50 44 43 48 47 44 38 39 40 39 36 34 38 47 49 48 46 39 35 39 33 28 26 30 35 38 40 41 43 41 43 43 45
54 53 55 58 58 57 49 44 42 49 50 49 44 44 41 42 42 40 37 41 42 44 40 36 34 41 47 48 47 42 45 34 30 27 25 27 29 33 35 37 40 40 41 43 44
54 52 58 55 57 51 44 40 46 51 51 46 44 43 42 41 41 38 39 42 45 43 42 37 35 37 40 38 36 39 35 35 33 30 26 22 29 37 41 41 39 40 42 43 43
50 48 56 55 49 36 40 44 52 47 50 47 46 44 42 41 39 37 39 41 45 44 37 36 33 30 35 40 42 38 35 35 27 27 23 19 25 40 39 41 42 42 43 43 43
48 47 54 56 43 36 40 45 46 46 44 45 43 44 44 41 36 38 39 44 44 42 38 38 32 28 34 36 39 35 37 35 29 26 20 20 29 40 37 38 40 41 41 41 42
48 47 48 43 39 40 39 39 40 46 45 45 43 44 41 38 40 37 38 43 44 44 51 44 31 32 29 32 33 32 33 34 31 18 24 28 35 40 39 39 40 42 40 40 41
43 42 41 41 42 39 39 41 40 41 43 43 40 42 40 35 36 36 38 38 42 48 40 37 30 28 31 34 33 33 34 33 30 29 28 37 31 40 40 39 40 40 40 41 42
46 44 40 38 41 38 40 38 43 41 42 40 39 42 39 36 39 37 38 35 36 37 36 34 29 28 28 31 30 30 34 34 35 35 33 35 33 44 43 36 38 38 38 41 42
40 42 46 41 39 39 39 41 44 44 42 43 42 40 37 40 40 38 39 38 38 36 34 31 28 24 21 27 29 27 33 33 32 33 34 29 37 36 35 38 37 38 39 40 41

GFSSW_sfc_temp_039.txt.gz
Temp
66 66 66 66 66 66 66 66 66 66 66 67 67 67 68 67 67 72 72 76 77 80 80 78 79 76 76 72 72 70 62 60 63 63 66 70 70 75 75 73 74 69 64 65 69
66 66 65 65 65 65 65 65 65 66 66 66 67 67 67 66 68 72 79 81 81 80 77 75 74 75 70 72 69 65 61 64 67 68 67 69 69 69 72 65 63 64 66 66 69
65 65 65 65 64 64 64 64 65 65 66 66 67 66 66 66 69 72 81 81 81 79 77 76 76 74 69 70 68 65 63 66 69 70 69 67 64 63 64 57 57 56 59 63 66
64 64 64 64 64 64 64 64 65 65 66 66 66 66 65 65 62 73 80 80 81 79 78 75 73 70 66 66 68 66 67 67 69 67 66 65 64 57 57 56 60 61 62 63 63
64 64 64 64 64 64 64 64 65 65 66 66 66 66 67 68 67 76 79 78 78 77 72 72 69 68 65 66 67 65 65 67 67 66 63 63 58 57 56 60 62 62 61 61 62
63 63 63 64 64 63 64 64 64 65 65 65 66 66 67 63 75 76 75 76 76 75 72 72 69 70 65 64 64 64 64 64 65 66 64 58 56 59 58 60 59 59 59 60 61
63 63 63 63 63 63 63 63 64 64 64 65 66 67 66 66 75 74 75 73 74 75 71 73 72 70 67 64 65 64 63 64 63 64 63 62 54 50 58 58 57 57 59 60 60
63 63 63 62 62 63 63 63 63 63 64 66 66 65 62 74 74 75 76 75 76 76 74 73 72 67 66 66 62 59 59 56 61 62 63 64 51 53 57 56 55 56 58 59 60
63 62 62 62 62 62 63 63 64 65 66 66 64 65 61 76 71 73 74 71 72 73 72 75 69 62 63 58 56 55 54 54 57 59 60 59 49 53 56 55 54 55 57 59 60
62 61 61 61 62 62 62 63 64 65 66 68 69 63 67 64 69 71 73 72 69 69 67 66 60 57 55 56 50 52 53 54 53 58 56 51 47 52 54 54 53 54 56 57 59
61 61 61 61 62 62 61 61 61 61 65 60 60 62 64 70 71 70 71 70 69 64 58 59 57 55 57 57 57 56 54 52 54 56 53 48 48 51 53 53 53 54 56 57 59
61 61 61 61 61 61 59 61 60 63 58 63 64 65 67 68 64 67 72 64 62 56 59 57 54 58 59 59 57 55 52 51 54 55 54 47 47 51 53 53 54 54 55 56 58
61 61 61 61 61 59 61 61 64 64 57 60 64 64 65 68 61 63 67 62 59 56 55 53 58 60 59 56 55 53 51 50 52 52 50 47 46 47 52 54 54 56 56 56 57
61 61 61 61 60 60 60 64 63 64 50 53 59 64 66 65 60 67 65 63 59 55 55 56 59 57 55 54 54 49 55 54 52 49 45 49 45 43 48 49 52 54 54 55 56
61 61 61 62 60 60 62 62 62 63 41 56 60 70 65 62 62 61 63 63 55 55 56 53 53 53 53 54 56 52 54 51 50 47 46 44 43 47 46 45 49 53 54 55 56
61 61 61 60 59 60 61 62 62 50 41 52 59 58 58 59 58 60 59 59 59 54 54 53 58 57 56 55 55 54 50 47 44 43 40 43 43 48 43 47 49 53 54 55 56
60 61 61 64 59 60 61 59 49 43 53 50 52 56 54 52 54 52 49 46 46 47 47 51 52 55 56 53 54 51 46 43 42 41 42 43 41 49 48 48 52 52 54 55 55
60 60 61 62 58 60 59 54 41 47 48 54 53 53 50 51 49 49 47 44 45 45 42 43 44 50 54 52 49 46 46 43 39 39 40 40 41 50 49 52 53 53 53 52 54
60 56 56 59 59 59 56 44 44 46 51 50 52 47 47 50 49 47 43 43 44 44 43 41 44 51 51 52 52 46 43 46 39 36 37 41 44 49 48 47 48 50 50 51 52
55 54 55 56 57 57 51 45 45 50 51 50 46 47 44 46 46 45 43 45 45 46 46 42 42 45 50 52 50 49 48 41 40 37 34 38 37 44 42 45 47 48 49 50 51
54 53 57 54 58 52 45 42 47 51 51 48 46 45 45 45 45 43 43 44 47 46 46 43 42 44 46 44 43 44 42 39 41 39 37 33 41 47 47 48 47 48 50 50 51
50 49 56 56 50 38 42 45 51 48 51 49 48 47 45 44 42 41 42 44 47 47 43 43 39 39 43 45 46 45 43 42 40 35 32 31 34 48 47 48 48 49 49 50 50
48 48 54 56 45 39 41 45 47 47 45 46 45 46 46 43 40 41 42 45 46 45 42 43 39 38 42 43 44 41 41 38 35 33 29 33 42 46 45 45 47 48 48 49 49
48 47 49 43 40 42 41 41 42 46 46 46 45 46 44 41 42 40 40 44 46 46 51 46 36 39 38 40 40 38 38 37 39 31 34 37 46 50 46 45 47 48 48 48 47
43 42 42 43 43 40 41 42 41 41 45 45 42 43 42 38 39 39 41 41 44 50 43 42 37 34 35 36 37 37 38 36 35 38 37 45 39 46 48 47 48 48 46 46 47
47 44 40 39 41 41 41 40 44 42 43 42 41 43 41 40 41 39 40 39 40 41 41 37 35 33 33 34 34 33 36 36 37 39 35 39 39 50 50 47 45 46 45 44 46
40 42 47 40 40 41 41 42 45 45 43 45 44 42 40 43 43 42 42 40 41 39 37 36 33 30 29 31 32 32 36 39 36 37 40 35 44 44 42 43 44 44 44 44 44

GFSSW_sfc_temp_042.txt.gz
Temp
67 67 67 66 66 66 66 66 66 66 66 67 67 68 68 67 67 82 81 82 83 81 81 86 88 86 87 82 82 80 78 73 71 72 72 79 78 83 83 81 75 74 72 74 79
66 66 66 66 66 65 65 65 66 66 66 66 67 67 68 67 79 83 82 81 81 80 86 85 84 85 84 80 81 81 77 72 76 76 74 76 77 75 78 75 71 73 76 77 79
65 66 65 65 65 65 65 65 65 66 66 67 67 66 66 70 77 79 81 81 81 83 84 85 84 84 79 81 78 77 74 74 75 76 76 75 72 71 74 67 66 65 69 74 77
65 65 65 64 65 65 65 65 65 66 66 67 66 66 66 75 68 82 80 80 81 86 86 84 84 80 77 76 77 75 75 75 74 73 73 72 72 66 67 64 68 68 71 74 75
64 64 64 64 64 65 65 65 65 66 66 66 66 66 73 77 75 86 79 83 87 85 81 81 81 79 76 76 76 75 74 75 74 72 72 72 66 65 63 66 69 70 71 72 74
63 64 64 64 64 64 64 64 65 65 65 65 66 66 75 74 84 85 84 82 85 84 81 82 79 79 77 74 75 74 73 73 74 72 71 68 64 66 63 68 68 69 70 71 71
63 64 64 64 63 63 64 64 64 65 65 65 66 73 77 75 85 87 84 83 83 83 79 81 81 80 77 72 74 73 71 73 72 72 67 71 63 59 65 67 67 68 70 70 71
63 63 64 63 63 63 63 63 63 64 65 66 66 76 74 84 88 84 86 84 85 85 82 81 82 77 76 75 73 71 71 66 69 71 68 69 64 61 65 66 65 68 69 69 70
63 63 63 63 62 63 63 63 64 65 66 67 74 78 72 81 81 83 85 80 81 82 81 81 79 73 73 72 70 69 68 65 65 68 68 68 62 62 65 65 64 67 68 69 70
62 62 62 62 62 62 63 63 66 68 71 75 77 75 77 74 79 80 84 81 78 77 76 76 76 73 72 71 63 65 65 64 64 66 66 63 60 61 63 64 65 66 67 68 69
62 61 61 61 62 62 67 75 74 73 77 71 72 72 74 79 81 79 81 79 78 76 71 70 70 68 68 67 67 66 63 62 64 64 62 60 60 60 62 63 63 65 67 68 68
61 61 61 61 61 61 70 73 71 74 68 73 73 74 76 78 73 77 82 74 72 68 68 69 66 67 68 66 65 64 62 63 62 62 62 62 60 62 61 62 64 65 66 67 67
61 61 61 61 61 67 74 71 74 75 72 70 73 74 74 77 70 71 76 72 69 66 66 66 65 67 65 63 63 63 61 61 60 60 60 58 59 57 60 63 63 65 67 67 67
61 61 62 62 65 74 72 73 75 75 68 63 68 72 75 75 67 73 74 71 68 65 65 65 66 64 63 62 63 59 62 60 58 57 56 59 57 56 60 57 61 63 65 66 66
61 61 61 60 74 74 72 75 75 75 54 64 68 79 74 70 69 68 71 71 65 64 64 62 61 61 61 62 63 59 60 58 57 57 56 55 53 61 59 55 59 63 65 66 67
61 61 61 68 76 71 74 74 76 63 52 59 67 66 67 67 66 68 68 71 67 63 64 62 65 64 63 62 61 61 58 56 56 56 50 57 54 65 56 59 61 64 64 65 66
61 61 66 73 72 73 74 75 63 56 62 58 60 64 64 61 62 62 60 60 59 56 57 59 60 62 62 59 61 61 58 55 51 50 53 54 52 62 61 61 65 62 63 65 65
60 62 65 70 72 72 76 70 55 57 59 61 61 61 60 60 58 58 57 57 56 56 58 57 52 57 60 59 57 56 56 55 46 52 54 50 49 62 59 62 65 65 65 63 63
59 75 75 72 70 74 73 61 60 59 60 59 60 57 57 58 59 57 56 56 54 55 55 56 53 57 57 59 59 55 54 55 51 49 48 58 58 61 57 58 60 61 61 61 61
75 75 71 70 71 75 69 57 58 58 59 59 57 58 56 57 56 56 55 54 52 53 56 54 53 54 56 58 57 56 58 51 54 46 45 54 52 58 53 55 57 59 60 61 60
74 71 71 70 74 73 63 59 56 58 59 57 57 55 57 55 56 56 54 52 54 52 55 54 52 51 54 53 55 52 53 52 52 52 48 47 56 64 61 62 61 62 63 62 61
71 66 70 72 67 62 62 57 54 56 59 57 58 57 56 54 54 54 53 52 53 55 52 52 53 52 54 53 53 54 54 56 50 48 49 44 48 61 60 61 61 64 64 63 61
70 68 72 71 63 61 55 54 55 55 55 56 54 55 56 54 51 52 51 51 52 52 51 53 52 51 50 50 51 50 52 52 48 48 45 45 53 59 58 59 60 60 62 62 60
69 64 68 67 61 62 56 54 52 54 54 55 54 56 54 52 53 50 50 50 52 53 51 52 50 50 50 49 51 48 48 49 51 44 50 49 55 62 61 60 60 60 60 61 61
64 59 56 62 60 59 59 56 53 52 55 56 53 54 54 51 51 51 50 49 50 52 51 52 48 47 51 49 47 48 49 48 46 51 46 53 54 59 62 61 62 61 58 56 57
66 63 59 58 57 59 53 55 55 52 55 53 53 53 54 53 54 51 52 51 52 50 50 48 47 44 45 43 43 41 47 48 48 48 49 51 48 60 61 59 58 57 56 55 55
58 60 65 49 56 60 58 55 55 56 53 55 54 54 51 52 54 54 55 52 54 51 49 47 46 43 42 42 43 43 49 51 51 51 50 46 57 57 55 54 56 56 55 54 54

GFSSW_sfc_temp_045.txt.gz
Temp
67 67 68 67 67 67 66 67 67 67 67 67 67 68 68 67 67 84 86 83 85 80 80 92 92 92 92 87 88 87 78 75 74 75 75 83 81 85 88 81 80 80 78 80 85
66 66 66 66 66 66 66 66 66 66 67 67 67 68 68 67 81 87 82 81 81 81 90 89 88 90 88 85 87 83 77 74 80 81 78 80 80 80 81 79 76 77 81 83 85
66 66 66 66 65 65 65 65 66 66 66 67 67 67 67 70 81 84 80 80 81 83 91 90 90 88 83 86 84 83 76 79 78 80 80 79 77 77 78 70 70 70 75 80 82
65 65 65 65 65 65 65 65 65 66 66 67 67 66 66 79 71 86 80 80 81 89 91 89 88 84 81 80 84 78 79 80 77 78 78 77 78 71 73 69 74 74 77 79 79
64 64 64 65 65 65 65 65 65 66 66 66 66 67 74 78 80 90 82 86 91 90 87 85 85 84 80 81 82 80 78 78 78 77 77 77 73 70 68 72 75 75 76 77 78
63 64 64 64 64 64 64 65 65 65 65 66 66 65 74 75 89 91 89 89 89 88 86 87 84 85 82 79 79 80 78 77 77 76 76 72 69 71 69 73 73 74 74 75 75
63 64 64 64 64 64 64 64 65 65 65 65 66 76 80 78 90 92 89 86 88 87 82 86 86 84 83 77 80 79 74 75 76 76 72 75 67 68 71 73 72 73 74 74 75
63 63 64 64 63 63 63 64 64 64 65 66 66 80 79 88 93 89 90 87 89 90 86 86 87 83 81 81 78 75 76 69 74 75 72 71 67 68 72 72 71 73 74 72 74
63 63 63 63 63 63 63 64 64 65 66 67 75 79 76 82 84 88 89 84 85 86 85 86 84 80 78 75 73 74 69 71 67 75 74 71 68 69 72 71 70 73 73 73 73
63 63 62 62 62 62 63 63 65 67 71 81 83 78 79 78 83 85 89 86 82 81 79 79 79 75 76 74 64 69 70 72 69 71 71 70 69 69 69 69 70 72 73 73 73
62 62 61 61 62 62 66 76 75 75 80 76 78 76 79 84 86 83 85 83 82 79 74 76 72 70 76 75 73 72 69 68 72 71 65 67 69 68 68 68 68 70 72 72 74
62 62 61 61 62 62 72 77 75 79 71 78 78 79 82 84 76 80 86 77 76 72 75 72 69 73 72 71 70 70 68 68 71 68 66 69 67 72 69 66 69 69 71 72 73
62 61 61 61 61 67 78 77 81 82 76 73 77 78 78 81 75 75 81 78 74 71 72 70 69 71 70 68 66 68 66 67 65 66 69 64 64 68 69 68 69 71 72 73 72
61 61 62 62 61 81 77 80 82 81 70 66 71 75 78 79 71 78 78 74 73 70 70 71 72 68 67 67 68 63 67 65 63 61 60 66 58 65 66 63 65 67 69 70 71
61 61 61 56 80 78 78 82 82 79 55 68 71 83 79 73 73 71 77 75 69 71 69 66 66 65 64 67 67 63 65 63 62 61 62 63 56 65 67 60 63 66 68 70 72
61 61 61 70 80 78 81 81 79 65 54 63 71 69 70 72 71 73 73 76 73 68 70 68 70 68 68 66 66 66 63 63 62 60 52 64 59 66 62 65 68 69 70 70 71
61 61 64 79 78 80 81 78 66 59 67 62 64 68 69 67 67 67 66 67 64 60 61 65 65 67 67 62 65 63 61 55 52 50 55 62 57 66 69 68 70 70 70 70 71
61 62 68 77 81 79 79 72 58 64 65 66 66 66 64 66 65 65 64 63 63 63 62 61 56 63 65 64 62 62 61 56 47 53 57 58 54 64 67 69 70 72 71 70 69
59 79 81 78 78 80 75 64 63 65 67 64 64 62 63 64 63 64 63 63 61 62 58 61 59 62 62 64 63 60 56 61 56 61 53 62 64 64 64 64 67 67 68 66 67
80 80 77 79 79 79 71 62 64 64 65 64 61 64 61 63 60 62 62 60 58 59 62 61 55 60 60 62 62 60 63 55 57 48 48 59 60 61 59 61 64 65 65 66 67
79 75 77 80 81 76 66 64 62 63 64 62 63 61 63 61 62 62 61 57 58 58 60 60 58 55 58 57 60 57 58 57 56 57 50 49 57 68 66 67 65 66 68 67 68
79 70 78 81 71 75 69 64 55 62 64 63 63 62 62 61 60 60 59 58 58 59 57 59 58 56 59 59 59 59 59 60 52 53 55 51 51 71 67 66 66 68 69 70 70
76 74 80 79 66 68 63 60 61 60 61 61 60 60 62 60 56 58 57 55 56 57 56 58 57 52 53 54 57 54 60 59 59 52 47 46 53 68 65 65 66 63 66 66 67
75 68 73 75 73 69 64 62 58 59 60 61 61 61 59 58 59 56 56 54 55 57 52 54 56 54 50 53 54 53 55 56 55 48 52 54 58 66 68 64 67 67 67 67 65
75 68 65 67 68 68 67 64 60 56 60 62 59 60 60 57 57 56 57 54 54 54 55 56 52 56 57 57 56 54 53 56 52 54 50 55 55 61 64 64 64 64 64 62 62
73 70 69 68 66 67 57 63 62 58 61 59 58 60 60 58 58 56 57 57 57 55 55 55 50 51 49 54 50 48 52 54 54 55 54 55 54 65 62 64 63 64 63 61 60
72 71 70 56 66 66 65 63 61 63 59 61 60 60 57 58 60 60 61 59 59 56 54 52 50 47 45 50 51 46 55 57 57 58 56 49 58 62 59 60 61 61 60 59 59

GFSSW_sfc_temp_048.txt.gz
Temp
67 68 68 68 68 68 67 67 67 67 67 67 67 68 68 67 67 79 82 80 81 80 80 87 90 90 89 84 84 83 67 64 68 70 71 79 77 81 82 75 75 75 72 73 80
67 67 67 67 67 67 66 66 67 67 67 67 67 67 68 67 72 80 81 81 81 81 87 87 86 87 81 83 81 75 67 69 76 76 73 77 75 76 75 73 71 71 76 78 80
66 66 66 66 66 66 66 66 66 66 67 67 67 67 67 68 74 80 80 80 81 81 88 89 88 86 80 81 80 77 69 75 77 77 78 77 73 76 71 63 66 65 70 74 75
65 65 66 66 65 65 66 65 66 66 67 67 66 66 66 72 67 83 82 81 82 85 89 88 86 80 77 76 82 72 77 78 76 77 76 74 76 68 66 64 71 69 70 73 72
65 65 65 65 65 65 65 65 66 66 66 66 66 67 70 73 78 89 83 85 88 90 87 84 82 80 75 79 79 75 75 78 76 75 74 75 70 67 64 69 72 73 73 70 70
64 64 64 64 65 65 65 65 65 65 65 66 66 66 69 70 89 91 89 88 88 88 86 85 82 83 79 77 75 77 77 75 75 74 73 69 67 67 67 70 71 71 69 68 69
63 64 64 64 64 64 64 64 64 65 65 65 66 71 76 76 90 90 90 86 88 86 82 84 85 80 80 74 79 78 70 71 72 73 71 72 63 62 68 71 68 68 66 67 68
63 64 64 64 64 63 64 64 64 64 65 66 66 72 75 88 89 89 90 87 89 88 85 84 84 81 78 78 76 71 70 59 71 72 70 68 57 66 68 67 66 67 64 65 67
63 63 64 63 63 63 63 63 64 65 66 67 69 74 73 82 84 88 88 84 85 86 84 87 82 76 75 67 64 67 59 63 63 73 70 65 59 65 68 68 65 64 64 65 65
63 63 63 63 62 63 63 63 66 66 70 77 80 74 79 78 83 85 88 86 81 80 79 76 73 67 67 65 54 60 61 66 63 66 68 63 61 63 66 66 64 64 64 64 65
62 62 62 62 62 62 63 68 70 69 76 74 77 76 79 84 86 84 86 83 81 76 67 72 64 60 67 69 68 66 64 62 67 68 63 61 62 66 64 63 61 62 63 63 65
62 62 62 62 62 61 63 73 73 76 69 79 79 79 83 85 76 80 86 75 74 66 73 66 59 69 72 70 67 66 63 62 66 68 62 60 61 66 64 61 62 62 62 64 65
62 62 62 62 61 62 72 77 82 82 71 73 79 78 78 81 76 74 79 77 72 69 69 63 68 72 70 67 65 64 61 61 60 64 65 60 56 60 65 64 64 64 64 65 64
62 61 62 62 58 78 76 81 82 81 64 64 70 75 78 79 70 79 79 73 72 67 69 68 71 68 65 64 67 58 65 64 62 56 49 59 44 56 60 58 60 61 61 62 63
61 61 61 58 65 76 77 82 82 76 50 69 70 83 80 73 72 71 78 74 67 69 66 63 65 63 62 65 67 59 63 61 60 54 52 54 47 52 59 54 56 59 61 61 62
61 61 61 66 70 78 81 81 76 60 50 63 71 69 69 72 72 73 73 75 73 67 68 65 70 67 65 67 66 65 60 59 57 52 41 53 51 50 53 58 58 61 62 63 63
61 61 61 75 73 80 80 75 60 54 69 61 64 68 68 67 68 68 67 64 60 55 56 64 64 66 66 61 63 61 53 43 40 40 42 58 51 52 59 61 61 62 61 63 63
61 61 68 78 80 79 76 67 53 65 64 69 68 67 64 68 66 66 64 60 63 61 56 55 51 61 66 61 56 58 53 44 38 40 45 55 45 53 61 63 61 64 63 63 61
59 71 77 78 78 78 70 58 57 63 68 65 65 61 62 64 63 63 62 61 59 60 52 54 52 61 63 64 60 56 48 54 48 52 44 50 53 56 58 58 58 59 60 59 60
72 76 75 80 80 75 66 60 62 65 67 66 60 64 60 61 59 61 61 59 58 59 59 56 49 60 59 61 60 54 58 46 46 38 36 47 48 46 50 53 56 56 56 58 59
70 71 75 80 79 71 61 60 62 65 65 62 62 61 63 61 61 61 59 57 59 58 59 56 53 51 56 53 53 51 50 51 49 46 38 36 43 54 57 58 56 58 60 60 59
73 65 76 79 65 70 65 64 56 63 65 64 63 62 61 61 60 59 58 56 58 59 56 55 50 47 52 57 59 55 53 53 42 41 43 37 40 60 58 59 60 59 61 60 59
70 69 77 77 61 65 63 61 63 61 62 61 61 61 62 60 53 57 57 55 56 56 52 53 49 42 44 49 53 50 55 54 51 44 37 32 41 59 58 57 58 54 55 59 57
71 63 69 71 71 66 64 62 58 60 61 63 62 62 59 57 58 55 55 54 55 57 54 52 50 47 40 45 50 47 52 54 49 35 40 42 49 55 57 55 56 55 55 55 57
71 65 64 63 66 67 67 64 60 56 61 62 59 59 59 55 56 55 57 52 54 53 53 51 45 50 51 53 53 51 51 51 48 49 40 47 48 54 53 52 53 54 56 54 56
66 66 67 66 68 67 57 62 62 59 61 58 57 61 59 56 55 54 56 55 54 53 52 52 44 47 44 54 50 47 50 50 50 51 50 50 48 55 54 55 54 54 55 55 54
71 71 66 56 65 64 62 63 62 62 60 62 62 59 57 56 59 58 57 57 56 53 50 49 44 40 36 48 47 40 49 50 49 52 51 43 49 53 52 54 53 53 54 54 53

GFSSW_sfc_temp_051.txt.gz
Temp
67 67 68 68 68 67 67 67 67 67 67 67 67 67 68 67 66 71 75 78 79 81 80 79 81 81 80 74 75 73 60 56 59 62 64 72 70 74 72 67 68 67 64 68 74
67 67 67 67 67 66 66 66 66 67 67 67 67 67 67 66 65 72 77 78 81 81 82 81 78 80 72 73 72 66 57 61 68 67 66 70 69 67 67 64 62 64 69 72 72
66 66 66 66 66 66 65 65 66 66 66 67 67 66 66 65 66 73 80 79 80 82 81 82 82 77 70 72 70 68 61 69 69 71 72 69 67 68 63 57 60 61 64 68 68
65 66 66 66 65 65 65 65 66 66 66 66 66 66 65 63 61 77 82 80 80 83 82 83 77 69 67 67 73 65 71 72 71 72 71 67 69 62 60 58 66 66 66 66 65
65 64 65 65 65 65 65 65 65 66 66 66 66 66 64 62 70 83 83 82 81 81 82 79 72 70 65 70 71 66 69 72 71 71 69 70 63 61 59 64 67 68 68 64 64
64 64 64 64 64 64 64 64 65 65 65 65 66 66 60 61 81 85 82 82 83 79 78 77 72 74 69 69 67 69 70 69 69 68 67 64 61 62 61 65 65 66 63 62 64
64 64 64 64 64 64 64 64 64 64 64 65 66 69 64 68 81 79 84 79 81 80 75 78 76 72 70 67 72 71 64 62 64 66 65 65 56 59 63 65 63 61 59 62 64
64 64 64 63 63 63 63 63 63 63 64 65 65 64 61 81 77 82 83 79 83 82 79 78 78 73 70 70 68 62 60 51 62 65 65 64 52 59 62 61 59 58 57 60 62
63 63 63 63 63 63 63 63 64 65 65 66 66 61 63 79 76 80 80 78 79 80 77 85 76 69 69 59 54 54 49 52 57 65 63 60 52 58 61 62 59 55 56 59 59
63 63 62 62 62 62 62 63 64 63 65 73 73 60 71 71 76 79 80 80 75 74 73 70 65 59 58 54 47 50 50 55 54 62 60 56 55 57 60 60 58 56 55 58 58
62 62 61 62 62 62 60 60 58 59 65 64 68 69 73 76 78 74 79 76 74 68 59 64 57 52 56 60 61 57 54 52 56 63 59 55 55 58 58 58 56 56 55 56 59
62 61 61 61 61 61 58 58 64 67 60 73 73 73 77 76 70 73 78 67 65 58 62 58 51 62 66 64 61 58 53 53 57 62 57 56 56 59 59 59 59 57 55 56 57
62 61 61 61 60 58 60 67 72 72 60 67 72 72 71 74 68 67 71 67 62 59 60 55 60 68 66 61 59 56 52 53 53 57 58 53 50 54 55 56 59 58 58 58 58
61 61 61 61 58 62 63 73 73 70 50 58 65 69 73 72 63 74 72 66 63 57 59 57 64 63 59 59 60 51 58 58 57 50 42 53 38 48 50 51 55 56 55 57 57
61 61 61 61 53 64 69 72 70 65 38 62 65 76 73 66 66 66 71 66 58 59 58 55 58 57 56 58 61 54 58 55 53 46 42 45 40 44 50 47 51 53 55 56 57
61 61 60 60 56 64 70 69 65 50 42 58 65 63 62 65 65 67 66 67 65 59 59 57 63 60 57 62 61 61 54 52 49 44 34 44 44 43 46 51 51 52 55 58 57
61 61 59 68 62 69 68 62 48 42 61 56 58 63 60 59 61 62 59 54 51 45 44 54 55 58 62 54 57 54 45 35 35 33 35 50 45 46 52 54 55 55 54 56 57
60 60 60 69 68 67 63 54 39 56 55 63 62 62 56 60 58 59 55 50 55 51 46 45 43 53 59 53 49 50 46 36 33 33 38 49 41 46 51 55 57 57 56 56 56
59 56 60 65 69 65 56 44 46 53 61 59 59 52 53 58 56 54 50 50 49 51 44 44 44 55 58 57 54 48 43 48 41 39 35 41 43 49 53 53 55 54 54 53 55
56 58 61 68 67 60 51 49 51 59 61 60 51 55 50 53 51 51 50 52 51 53 50 46 41 53 55 55 54 48 51 41 39 32 30 38 38 42 46 48 51 52 52 54 56
55 55 63 68 64 55 46 48 55 61 60 57 53 54 54 53 52 50 48 51 54 52 51 47 44 44 49 46 46 46 43 44 42 38 31 29 37 49 48 49 50 48 53 55 55
54 51 63 65 52 48 48 55 55 58 59 58 56 55 52 53 50 50 48 48 52 51 48 46 42 38 44 49 52 48 45 45 35 36 35 29 34 50 51 53 54 53 55 53 55
53 52 63 62 46 44 49 55 56 55 55 55 54 55 55 51 46 50 47 51 51 50 45 46 40 34 38 44 47 44 48 48 43 35 33 27 36 53 51 51 52 50 53 53 54
52 49 53 54 52 49 50 51 50 55 55 57 54 55 51 49 51 46 46 50 50 51 55 50 41 39 34 38 43 41 47 48 44 26 32 35 39 48 48 48 50 49 49 49 52
51 50 51 46 51 50 52 54 51 49 53 53 50 52 50 46 47 47 47 46 49 53 48 45 39 41 44 47 47 46 46 46 43 41 34 40 43 47 48 46 47 49 51 51 52
51 51 51 51 54 51 48 49 53 53 51 50 49 53 51 46 46 46 49 46 46 45 44 45 38 40 39 47 46 43 45 45 44 45 43 44 42 48 48 47 49 48 50 51 51
54 54 53 49 50 49 48 51 54 53 52 54 53 51 49 49 50 48 48 49 48 45 43 42 37 32 29 40 41 35 43 45 45 46 44 37 44 48 47 49 48 49 50 49 49

GFSSW_sfc_temp_054.txt.gz
Temp
67 67 68 68 68 67 67 67 67 67 67 67 67 67 67 66 66 68 71 76 77 81 80 79 79 79 76 72 73 69 57 54 57 61 62 68 67 69 67 64 64 63 63 65 71
66 67 67 67 67 66 66 66 66 66 66 67 67 67 67 66 62 67 79 78 81 81 80 78 77 78 70 71 70 64 56 61 66 65 64 67 66 66 64 60 60 61 66 68 68
66 67 66 66 66 65 65 65 66 66 66 66 66 66 66 65 62 72 80 79 80 81 78 78 78 75 70 69 68 65 60 67 68 69 70 67 65 66 61 56 59 60 62 65 65
66 66 66 65 65 65 65 65 65 66 66 66 66 65 65 63 59 74 82 79 80 79 81 79 76 70 66 65 70 64 68 69 69 70 69 66 66 60 59 58 64 64 64 63 62
64 64 64 65 65 65 65 65 65 66 66 65 66 66 63 59 65 81 81 79 79 79 77 76 72 71 65 67 69 64 67 69 69 68 66 66 60 60 58 61 64 65 64 62 61
64 64 64 64 64 64 64 64 65 65 65 65 66 66 60 58 77 80 80 79 80 76 75 77 73 74 68 66 65 67 67 66 66 66 65 62 58 59 59 62 63 63 60 59 62
64 64 64 64 64 64 64 64 64 64 64 65 65 65 62 65 78 77 80 77 78 78 72 76 74 70 68 65 70 67 62 61 61 63 61 63 56 57 60 61 60 58 56 59 60
64 64 64 63 63 63 63 63 63 63 64 65 65 63 60 78 75 79 79 77 79 78 77 76 75 71 68 68 67 61 58 50 59 62 62 62 51 58 59 59 57 56 54 59 59
63 63 63 63 63 63 63 63 63 64 65 66 60 61 60 78 74 77 77 75 76 76 75 83 74 67 67 58 53 53 48 49 56 62 61 58 52 57 58 59 56 53 53 57 56
62 62 62 62 62 62 62 63 63 63 65 68 69 60 67 69 74 78 75 77 72 71 70 69 64 59 56 54 48 49 48 52 52 59 58 54 53 54 57 56 56 52 52 54 56
62 62 61 62 62 62 59 58 55 56 59 60 64 64 69 72 75 72 77 75 72 67 58 62 57 53 57 58 58 55 53 51 55 61 56 52 52 55 56 54 53 51 51 53 56
61 61 61 61 61 60 56 55 62 65 58 68 71 69 73 73 67 70 75 65 63 58 60 57 52 60 63 62 60 56 52 50 56 60 57 54 54 58 56 57 58 55 53 54 54
61 61 61 61 60 56 56 61 69 68 58 65 69 68 68 71 64 64 69 63 60 57 57 52 58 66 63 58 57 53 50 49 51 55 55 51 49 51 54 54 56 55 56 55 55
61 60 61 60 55 59 60 70 68 68 49 55 62 67 70 69 61 71 69 64 60 56 58 55 62 62 57 56 57 48 56 56 54 48 42 51 37 46 48 47 52 53 52 54 54
60 60 60 60 52 58 67 67 66 64 38 59 62 73 68 64 64 64 69 65 56 56 57 54 56 55 54 56 58 53 56 53 51 44 40 42 39 45 45 45 49 51 53 53 53
60 60 60 58 54 61 64 66 64 49 39 54 62 60 59 61 61 64 63 65 62 57 56 55 61 58 57 59 58 58 52 48 44 41 33 41 42 42 43 48 47 49 53 54 54
60 60 58 66 59 65 64 60 47 41 57 53 55 59 56 55 57 58 56 52 49 44 42 51 53 56 59 52 55 52 43 35 34 32 34 44 41 43 48 50 51 53 52 54 54
60 60 60 65 63 63 60 54 37 52 52 59 59 57 53 57 55 56 53 48 51 49 44 43 42 51 56 51 47 47 44 35 32 31 36 44 38 45 50 54 52 53 53 53 53
59 54 57 62 63 61 56 43 45 50 57 57 57 50 50 55 54 52 47 47 48 48 44 42 44 53 55 54 52 46 41 45 39 35 33 38 43 50 50 52 51 50 52 52 53
54 54 57 65 63 58 51 47 49 56 57 57 49 52 47 50 49 48 47 49 49 51 48 44 40 49 52 53 52 46 49 40 36 31 29 35 36 40 45 45 47 47 48 51 53
53 53 61 63 61 54 46 46 53 58 58 54 50 50 51 50 49 47 46 48 51 50 49 44 42 42 47 44 43 44 42 41 40 36 30 29 35 44 44 48 47 47 52 52 53
51 50 61 62 51 42 46 52 55 55 57 55 53 52 50 50 48 46 46 46 50 49 45 43 41 37 42 47 50 46 44 42 34 34 31 26 33 48 46 51 53 51 53 51 51
50 50 59 60 45 42 46 53 54 53 52 52 51 53 52 48 44 46 45 49 49 48 45 44 39 33 38 42 45 43 46 45 39 32 32 27 35 49 46 48 49 47 47 51 50
50 48 51 51 48 48 47 47 48 52 52 54 51 52 50 47 49 44 44 48 48 48 55 49 39 38 33 37 41 40 44 45 40 25 31 33 37 45 47 46 47 48 49 50 52
48 48 48 45 50 47 49 50 48 47 51 51 48 50 48 43 44 43 44 44 47 52 46 44 38 38 41 44 43 44 44 44 40 39 34 37 40 44 45 43 45 46 49 49 50
50 49 47 47 50 49 46 49 50 49 49 48 47 51 48 45 46 45 46 43 43 43 42 42 37 37 37 42 41 41 43 42 41 42 41 40 39 45 46 45 46 46 47 47 46
50 49 52 47 46 47 47 51 52 52 50 52 51 49 46 47 48 46 46 46 46 44 41 40 36 32 30 37 38 34 40 43 42 42 41 35 38 43 44 46 45 46 44 45 45

GFSSW_sfc_temp_057.txt.gz
Temp
67 67 67 67 68 67 67 67 67 67 67 67 67 67 67 66 65 65 68 75 75 80 80 78 78 77 74 70 71 66 56 53 57 58 61 67 64 65 65 62 62 61 60 63 68
66 66 66 66 66 66 66 66 66 66 66 66 67 67 67 66 60 63 76 80 78 77 78 75 74 74 69 69 68 62 55 59 64 64 63 66 64 64 62 59 59 60 63 65 67
66 66 66 66 66 65 65 65 65 66 66 66 66 66 66 64 61 69 81 80 77 78 77 76 76 73 67 67 66 62 60 64 66 67 68 66 63 63 60 55 58 59 61 62 62
66 66 66 66 65 65 65 65 65 66 66 66 65 65 65 58 58 72 81 80 79 78 77 75 74 67 64 63 68 63 66 67 67 68 67 64 64 58 58 57 62 62 62 61 60
64 64 64 64 64 65 65 65 65 65 66 65 65 66 60 56 64 78 81 80 76 76 75 73 70 66 65 66 66 63 64 67 67 66 63 65 59 59 57 59 61 63 62 59 58
64 64 64 64 64 64 64 64 64 65 65 65 65 65 55 55 75 77 76 76 77 74 72 73 73 72 67 66 63 65 65 64 64 64 63 61 57 58 57 59 60 61 58 57 58
64 64 64 63 63 63 64 64 64 64 64 64 65 64 57 64 74 73 77 74 76 75 72 74 74 72 68 65 67 65 60 61 60 62 60 62 54 55 58 59 58 56 54 57 58
64 64 64 63 63 63 63 63 63 63 64 65 65 59 55 75 73 75 76 74 76 75 75 75 75 71 67 66 64 59 57 51 58 60 60 59 51 57 57 57 55 54 52 55 57
63 63 63 63 63 63 63 63 63 64 65 65 58 55 58 76 71 73 74 72 73 74 73 79 74 67 68 57 53 53 48 48 55 60 58 56 52 55 55 56 54 51 52 54 54
62 62 62 62 62 62 62 62 62 62 63 67 66 54 64 66 72 73 72 75 70 70 69 67 62 58 55 54 47 50 48 50 49 55 55 51 52 52 54 54 54 51 50 52 54
62 62 62 62 61 61 58 55 54 53 57 57 60 61 66 69 77 70 72 71 69 65 57 60 56 52 57 57 57 55 51 50 53 58 54 51 52 54 55 52 51 50 50 51 53
61 61 61 61 60 60 55 53 58 61 55 62 64 66 69 74 66 70 74 64 61 55 59 56 51 59 61 60 58 55 50 49 54 58 55 51 52 56 54 54 55 54 51 52 52
61 61 61 61 60 55 54 57 65 64 55 61 65 64 66 70 65 63 70 62 58 56 55 52 57 63 61 57 55 52 49 48 50 54 53 51 48 50 53 52 55 54 55 54 54
61 60 60 60 54 56 55 65 65 63 47 53 60 65 67 68 61 69 67 63 58 55 56 54 60 60 55 54 55 47 54 54 52 48 41 49 37 46 46 48 49 50 50 52 52
60 60 60 60 52 55 64 63 63 62 36 56 58 70 66 64 60 63 67 63 54 54 55 52 54 53 52 54 56 51 56 51 50 43 39 41 37 44 47 47 48 47 49 51 52
60 60 59 56 53 58 61 62 62 47 38 52 59 58 58 59 59 62 61 64 60 55 54 52 58 56 54 57 56 56 51 47 42 39 33 39 39 42 44 46 49 46 51 52 52
60 60 58 63 57 62 61 59 46 40 54 50 52 56 54 52 54 56 54 50 47 43 40 49 50 54 57 51 54 51 43 35 33 32 33 41 39 43 47 48 49 51 51 52 51
59 59 58 62 60 60 59 52 36 49 49 56 56 54 51 54 52 53 50 46 49 47 42 41 41 49 54 49 46 45 43 35 32 31 34 42 36 44 47 50 49 50 50 51 51
58 52 54 59 60 59 54 43 43 47 54 55 55 48 47 53 52 50 44 45 46 46 43 40 42 51 53 52 50 43 40 43 37 32 31 36 41 46 49 50 50 50 50 49 51
53 53 55 62 60 57 50 46 47 53 55 55 47 50 45 48 47 46 45 47 47 49 46 43 38 47 50 51 50 45 49 38 35 31 28 32 33 38 43 46 50 50 50 50 51
53 52 60 60 60 52 45 45 51 56 55 52 49 48 48 48 47 44 45 46 49 48 47 43 41 40 46 42 42 43 40 39 38 34 30 28 34 42 42 46 45 47 50 50 50
50 48 58 59 49 40 44 49 54 53 55 53 52 50 48 48 45 43 44 44 48 47 44 42 40 36 41 45 47 43 41 40 33 32 29 25 32 45 43 47 49 47 50 49 50
49 48 56 58 44 41 44 50 52 51 50 51 49 51 50 47 43 43 43 47 48 46 44 44 38 33 37 41 43 40 43 41 37 32 30 27 34 47 45 48 48 46 47 48 50
48 47 50 49 44 45 45 45 46 50 50 51 49 50 48 44 47 42 42 46 47 47 55 49 37 37 33 36 39 37 42 41 39 25 30 32 35 42 45 43 44 44 45 46 47
46 47 45 44 47 44 45 47 46 45 49 49 46 48 47 41 42 41 42 42 45 51 44 42 37 35 38 41 40 40 42 42 38 37 34 37 37 41 41 41 41 43 46 46 47
48 47 44 44 47 46 44 46 48 46 47 46 45 49 45 42 43 43 44 41 41 41 40 40 36 35 35 40 39 38 41 41 40 39 38 38 37 40 41 40 43 43 44 44 45
46 47 50 44 43 45 45 47 50 50 48 49 48 46 45 45 46 44 44 44 44 42 39 38 35 31 30 35 36 34 38 40 40 40 39 35 38 40 41 44 43 44 44 45 45

GFSSW_sfc_temp_060.txt.gz
Temp
66 67 67 67 67 67 67 67 67 67 66 67 67 67 67 66 65 63 65 75 73 79 78 76 75 74 72 69 68 65 56 52 56 57 60 64 62 63 63 61 60 59 58 61 67
66 66 66 66 66 66 65 66 66 66 66 66 67 67 66 66 57 59 75 81 80 76 73 72 72 72 68 67 66 62 55 58 63 62 61 64 63 62 61 57 57 57 60 63 65
65 66 66 66 66 65 65 65 65 65 66 66 66 65 65 63 57 67 80 80 80 77 71 72 73 73 66 66 64 61 60 63 64 65 66 64 61 61 59 55 58 58 59 60 61
65 65 66 66 65 65 65 64 65 65 66 66 65 65 65 57 54 71 80 80 80 74 73 72 69 66 63 62 66 61 64 66 65 66 65 63 63 57 57 56 60 61 60 59 59
64 64 64 64 64 64 64 64 65 65 65 65 65 65 59 53 59 75 81 79 75 74 73 70 68 65 63 63 64 62 62 66 64 64 62 64 58 58 57 57 59 61 61 57 57
64 63 63 64 64 64 64 64 64 65 64 64 65 65 53 51 73 74 75 75 76 73 70 71 69 70 67 67 61 62 63 63 63 62 61 60 56 57 57 57 58 59 56 55 56
64 63 64 63 63 63 63 63 64 64 63 64 65 63 54 58 71 72 75 72 75 73 70 70 71 66 67 64 65 66 58 58 58 60 59 60 54 55 57 57 56 55 53 54 56
64 64 64 63 63 63 63 63 63 63 63 64 65 57 51 72 70 73 73 72 73 72 72 70 72 71 66 69 63 59 55 51 56 59 58 57 51 55 55 55 53 53 51 53 55
64 64 63 63 63 63 63 63 63 63 64 65 56 52 54 74 68 72 71 71 72 71 71 78 71 64 66 59 53 53 48 48 55 58 57 54 51 53 53 54 52 50 50 52 52
62 62 62 62 62 62 62 62 62 62 62 65 64 51 61 64 69 71 69 73 69 68 67 67 60 58 55 55 47 50 47 49 49 53 53 49 51 52 52 52 52 50 49 50 52
62 62 61 61 61 61 57 53 52 51 54 54 56 58 63 66 71 68 69 69 67 64 55 58 55 52 55 55 57 54 50 49 51 56 52 50 50 54 53 50 50 49 48 49 51
62 61 61 61 61 59 53 50 56 58 51 59 60 62 66 67 64 66 70 62 58 54 56 55 51 57 60 59 57 54 50 49 53 56 53 50 51 55 51 51 53 53 50 51 50
61 61 61 61 59 54 51 55 61 61 50 58 61 63 64 67 59 60 65 61 59 53 52 51 55 61 60 56 55 51 48 47 49 52 51 49 48 51 51 50 52 52 51 51 53
61 60 60 60 54 53 53 62 62 60 45 52 58 62 65 64 58 67 66 63 56 53 54 52 58 58 55 53 54 45 53 53 51 46 41 48 37 46 47 49 49 49 48 51 51
60 60 60 59 52 53 62 61 60 60 33 54 58 69 64 61 60 62 67 64 54 53 53 49 52 52 51 52 55 49 54 50 48 42 39 41 37 44 47 48 49 49 48 49 51
60 59 59 56 53 57 60 59 61 46 35 50 58 56 58 59 56 60 62 63 59 54 53 50 56 55 52 54 55 55 50 45 41 39 34 38 39 41 43 46 47 49 50 50 50
59 59 57 62 56 59 59 58 45 39 52 48 51 56 55 51 53 55 52 48 46 43 40 48 48 52 55 50 52 50 43 35 34 33 33 40 38 43 46 48 48 48 49 50 49
59 59 57 60 57 57 57 53 37 47 47 55 53 53 49 53 50 51 48 45 47 44 40 40 40 47 53 48 46 43 42 34 32 31 33 39 35 43 47 49 48 48 48 48 48
58 51 52 57 58 56 53 42 41 45 52 52 52 45 44 50 50 48 43 44 44 44 42 39 40 49 52 50 49 41 38 41 35 31 30 35 40 46 48 49 49 49 50 50 50
51 51 54 59 57 56 49 45 45 51 53 52 44 47 42 45 45 44 42 44 46 47 45 42 38 45 49 50 49 43 47 38 34 30 28 31 32 37 41 44 48 46 45 47 48
52 52 59 57 58 52 44 43 49 54 54 51 46 46 46 45 45 42 43 45 47 46 46 42 41 39 44 41 41 42 38 37 36 32 30 27 33 40 39 44 44 44 46 46 47
49 48 57 58 50 39 44 47 53 52 54 52 51 50 47 46 43 42 43 43 46 46 42 40 39 35 39 42 45 41 39 39 33 31 27 24 31 43 41 44 45 44 46 46 47
48 47 55 58 44 42 44 49 51 50 50 50 48 50 48 45 41 42 42 46 47 45 42 43 37 32 35 39 41 38 40 38 35 31 28 26 33 45 42 44 43 43 44 45 46
47 46 48 47 43 44 44 44 45 49 49 50 47 48 46 43 44 41 40 45 46 45 54 48 36 36 32 35 38 35 40 38 37 25 30 31 34 39 41 41 42 42 42 42 45
45 45 44 43 45 42 43 45 44 44 47 48 45 46 44 39 40 39 41 40 44 49 42 42 36 33 36 39 38 38 40 39 37 36 34 34 36 37 38 39 39 41 43 44 46
47 46 42 42 44 45 42 44 47 44 44 44 43 46 44 41 41 42 42 39 40 40 38 39 35 33 33 38 37 37 40 39 38 37 36 35 36 41 40 38 41 41 43 44 44
43 44 49 43 41 44 44 46 48 49 45 46 46 45 43 43 43 41 41 42 43 41 38 37 34 31 29 33 35 33 36 38 38 38 39 34 38 40 39 42 41 42 43 43 43

GFSSW_sfc_temp_063.txt.gz
Temp
66 66 67 67 67 66 67 67 67 66 66 66 67 67 67 66 65 65 66 77 76 80 79 78 80 79 79 75 74 72 64 61 63 63 68 69 69 69 70 69 68 68 69 71 73
66 66 66 66 66 66 65 65 66 66 66 66 67 67 66 66 60 60 74 79 80 79 79 75 74 74 74 74 73 69 64 65 69 69 69 69 71 68 68 66 65 66 67 71 73
66 66 66 66 66 65 65 65 65 65 66 66 66 65 65 64 59 68 80 79 80 78 76 74 74 74 73 74 72 68 67 68 69 71 71 69 67 68 67 64 67 66 65 69 70
66 65 65 66 65 65 65 65 65 65 66 66 65 65 65 61 56 74 79 80 80 77 76 73 72 69 69 69 73 70 69 70 70 70 70 68 68 67 66 69 68 69 69 68 69
65 64 64 64 64 64 64 64 65 65 65 65 65 65 61 56 60 76 80 79 76 76 75 71 69 67 67 70 71 70 68 68 68 68 66 67 65 67 65 65 66 66 67 67 67
65 64 63 63 63 63 64 64 64 65 64 64 65 65 57 52 74 76 76 74 76 76 73 71 71 71 68 69 69 68 67 67 69 67 67 67 63 65 65 63 64 65 65 66 66
64 64 63 64 63 63 63 63 64 63 63 64 64 63 55 58 74 72 75 75 76 76 72 73 72 70 70 66 69 68 66 66 66 67 66 67 63 62 64 63 63 63 64 63 65
64 64 64 63 63 63 63 63 63 63 63 64 64 59 53 70 72 71 77 76 77 77 76 74 71 70 70 69 67 64 63 60 65 65 63 66 60 65 61 62 61 62 62 62 63
63 64 64 63 63 63 63 63 63 64 64 65 58 56 55 72 70 75 77 74 74 74 75 77 72 67 68 62 60 59 57 57 61 64 63 63 61 62 60 61 60 61 61 61 62
62 63 62 62 62 62 63 62 62 62 62 64 63 52 62 66 71 73 75 75 72 69 71 70 64 62 60 60 53 55 56 56 57 61 61 58 58 61 60 59 61 61 60 60 62
61 61 61 62 62 62 57 54 53 52 54 53 56 57 63 70 72 70 72 72 71 66 61 64 61 56 59 60 62 60 57 57 59 61 60 57 56 61 61 57 57 58 59 59 61
61 61 61 61 62 60 54 51 56 59 50 58 58 60 64 66 64 67 72 66 64 58 59 58 56 60 61 60 59 58 57 56 58 60 59 55 56 61 58 57 58 59 58 59 59
62 61 61 61 60 56 52 55 62 62 50 57 58 61 64 66 62 64 68 64 60 57 57 55 59 61 61 58 57 56 55 54 55 56 57 53 53 56 58 58 59 59 60 60 60
61 61 60 60 54 53 53 62 62 60 46 53 59 63 65 64 60 69 67 65 61 55 58 59 62 60 58 57 58 52 57 57 55 52 48 54 45 52 54 57 57 57 56 58 59
60 60 60 59 53 53 61 62 62 59 35 55 58 70 63 61 62 64 67 65 57 57 59 55 56 56 56 56 58 54 56 54 52 49 49 48 47 52 53 54 56 57 56 55 57
60 59 59 57 54 56 60 60 59 45 37 51 57 56 57 58 59 63 63 64 62 57 58 56 60 59 57 56 57 55 53 48 46 45 41 45 45 49 50 52 54 57 57 56 57
59 59 58 61 54 59 59 58 45 39 53 49 52 57 55 53 55 57 54 52 52 48 49 53 53 57 58 54 56 54 49 42 41 40 40 45 43 50 53 55 53 53 54 57 57
59 59 57 59 58 57 57 53 39 47 48 55 53 54 52 55 53 54 52 48 51 50 45 46 45 52 56 54 52 50 50 43 39 38 40 44 41 49 54 55 54 53 55 56 56
57 51 51 56 57 55 56 44 43 47 53 52 54 50 49 53 52 51 48 47 48 49 48 45 46 53 54 55 54 49 46 49 41 38 39 42 47 54 54 54 53 52 54 53 54
51 50 53 58 57 56 50 46 47 52 54 54 47 50 46 48 48 48 47 48 49 50 50 48 44 49 52 54 52 52 51 45 42 38 36 41 41 47 50 51 51 51 51 52 53
51 51 58 56 57 52 45 45 50 55 55 52 49 48 48 48 47 46 46 47 50 50 50 48 47 46 50 48 47 47 45 42 44 41 40 38 44 49 50 50 49 50 51 52 52
49 48 57 57 50 40 45 48 53 53 54 52 52 51 49 48 46 45 46 47 48 49 47 47 44 42 45 48 50 49 46 45 42 38 35 37 42 51 50 50 51 50 50 52 52
48 48 56 58 46 44 46 50 51 51 50 51 49 51 51 47 44 45 45 47 48 48 46 47 42 39 43 46 48 46 46 42 40 39 35 39 44 49 49 49 49 50 51 52 53
47 46 49 48 45 47 45 46 47 50 50 51 49 51 49 45 45 43 43 46 47 48 53 50 40 42 39 43 44 43 43 43 43 38 39 40 44 47 48 47 49 50 51 52 53
45 45 44 43 46 45 46 47 46 46 49 50 48 48 47 42 43 42 43 44 46 50 46 45 41 41 42 43 43 43 44 41 41 42 42 44 41 46 47 47 49 50 50 52 53
46 45 42 42 44 45 44 45 47 46 47 46 46 47 46 44 46 43 44 43 44 44 43 42 39 41 40 41 41 40 42 42 41 42 41 41 42 47 48 49 49 50 49 49 49
43 44 49 43 41 44 45 47 48 49 46 48 48 46 44 45 46 43 43 43 45 44 41 41 38 37 37 37 39 38 41 40 42 43 43 41 45 46 46 47 48 48 47 47 48

GFSSW_sfc_temp_066.txt.gz
Temp
66 66 67 67 67 66 66 66 66 66 66 67 67 67 67 66 66 77 73 84 83 81 80 87 86 86 86 83 83 82 77 73 74 73 77 81 78 79 80 80 79 81 81 82 84
66 66 66 66 66 66 65 65 66 66 66 66 67 67 66 66 71 72 82 80 80 80 85 85 83 84 83 82 82 81 76 77 81 82 79 79 82 79 78 77 77 77 78 81 82
66 66 66 66 66 66 65 65 65 66 66 66 66 66 66 68 69 78 82 80 80 81 86 85 84 82 79 81 81 80 77 79 79 82 83 79 78 81 78 74 82 79 78 79 81
66 66 65 65 66 65 65 65 65 66 66 66 65 65 65 70 62 82 79 80 80 87 84 83 82 79 76 76 82 76 77 79 78 79 79 78 81 76 79 80 81 82 83 80 80
65 65 64 64 64 64 64 64 65 65 65 65 65 65 68 65 69 85 80 80 85 83 82 81 80 78 74 78 79 78 77 77 78 77 79 78 76 77 76 78 79 81 79 79 80
65 65 64 64 63 63 64 64 64 65 64 64 65 64 65 57 84 84 83 82 84 83 83 83 80 80 75 74 74 77 77 76 76 76 76 76 73 74 77 76 76 76 77 79 79
64 65 64 64 63 63 63 64 64 64 64 64 65 67 62 65 82 84 82 83 85 84 80 83 83 79 77 72 74 75 72 73 75 75 73 76 71 72 76 76 75 76 78 78 78
64 64 64 64 63 63 63 63 64 63 64 64 64 67 61 80 84 79 84 83 85 86 84 84 83 80 77 76 71 70 72 66 70 73 71 72 69 75 75 75 74 76 78 75 76
63 64 64 64 63 63 63 63 64 64 64 65 65 64 62 79 75 84 86 81 83 83 83 83 82 77 76 72 66 67 60 65 68 73 70 70 70 72 73 74 74 76 77 75 76
62 63 63 62 62 62 62 63 64 64 67 69 68 58 69 72 79 82 86 84 79 78 76 77 77 73 73 70 59 59 60 66 67 69 68 67 68 74 71 72 73 76 76 75 75
62 62 61 61 62 62 63 67 64 61 62 62 64 63 69 77 80 80 82 80 80 77 70 73 69 64 70 72 71 68 64 63 65 68 67 69 68 72 76 70 70 73 75 74 75
61 62 61 62 61 60 63 61 64 65 58 67 66 66 71 74 71 76 81 75 73 67 69 67 65 72 72 70 69 67 64 64 65 66 66 68 67 73 70 69 69 71 73 75 75
61 61 61 62 61 60 61 63 70 69 59 62 65 66 70 74 69 71 77 74 71 66 66 66 66 70 68 65 65 64 63 64 63 64 65 63 65 65 68 69 69 70 71 74 74
61 61 61 61 59 64 62 69 70 69 57 59 64 69 72 71 66 74 75 74 70 67 68 67 68 65 66 65 68 62 65 63 61 61 58 63 56 64 66 67 69 70 68 70 72
60 61 60 60 62 61 67 71 69 66 42 60 65 77 71 67 70 69 74 73 67 66 66 63 64 64 64 64 66 63 64 62 59 60 58 57 56 64 64 64 67 69 67 66 68
61 60 60 61 60 65 67 68 64 52 42 55 63 64 65 64 67 70 70 74 71 67 68 64 67 67 64 63 65 64 62 60 59 58 51 56 55 60 62 61 64 67 66 66 66
60 60 60 66 66 68 68 62 53 44 59 55 58 61 63 60 62 65 63 63 63 58 60 62 61 65 66 62 63 63 61 55 51 50 51 54 52 60 61 62 61 61 64 66 68
59 59 62 65 70 67 61 62 44 54 55 61 60 61 57 60 59 61 60 60 61 63 61 58 53 60 63 62 62 61 60 56 46 50 54 52 50 57 61 63 63 64 65 67 67
58 66 65 70 68 65 62 53 55 56 58 56 59 58 56 58 61 58 59 59 58 59 61 58 53 60 60 63 62 57 55 59 52 51 51 58 57 62 63 62 63 64 64 63 65
67 66 67 70 69 64 62 55 58 60 59 59 53 57 55 53 57 57 57 57 56 58 61 59 53 57 58 62 61 60 61 53 56 46 45 53 53 59 58 59 61 62 62 62 64
65 65 69 69 70 67 59 60 59 62 61 60 57 56 57 57 58 57 55 55 57 57 61 61 60 53 58 56 57 56 56 55 56 54 50 49 54 61 61 60 60 61 61 62 63
65 61 69 70 63 64 62 59 55 61 62 61 61 59 58 57 56 56 55 55 55 57 57 57 59 55 54 56 58 58 57 59 53 49 52 50 53 61 61 61 61 60 60 61 62
64 65 70 70 59 62 60 58 59 59 59 60 58 59 60 56 53 54 54 53 55 56 57 58 56 51 50 53 56 55 56 55 53 54 50 48 54 60 60 59 59 60 61 61 62
63 60 64 66 63 61 59 59 58 59 59 59 59 60 58 56 56 52 52 52 54 56 53 58 54 54 52 52 56 51 52 54 56 50 54 53 56 55 57 57 58 59 61 62 62
63 61 60 59 61 61 60 59 56 56 59 60 58 58 58 53 53 52 52 52 53 53 55 57 53 53 52 52 52 53 53 52 51 57 51 54 52 56 60 60 60 60 60 60 60
62 60 58 60 57 60 55 59 58 56 58 57 56 56 58 56 57 53 55 56 56 53 55 54 51 51 50 49 49 48 53 53 53 53 51 53 52 62 61 61 59 60 58 58 59
62 61 61 52 56 58 60 61 59 60 56 57 59 58 56 54 57 56 56 58 58 56 53 53 51 50 49 47 49 48 53 52 52 53 54 49 57 57 54 55 57 57 57 57 56

GFSSW_sfc_temp_069.txt.gz
Temp
67 66 67 67 67 67 66 66 66 66 66 67 67 67 67 66 66 78 76 85 86 83 81 88 90 90 88 86 87 88 77 74 77 78 80 86 83 86 88 85 86 87 87 90 91
66 66 66 66 66 66 66 66 66 66 66 66 67 67 66 66 71 74 85 82 81 81 86 86 86 88 83 83 85 81 76 78 86 86 83 84 85 84 82 83 83 83 86 88 88
66 66 66 66 66 66 65 65 65 66 66 66 66 66 66 68 70 80 80 83 82 82 88 90 89 84 80 84 84 83 76 84 84 88 88 84 84 87 82 79 85 84 85 85 85
66 66 66 65 65 65 65 65 65 66 66 66 65 65 65 72 62 84 80 79 81 87 88 86 84 79 76 77 83 78 85 85 84 83 86 83 87 81 84 84 87 89 90 85 85
65 65 65 65 64 64 64 65 65 65 66 65 65 65 69 68 70 90 81 81 84 85 84 83 81 79 76 80 83 78 82 82 84 82 84 86 82 82 82 87 86 87 87 85 86
65 65 65 65 64 64 64 64 65 65 65 64 65 64 67 58 85 91 87 86 87 85 85 85 84 85 79 78 76 81 81 80 81 81 81 80 79 78 84 86 83 84 84 85 85
64 65 65 64 64 64 64 64 64 64 64 64 65 69 65 65 87 89 86 85 87 86 84 88 89 81 81 75 77 78 74 76 78 79 78 81 74 75 85 82 82 82 84 84 84
64 64 64 64 64 63 64 63 63 63 64 65 65 69 61 82 88 83 86 85 89 89 88 90 89 83 78 80 75 72 73 66 74 75 75 74 69 79 82 81 80 82 84 82 83
64 63 64 64 63 63 63 63 63 64 65 65 66 68 62 82 77 84 86 82 86 87 88 88 85 80 77 71 69 71 65 64 65 75 74 70 70 74 80 79 79 82 83 82 81
63 62 62 63 63 62 62 62 65 65 68 72 72 62 69 73 82 85 89 87 82 82 79 79 78 73 75 70 60 65 64 67 64 68 72 70 69 77 77 77 78 81 82 81 80
62 62 62 62 62 62 63 72 66 63 67 64 67 65 73 79 84 82 87 83 82 78 69 76 69 65 72 75 76 72 70 66 65 70 67 69 73 76 81 77 73 76 79 81 80
62 62 61 61 61 60 64 65 68 69 58 72 69 71 75 78 72 80 85 75 73 68 75 70 64 75 78 76 73 71 68 67 69 68 66 64 67 75 78 76 74 75 77 79 81
62 61 61 61 61 62 67 68 76 73 60 67 71 70 73 74 73 75 79 77 72 69 70 67 71 75 72 70 69 69 67 66 64 65 65 64 62 72 72 74 74 75 75 78 80
61 61 61 61 58 72 67 75 76 73 52 61 65 72 74 74 68 78 81 76 74 69 69 71 71 70 69 68 70 64 71 66 66 61 56 67 55 68 71 71 73 74 74 74 76
61 61 60 60 66 65 72 75 74 67 41 64 67 80 75 69 72 72 80 76 69 71 72 66 67 66 64 68 72 66 70 68 66 64 63 63 57 67 69 67 69 70 70 71 74
61 61 61 64 65 66 71 70 69 49 43 58 67 66 67 68 70 71 73 77 76 70 71 69 73 71 68 66 69 70 67 66 65 64 53 64 59 64 65 64 66 69 69 70 71
60 60 61 72 71 72 70 69 55 48 63 57 59 65 66 61 66 69 67 66 65 59 60 66 66 67 71 64 67 67 64 55 53 51 53 61 58 64 65 64 64 66 67 69 71
59 59 64 70 77 74 67 61 47 58 54 64 62 63 59 61 64 65 64 62 66 66 65 59 53 64 67 66 65 64 65 58 47 52 57 59 55 61 65 67 68 69 69 70 70
59 67 70 76 75 72 63 56 56 57 62 60 60 55 53 60 63 64 64 64 64 65 62 62 55 64 65 67 66 62 58 64 59 61 54 61 62 64 66 66 67 67 67 66 68
69 72 74 78 76 69 63 56 62 64 61 61 54 58 50 58 58 58 61 60 60 63 67 66 55 62 61 66 65 63 66 56 59 48 47 57 58 60 60 62 65 65 65 66 68
66 67 72 77 76 68 59 64 64 66 64 61 59 60 60 55 58 56 60 59 62 63 66 66 64 56 61 60 61 59 60 60 59 58 51 50 56 67 65 65 65 65 66 66 67
69 62 74 77 64 70 65 66 56 66 67 65 64 63 61 59 61 61 59 60 60 62 61 64 64 56 58 61 63 63 63 63 55 53 57 54 54 67 68 67 67 65 65 65 66
65 69 75 75 61 66 70 65 65 63 64 64 62 63 65 62 57 60 58 56 59 60 61 64 61 53 52 57 60 58 62 63 61 58 52 50 54 66 65 64 66 65 65 65 65
66 62 68 69 72 66 66 66 64 63 63 64 63 64 62 60 62 57 56 56 57 60 55 59 61 58 53 54 62 56 58 60 60 53 56 57 58 59 61 62 63 64 65 66 64
65 64 66 63 66 67 68 66 63 61 64 65 63 62 62 58 59 58 58 55 57 56 60 61 57 59 58 58 57 58 58 58 56 59 54 59 56 63 64 64 66 66 65 64 63
60 64 67 67 66 66 61 63 63 65 64 62 60 63 63 60 61 58 60 61 60 58 60 60 56 57 55 56 55 53 57 58 58 58 58 58 56 67 68 67 64 63 63 62 63
68 70 64 60 66 64 65 64 64 67 62 62 63 62 60 59 62 63 64 64 63 61 59 59 57 54 52 54 54 51 57 58 58 59 58 53 58 62 59 60 62 63 61 61 60

GFSSW_sfc_temp_072.txt.gz
Temp
66 67 67 67 67 66 66 66 66 66 66 67 67 67 67 66 66 72 70 79 84 82 81 85 86 85 86 78 81 83 66 64 70 73 74 82 79 82 83 80 80 80 80 84 86
66 66 67 66 66 66 66 66 66 66 66 66 67 66 66 66 65 68 80 82 82 82 82 82 81 84 77 77 77 72 65 70 80 79 77 80 80 79 77 76 76 78 80 84 84
66 66 66 66 65 66 66 65 65 66 66 66 66 65 65 66 64 76 81 80 82 82 84 83 85 83 74 77 74 75 67 77 79 83 84 80 80 82 76 71 77 75 77 80 80
65 65 65 65 65 65 65 65 65 66 66 66 65 65 65 66 56 80 82 81 80 85 83 81 81 75 72 71 78 67 78 81 81 76 80 78 82 78 77 74 81 81 81 79 77
65 65 65 65 65 65 65 65 65 65 65 65 65 65 65 63 64 82 82 84 83 80 78 78 77 76 69 74 75 69 73 79 82 77 81 83 77 75 76 80 80 83 81 77 77
64 65 65 65 64 64 64 64 64 65 64 64 65 65 62 52 79 85 86 85 84 79 78 81 79 82 77 75 72 76 75 77 77 78 80 77 75 75 78 81 78 78 76 77 77
64 64 65 64 64 64 64 64 64 64 64 64 65 66 60 58 79 81 81 82 85 83 78 84 85 81 79 73 77 75 68 69 70 72 74 76 70 69 79 78 76 75 74 76 77
64 64 64 64 64 63 63 63 63 63 63 64 65 64 55 76 81 80 81 79 83 86 84 86 87 81 78 78 74 67 66 58 66 70 69 71 62 72 78 74 73 74 74 73 75
64 63 63 64 63 63 63 63 63 63 64 65 63 63 57 79 74 79 81 77 82 84 84 88 83 75 75 67 62 63 55 58 63 70 67 64 62 70 75 76 73 71 73 74 73
64 62 62 62 63 62 62 62 64 65 68 70 69 59 66 70 78 81 83 81 79 79 77 76 73 68 67 63 52 58 59 61 60 64 64 59 58 68 73 73 71 70 71 71 72
62 62 62 62 62 62 62 67 66 59 63 61 64 62 68 77 82 79 85 80 79 75 64 70 62 59 65 67 69 69 64 61 61 67 62 59 62 67 72 70 68 65 68 70 72
62 62 61 61 61 60 61 62 67 67 55 68 69 68 73 76 67 77 84 72 70 63 68 63 58 69 73 73 70 70 65 60 61 66 63 61 60 66 69 69 67 67 67 68 69
62 61 61 61 60 60 63 66 74 72 56 64 72 70 72 75 68 73 77 73 67 63 64 60 67 74 73 70 68 67 63 63 62 63 63 59 55 61 68 69 70 69 67 68 68
61 61 61 61 57 70 67 75 75 73 47 59 65 70 74 74 68 80 79 73 70 63 65 67 70 70 68 65 67 60 70 67 65 58 50 60 45 58 62 64 67 65 65 65 67
61 60 60 60 60 63 67 71 72 66 38 64 66 80 76 68 68 71 78 71 63 67 67 63 62 63 64 64 70 62 67 62 62 57 55 54 47 53 62 60 60 61 63 62 66
61 60 60 63 63 67 71 71 66 46 41 58 67 65 64 68 69 72 70 74 73 67 64 66 73 68 67 67 68 68 63 62 59 55 44 56 52 50 53 56 58 60 61 62 63
60 60 60 68 67 74 73 64 47 39 61 55 59 64 64 62 65 66 64 62 58 54 55 62 63 66 68 59 64 63 56 44 41 41 42 57 52 49 56 58 59 59 59 60 61
60 59 61 65 72 72 68 57 42 55 55 59 62 62 56 60 63 63 62 57 64 59 57 52 48 60 66 62 58 58 56 47 39 41 45 55 46 47 59 61 62 62 61 61 61
59 63 61 71 72 71 60 51 53 56 62 57 53 52 49 57 61 62 60 59 59 61 52 52 52 63 65 66 62 58 50 58 51 52 45 50 51 55 60 59 60 59 59 58 59
61 63 68 79 76 68 58 53 60 64 62 59 44 51 42 52 57 57 58 60 60 62 62 60 49 61 61 64 62 59 61 49 50 40 37 49 47 46 52 54 58 56 55 57 59
60 60 71 76 74 63 53 60 65 68 64 60 58 53 54 55 56 56 58 58 61 61 60 60 58 52 58 55 55 54 53 54 52 50 40 38 41 56 55 57 56 56 58 58 58
61 56 72 75 58 63 61 64 57 67 66 63 62 62 59 57 51 54 58 57 59 60 58 58 54 50 53 58 61 58 56 57 45 44 47 42 40 60 59 60 59 57 59 58 59
59 62 73 71 53 60 67 67 66 64 64 64 62 63 64 59 54 58 58 56 58 58 53 55 53 45 45 50 54 52 57 57 55 49 43 36 41 59 58 57 59 56 57 57 58
59 56 63 65 64 60 60 63 64 63 63 65 63 63 61 58 60 56 56 56 57 59 56 54 54 51 43 48 54 50 55 56 52 41 45 45 47 52 54 55 56 56 57 57 58
60 57 64 56 60 62 64 64 62 61 63 64 61 61 59 56 57 56 56 54 57 56 57 55 50 54 54 55 56 54 55 54 50 51 43 49 50 54 55 55 56 57 59 58 58
57 59 60 56 64 62 60 61 61 64 64 62 58 62 60 56 55 53 57 57 55 55 54 56 49 51 50 55 53 51 54 54 54 54 52 52 49 56 57 57 57 56 57 56 55
65 65 60 54 57 59 60 63 63 66 63 64 61 60 58 57 60 59 60 59 59 55 53 53 50 47 42 51 51 45 51 53 54 54 51 44 48 55 52 56 54 54 56 55 53

GFSSW_sfc_temp_075.txt.gz
Temp
66 66 67 67 66 66 66 66 66 66 66 67 67 67 67 66 65 63 61 70 74 81 81 79 79 79 77 72 74 74 60 57 61 64 69 75 73 76 76 75 74 73 72 76 78
66 66 66 66 66 65 65 65 66 66 66 66 67 66 66 66 60 59 71 78 80 81 78 74 72 76 69 70 70 66 57 63 72 70 72 74 74 74 72 70 69 71 75 79 80
66 66 66 66 65 65 65 65 65 65 66 66 66 65 65 64 57 65 80 80 80 80 78 77 76 72 67 69 69 67 62 71 75 77 76 75 73 75 70 64 70 69 72 76 74
65 65 65 65 65 65 65 64 65 65 66 66 65 65 65 61 49 74 79 80 80 79 76 74 72 65 64 64 71 63 69 71 73 74 76 74 76 71 71 70 74 74 74 73 72
65 65 65 65 65 65 64 64 65 65 65 65 65 65 61 54 57 75 78 78 79 76 72 70 67 66 62 66 68 65 65 69 75 73 72 76 72 72 71 73 75 76 75 72 71
64 64 65 65 64 64 64 64 64 65 64 64 65 65 57 47 70 74 76 75 79 74 71 71 70 73 68 68 64 68 67 68 71 70 70 71 69 73 72 74 74 73 70 70 71
64 64 64 64 64 64 64 64 64 64 64 64 64 64 55 52 71 72 74 71 74 75 70 74 74 69 70 66 72 69 64 65 65 67 65 69 65 66 73 73 72 70 67 70 71
64 64 63 63 63 63 63 63 63 63 63 64 64 59 49 69 70 70 73 71 76 77 75 77 77 72 70 72 67 62 60 53 62 65 65 65 57 65 72 73 70 70 66 68 70
63 64 63 63 63 63 63 63 63 64 64 65 59 54 49 73 67 72 72 69 74 75 75 83 75 68 70 62 55 55 48 52 57 65 63 61 57 63 66 69 68 66 66 69 69
63 62 62 62 62 62 62 62 63 63 64 66 65 52 59 63 72 75 72 74 69 70 69 68 65 59 58 53 46 48 50 53 53 60 61 56 56 60 64 67 68 70 65 65 68
62 62 61 61 62 61 59 56 57 53 55 55 58 57 64 71 76 71 74 71 69 65 55 62 54 50 55 59 61 59 55 54 55 62 58 54 57 61 66 65 66 67 63 61 64
62 61 61 61 61 60 56 54 59 60 50 62 63 64 68 70 62 68 75 63 61 55 60 55 50 60 64 64 62 60 55 51 55 62 58 55 57 63 65 65 66 66 66 64 59
62 61 61 61 60 56 56 60 66 65 49 58 66 64 66 70 61 65 70 63 58 56 55 50 58 65 62 63 60 59 54 50 53 55 60 57 53 57 62 64 66 65 66 65 65
61 60 61 60 55 59 60 66 66 64 40 54 61 66 71 66 61 74 72 64 61 56 55 53 61 63 60 60 63 54 63 62 57 51 44 55 40 50 56 58 58 58 58 60 62
60 60 60 60 51 53 63 64 65 58 33 60 62 75 70 64 64 66 71 67 56 56 55 53 56 57 58 60 60 55 61 59 57 51 47 48 42 46 53 51 52 54 58 59 60
60 60 59 57 54 58 63 63 59 44 36 55 64 61 61 61 63 66 66 68 63 57 58 58 63 60 59 61 62 62 57 54 51 47 38 47 45 43 47 50 50 52 55 58 60
59 60 58 62 54 61 63 56 41 37 58 52 54 60 57 55 59 60 61 55 49 44 47 56 56 60 60 54 57 56 47 37 36 35 36 49 44 45 50 52 53 53 53 56 56
59 59 59 61 59 60 55 46 34 52 51 59 55 56 50 56 57 57 54 52 56 53 46 45 43 55 60 54 52 50 48 38 34 33 39 51 40 44 53 54 55 55 54 55 55
58 53 54 59 61 57 48 38 43 50 58 54 53 48 46 53 55 53 52 52 53 53 45 44 45 57 59 59 57 51 46 53 45 45 38 42 43 50 52 53 53 52 54 53 54
50 51 55 65 64 56 44 44 51 58 57 55 46 49 44 47 49 51 51 56 56 59 57 50 42 54 57 59 57 52 56 45 42 35 32 41 38 40 46 49 51 50 50 52 54
49 49 61 67 63 50 39 46 57 62 61 56 51 49 49 48 50 49 52 54 55 56 57 53 49 46 52 49 49 50 47 48 47 43 36 33 37 48 49 52 50 50 52 53 53
49 45 61 64 48 47 44 55 58 61 60 58 57 56 50 51 48 49 53 54 56 55 52 55 47 41 46 52 55 51 49 49 39 40 41 35 36 52 53 54 54 52 54 53 53
46 48 59 60 42 44 52 57 61 59 59 57 55 58 58 55 49 52 52 54 56 55 51 51 46 38 41 46 49 46 51 52 48 41 38 33 38 53 52 51 53 51 51 53 54
46 43 49 51 49 47 49 52 54 59 58 58 56 57 53 54 57 51 50 53 53 55 57 52 46 43 38 41 46 43 49 50 46 35 37 38 41 46 50 51 50 50 51 52 54
46 44 48 42 46 47 49 53 53 54 56 57 54 55 53 48 51 51 50 50 53 56 53 49 43 46 47 50 50 49 50 49 46 45 39 43 45 48 50 51 52 52 52 52 53
43 44 47 44 48 46 48 50 53 56 56 54 52 56 53 48 48 48 51 48 47 49 47 50 43 45 44 50 49 47 50 49 48 48 46 46 44 49 50 51 50 51 52 51 50
49 51 48 44 43 43 47 52 54 55 55 57 53 51 53 52 52 51 52 52 52 50 48 47 43 40 36 47 46 40 46 48 49 50 50 42 46 49 49 51 49 50 52 49 48

GFSSW_sfc_temp_078.txt.gz
Temp
66 66 66 66 66 66 65 66 66 66 66 66 67 67 66 66 65 59 57 67 68 77 79 75 76 76 74 69 72 71 57 54 59 61 65 72 71 72 74 72 70 71 69 73 78
66 66 66 66 66 65 65 66 66 66 66 66 66 66 66 66 58 57 68 75 77 78 73 70 69 71 66 67 68 63 55 57 68 70 68 72 73 74 72 67 65 66 70 78 76
66 66 65 65 65 65 65 65 65 65 66 66 66 65 65 64 54 59 78 78 79 79 73 74 72 69 63 66 66 64 59 63 71 73 76 72 71 73 68 62 67 68 69 75 73
65 65 65 65 65 65 65 64 65 65 66 66 65 65 65 59 49 70 79 78 78 77 72 70 68 61 61 62 68 62 68 68 70 72 73 71 74 69 68 69 73 72 74 73 72
65 65 65 64 65 65 64 64 64 65 65 64 65 65 59 51 54 71 76 75 74 73 69 66 63 63 60 63 66 63 65 66 69 69 69 71 68 69 68 70 71 72 73 73 73
64 64 64 64 64 64 64 64 64 64 64 64 64 64 56 44 68 70 71 71 72 70 67 66 65 68 65 65 64 67 66 67 68 67 65 68 66 68 69 70 70 71 68 68 69
64 64 64 63 63 63 64 64 64 64 63 64 64 63 54 51 67 69 70 67 70 68 64 69 71 64 66 63 69 67 60 62 64 66 63 63 63 61 68 70 68 67 65 67 69
64 64 63 63 62 63 63 63 63 63 63 64 64 60 48 66 66 67 69 66 70 71 68 71 71 67 65 68 65 61 59 52 60 64 63 64 55 64 68 69 65 63 63 66 68
63 62 62 62 62 62 62 62 63 64 64 64 58 53 47 69 64 69 68 65 69 70 70 77 70 63 64 57 54 54 46 50 55 63 60 59 54 64 65 67 65 65 63 65 67
62 62 61 61 61 62 61 62 63 62 63 65 63 49 57 61 68 71 69 69 65 66 66 65 61 55 55 52 46 45 48 51 51 58 57 54 56 60 62 65 66 66 66 64 68
62 61 61 61 61 61 58 54 55 53 55 53 55 55 60 67 72 67 71 66 65 60 51 58 51 46 52 61 58 56 53 52 53 59 57 54 55 60 63 62 62 62 63 62 64
61 61 60 61 60 60 55 54 56 58 48 60 60 60 64 66 58 64 70 60 58 51 55 53 47 57 61 61 59 57 52 49 53 58 56 53 54 59 62 63 64 64 63 60 60
61 60 60 60 60 56 54 58 64 61 47 55 62 61 63 65 59 60 66 60 55 52 52 48 55 63 58 57 55 54 51 49 51 53 55 52 50 54 59 61 63 64 62 61 59
60 60 60 60 56 54 55 64 62 61 40 51 59 64 67 66 58 70 68 61 56 51 52 51 58 59 54 55 57 50 59 56 53 49 43 52 40 47 52 55 57 56 55 56 56
60 60 60 59 52 53 61 61 61 56 31 59 61 72 67 60 62 64 71 64 53 53 53 50 52 52 53 56 58 54 59 56 52 47 45 45 42 46 49 48 50 50 52 53 55
59 59 59 55 52 56 58 59 56 41 35 53 61 58 57 59 60 64 66 65 60 56 55 53 58 56 55 58 58 58 52 49 47 44 37 45 44 42 45 48 48 49 51 53 55
59 59 58 61 56 58 58 54 41 35 55 51 53 57 54 52 56 60 58 51 49 44 41 50 53 55 56 51 54 52 46 37 36 35 35 45 42 46 47 49 51 51 49 52 51
58 58 57 59 56 57 54 48 33 49 47 56 54 56 48 52 54 56 53 47 54 50 44 43 38 52 59 53 49 48 47 39 34 32 38 46 38 45 48 51 52 52 51 51 51
57 50 51 55 58 55 51 38 41 47 56 53 52 44 45 50 51 52 49 50 51 53 46 44 46 57 58 58 55 50 45 51 43 39 36 39 41 47 48 48 49 49 50 50 50
48 48 51 61 59 53 47 43 46 57 54 55 44 47 43 47 48 48 49 52 52 55 54 48 42 52 56 58 57 51 55 45 42 34 31 36 35 39 43 45 47 47 48 49 50
47 47 58 60 57 48 43 43 52 61 58 53 49 49 47 46 47 48 49 51 53 55 53 49 46 45 51 48 48 50 47 48 46 40 34 31 36 45 47 48 47 47 49 50 50
46 44 59 59 46 40 42 51 55 57 58 56 54 53 49 49 47 49 51 53 54 53 50 50 46 40 45 51 54 50 48 47 38 38 36 32 35 48 49 51 52 49 51 50 51
44 45 56 57 39 39 47 54 56 54 55 55 53 55 54 51 48 49 51 54 54 53 50 50 44 37 41 46 48 45 48 48 43 38 35 31 37 50 47 48 50 49 49 50 51
45 42 48 48 44 42 43 48 51 57 56 57 54 54 52 50 53 49 51 52 53 54 57 53 46 42 37 40 44 40 46 47 43 35 36 37 39 44 46 48 48 48 49 50 52
44 43 45 40 44 43 44 48 49 50 55 55 51 52 50 45 48 49 50 51 51 56 50 49 43 44 46 48 48 46 47 47 43 42 39 41 42 47 47 48 50 51 49 49 50
43 44 45 42 43 42 43 45 47 51 51 52 49 52 50 46 49 45 46 47 48 47 46 47 43 43 42 48 47 45 47 47 46 46 44 44 44 47 49 47 47 48 49 48 47
46 48 47 43 40 40 42 45 49 50 54 55 52 49 48 50 50 50 51 49 49 47 45 44 42 39 35 44 45 41 45 47 47 48 48 41 46 47 46 49 48 47 48 47 46

GFSSW_sfc_temp_081.txt.gz
Temp
66 66 66 66 66 65 65 66 67 66 66 66 66 66 66 66 64 57 55 66 65 76 77 71 73 72 71 67 69 67 55 52 57 58 63 69 69 70 71 68 68 71 67 70 72
66 65 66 65 65 65 65 65 65 65 66 66 66 66 66 65 57 55 66 74 77 79 69 66 66 69 63 65 66 62 53 57 65 65 65 69 70 70 69 66 64 65 69 74 71
66 65 65 65 65 65 65 64 65 65 66 66 66 65 65 63 52 60 75 76 77 76 71 69 69 67 60 62 64 62 57 62 63 69 70 69 68 70 66 62 67 67 67 72 69
65 65 65 64 64 64 64 64 65 65 65 65 65 65 64 58 48 66 77 76 76 74 69 65 63 58 57 59 66 59 65 65 66 68 69 69 70 66 69 69 74 71 72 72 68
64 64 64 64 64 64 64 64 64 65 65 64 64 64 58 49 51 68 74 72 71 70 66 64 59 59 56 59 62 60 63 66 67 65 67 68 65 67 66 69 69 71 73 72 71
64 64 65 64 63 63 63 63 64 64 64 64 64 64 57 43 65 68 68 68 69 66 64 63 62 64 61 61 60 64 64 63 65 63 64 65 63 67 66 66 67 69 69 70 70
64 63 64 63 62 62 63 63 63 63 63 63 64 63 54 51 65 65 67 64 67 66 62 66 66 60 61 60 66 64 59 58 62 63 62 64 61 60 64 67 64 64 62 65 67
63 63 62 62 62 62 62 63 62 62 63 64 64 60 47 64 63 64 66 64 65 66 66 67 67 63 61 64 62 59 56 51 60 62 60 61 53 62 64 64 63 64 62 64 67
63 62 62 62 61 62 62 62 63 64 64 64 59 55 46 66 61 67 66 64 67 66 66 74 65 58 61 53 49 51 45 48 54 64 60 58 52 61 62 63 64 61 63 64 64
62 62 61 61 61 62 61 62 64 62 62 64 62 50 55 60 65 68 67 66 63 63 62 61 57 50 51 49 42 43 46 48 50 57 58 53 53 57 60 63 63 64 64 65 66
62 61 61 61 61 61 57 57 53 52 55 51 54 53 58 64 67 64 68 64 62 58 49 56 48 44 47 53 55 52 51 50 52 58 54 52 53 55 58 58 59 61 62 62 62
61 61 60 61 60 60 55 54 55 56 45 58 58 58 62 62 55 61 67 56 55 48 51 49 44 53 58 59 58 55 54 49 52 57 54 51 53 56 60 60 60 61 60 60 59
61 60 60 60 60 55 53 58 62 59 45 53 59 58 61 61 57 58 65 58 52 48 48 45 52 60 58 57 56 52 49 48 50 52 53 51 49 54 58 60 61 60 59 59 59
60 60 60 60 55 53 54 62 60 60 39 50 58 62 65 63 57 67 66 60 54 48 49 50 55 56 52 52 55 47 56 54 51 47 41 48 39 47 51 54 55 53 53 53 56
59 59 59 59 49 52 60 58 58 55 32 57 59 71 66 59 60 63 68 62 55 53 50 47 50 50 50 53 56 52 56 53 50 44 41 44 41 46 46 48 50 50 51 52 54
59 59 59 54 50 54 56 56 54 41 34 51 59 57 55 57 58 62 63 63 59 54 51 49 55 53 52 54 56 54 50 47 44 42 36 44 44 43 45 49 47 47 49 52 53
59 59 57 59 52 56 55 53 41 35 53 50 50 54 52 50 54 57 56 51 46 40 39 48 49 52 54 49 52 49 43 34 33 36 36 44 41 47 48 48 49 50 46 48 49
58 58 56 58 54 55 52 48 34 46 46 54 52 51 46 50 51 52 51 47 52 49 42 41 40 48 54 49 46 45 44 36 32 31 37 43 37 46 46 48 49 50 48 48 47
56 49 50 53 55 53 49 38 40 45 52 50 51 44 45 49 48 49 47 48 52 52 43 41 39 52 54 55 52 46 42 50 41 37 35 38 41 45 46 46 47 47 48 47 47
48 47 50 58 56 51 45 44 45 53 53 51 41 45 41 45 46 47 47 52 51 55 54 49 39 52 53 55 53 51 52 44 39 34 32 35 34 40 41 43 45 45 45 46 47
47 48 56 57 56 47 40 41 50 57 56 50 46 45 45 44 44 44 48 51 52 53 52 50 47 45 50 49 48 48 44 45 44 39 33 31 37 44 45 46 45 45 46 47 47
45 44 56 56 45 37 39 47 54 55 55 53 51 50 47 46 44 45 48 52 53 51 49 50 44 40 45 51 54 50 45 48 39 38 34 32 37 46 46 48 48 46 48 47 49
43 43 54 55 38 38 44 50 52 52 53 52 51 52 51 47 44 46 50 52 52 52 47 51 44 36 39 44 49 47 49 46 44 38 33 31 38 46 43 46 48 47 47 48 49
43 40 46 47 43 39 41 45 48 53 53 54 52 51 49 47 49 48 50 51 52 50 57 52 45 42 37 40 43 40 45 45 43 34 34 35 39 42 43 46 46 46 48 48 49
42 41 43 39 42 40 41 44 46 47 51 52 50 49 47 43 45 44 47 50 50 55 49 49 43 43 45 45 44 44 45 45 42 40 39 40 41 46 46 47 49 49 47 47 47
42 41 43 40 41 39 41 41 44 47 47 48 46 51 47 44 46 44 46 45 46 48 46 45 42 42 43 46 45 44 47 45 44 43 42 41 42 46 46 46 46 47 47 47 46
44 44 45 42 38 37 39 43 46 47 50 52 49 47 47 49 48 48 48 48 47 44 44 43 40 38 36 42 43 40 44 45 45 46 46 40 45 46 44 48 46 46 48 47 45

GFSSW_sfc_temp_084.txt.gz
Temp
65 65 66 66 65 65 65 65 66 65 66 66 66 66 66 65 64 56 53 63 64 76 76 69 70 70 68 65 67 65 54 50 56 57 61 65 67 68 69 66 65 68 66 67 70
65 65 65 65 65 65 64 65 65 65 65 65 66 66 65 65 57 53 65 73 77 77 67 64 63 66 61 62 63 60 52 55 63 63 63 64 67 68 67 64 63 63 66 69 69
65 65 65 64 64 64 64 64 65 65 65 66 65 65 65 63 51 59 75 73 76 75 68 67 65 63 57 60 61 60 55 61 64 66 66 65 63 66 64 60 66 65 64 66 66
64 64 64 64 64 64 64 64 64 65 65 65 65 65 64 56 48 64 75 74 75 72 67 64 61 55 54 56 62 56 63 63 65 66 65 63 65 64 63 66 70 69 68 67 65
64 64 64 64 64 63 63 63 64 64 64 64 65 65 58 48 49 66 73 70 68 68 64 62 57 56 53 57 60 57 61 65 66 64 65 65 63 63 63 66 66 68 69 67 67
64 64 64 64 63 63 63 63 63 64 64 64 64 64 55 43 63 65 66 65 66 64 61 62 59 62 58 58 58 61 63 62 63 63 63 64 62 62 63 65 64 67 67 67 68
64 64 63 63 62 62 63 63 63 63 63 63 64 63 54 50 62 62 64 62 64 64 60 64 64 57 58 57 64 62 57 57 60 61 62 63 59 60 62 63 61 61 62 65 66
63 63 63 62 62 62 63 63 63 63 63 63 64 60 47 63 62 62 63 62 63 63 63 65 65 60 58 60 59 56 55 49 57 60 61 60 52 59 60 61 59 58 58 62 64
62 62 62 62 62 62 62 62 63 64 64 64 56 53 47 65 59 65 64 62 64 63 62 71 63 56 56 50 47 49 43 45 52 59 58 57 52 59 59 60 59 58 61 64 64
62 61 61 61 61 61 61 62 63 62 62 63 61 49 55 59 63 66 64 64 60 60 58 58 54 48 47 45 40 40 43 46 48 55 55 51 52 55 58 59 59 58 61 63 66
61 61 61 61 61 61 57 55 53 52 53 53 53 53 57 61 65 61 65 61 60 55 47 52 45 40 44 50 52 49 49 48 51 56 53 51 52 55 57 56 57 57 58 59 63
61 61 60 60 60 59 54 53 53 54 45 55 55 56 60 60 53 60 65 55 52 47 49 46 41 50 54 53 54 53 52 49 50 55 53 49 51 53 56 57 58 59 57 59 59
61 60 60 60 59 55 52 55 59 57 44 52 57 56 59 59 55 56 62 56 51 45 47 42 49 55 54 52 51 53 51 51 50 51 51 49 47 51 57 58 60 59 59 59 60
60 60 60 60 55 52 53 59 57 57 39 50 56 60 61 60 55 65 64 60 53 48 47 46 54 52 50 51 53 45 54 52 50 46 41 47 37 46 50 54 55 53 54 56 56
59 59 59 58 49 50 55 55 55 53 32 56 57 68 64 57 58 60 65 59 53 52 47 46 48 48 49 51 54 49 52 50 48 43 41 42 40 45 46 49 51 51 53 52 52
59 59 58 53 49 52 55 55 54 40 34 49 57 55 53 55 56 60 60 62 59 53 50 48 53 50 48 51 52 51 48 46 43 41 34 42 42 42 45 48 46 48 51 51 52
59 58 57 58 51 54 54 51 40 35 51 49 50 52 49 49 51 55 53 50 45 40 40 46 47 50 52 47 50 48 43 33 32 32 33 41 40 49 47 47 48 50 49 46 46
58 57 56 56 53 54 51 46 32 45 44 52 51 50 46 49 50 51 49 47 50 48 41 38 37 47 52 47 44 43 43 35 30 29 35 42 37 45 48 47 48 49 46 46 46
56 48 48 52 54 52 48 37 40 44 51 49 49 43 43 49 47 47 44 46 50 50 40 37 39 49 52 51 49 42 40 45 38 34 33 37 42 45 46 46 46 46 46 45 46
47 47 50 55 54 51 44 42 44 50 51 49 40 43 39 44 44 44 46 49 51 54 52 44 35 49 50 52 50 47 50 42 37 31 29 33 34 41 41 43 44 43 44 44 45
46 48 54 55 53 46 39 40 48 54 53 49 45 44 44 42 42 42 46 50 50 51 51 49 45 42 47 44 43 45 42 42 43 39 34 34 37 45 44 45 44 44 45 45 45
44 44 55 54 44 35 38 45 52 52 53 52 49 49 45 44 43 43 45 49 52 49 47 50 45 40 43 51 52 50 47 47 38 36 34 35 38 45 45 46 47 45 46 45 47
42 42 53 54 38 36 42 48 50 50 51 50 50 51 49 45 42 45 48 51 51 50 46 47 41 34 39 47 49 45 47 46 44 39 33 32 39 47 41 43 46 45 45 46 47
43 41 45 44 40 38 38 42 45 52 50 51 50 50 47 44 47 45 46 51 51 50 58 51 44 39 35 39 42 42 46 45 42 35 34 35 40 43 43 44 44 44 45 45 46
42 40 40 37 40 38 39 41 43 44 48 48 47 48 46 41 43 41 45 47 50 54 48 45 41 39 43 44 43 43 44 43 40 39 39 39 40 46 47 44 45 46 45 45 45
42 40 40 38 38 35 39 39 42 44 43 45 44 47 46 43 44 42 43 41 42 47 45 45 40 39 40 45 42 42 45 44 41 41 41 39 40 45 42 44 45 45 45 45 44
42 43 43 40 36 35 37 41 44 44 47 48 46 44 43 47 46 47 47 46 45 42 42 42 39 37 36 41 42 39 42 43 42 43 44 39 45 45 42 44 43 45 46 46 44

GFSSW_sfc_temp_087.txt.gz
Temp
66 65 65 65 65 65 65 65 65 65 66 66 67 67 66 66 64 59 56 68 69 77 76 71 72 73 74 71 72 70 61 58 63 62 68 70 71 71 74 72 73 76 75 76 76
65 65 65 65 65 65 64 64 65 65 66 66 66 66 66 66 58 57 68 72 76 77 70 67 66 67 66 68 68 66 59 61 68 69 69 71 69 71 72 69 72 72 72 73 72
65 65 65 65 64 64 64 64 64 65 65 66 65 65 65 63 56 62 75 75 76 75 70 70 68 66 63 65 66 65 61 65 69 71 72 70 68 71 69 65 73 73 69 70 70
65 65 64 64 64 64 64 64 64 64 65 65 64 65 64 59 53 67 74 74 74 73 70 66 64 62 59 60 66 61 65 68 70 70 68 68 70 69 68 73 72 77 73 70 69
64 64 64 64 64 64 63 64 64 64 65 64 64 65 60 52 55 68 72 69 69 69 66 64 61 61 57 60 63 61 65 68 70 68 70 70 68 70 67 71 72 73 71 70 71
64 64 64 64 63 63 63 63 64 64 64 64 64 64 56 53 67 67 65 65 68 67 65 65 63 64 59 59 60 65 66 68 67 67 69 69 68 69 70 68 69 68 69 71 71
63 63 63 63 62 63 63 63 63 63 63 63 63 62 54 55 66 65 64 64 66 67 63 66 66 63 61 59 63 63 60 62 64 65 66 69 65 65 70 69 66 66 68 69 71
63 63 62 62 62 62 62 63 62 63 64 64 63 60 48 64 64 63 64 65 65 65 65 67 68 63 61 63 61 58 60 53 63 63 65 66 59 67 67 68 65 65 66 66 69
62 62 62 62 61 62 62 62 63 64 64 64 57 54 52 67 61 67 66 65 67 64 64 70 65 60 60 54 51 54 51 51 57 63 61 63 59 65 65 66 64 64 65 66 68
61 61 61 61 61 61 61 62 63 62 62 63 61 52 59 61 64 66 67 65 62 62 61 60 58 53 52 51 41 47 49 51 55 59 60 58 59 61 63 63 64 63 63 64 67
61 61 60 61 61 61 57 56 55 54 56 54 55 55 58 62 65 64 67 63 63 59 51 55 50 45 49 52 54 53 51 54 56 60 58 57 58 60 61 60 62 62 62 64 68
61 60 60 60 60 59 56 54 55 56 46 56 55 56 59 61 55 62 67 59 57 51 54 50 45 53 54 53 53 53 49 53 54 57 59 54 56 59 59 60 62 64 64 64 67
60 60 60 60 59 55 54 55 59 59 46 53 58 57 60 60 57 58 64 59 54 50 50 46 52 56 53 52 49 51 48 51 54 55 57 54 54 57 61 63 63 65 66 65 64
60 59 60 59 56 51 54 58 57 58 42 53 57 62 61 60 56 65 64 61 56 50 49 47 54 53 50 50 52 46 56 55 50 51 48 54 46 52 57 60 61 63 63 64 64
59 59 59 58 50 52 57 55 57 55 35 56 58 69 64 59 60 62 66 61 52 50 52 48 50 49 50 52 54 51 55 53 49 48 49 48 49 53 53 55 59 60 60 62 63
59 59 58 53 50 53 55 54 55 42 37 50 58 56 54 57 58 60 62 63 60 52 51 49 55 52 53 52 52 52 50 48 46 46 42 48 49 49 52 57 56 57 59 60 61
59 58 57 58 53 54 54 53 42 37 52 50 51 53 50 50 52 55 54 51 46 39 41 47 48 52 53 50 52 50 49 37 38 40 40 46 45 53 55 56 57 57 58 58 58
57 57 55 56 54 54 52 48 36 46 46 53 51 50 47 50 51 51 50 48 51 47 40 37 38 47 53 50 48 46 47 37 33 36 41 45 42 51 54 53 53 55 56 55 55
56 49 49 53 54 52 51 39 41 45 51 49 50 45 45 49 49 48 48 49 51 51 39 36 36 50 52 53 52 46 43 51 43 41 40 44 49 54 51 51 51 52 53 53 52
48 48 51 55 54 52 46 42 45 50 52 50 42 46 42 45 46 45 46 52 50 54 54 43 38 48 50 54 54 50 52 44 43 37 37 41 42 48 49 50 50 51 52 51 51
49 49 55 55 53 48 41 41 47 54 53 49 46 45 45 44 44 44 47 51 51 52 53 47 44 45 49 47 46 49 47 46 47 43 39 39 45 52 52 51 50 52 52 52 51
45 46 55 54 46 36 40 45 50 51 53 51 50 49 47 46 45 45 47 51 51 51 48 52 46 38 42 53 54 52 50 48 43 39 40 39 46 54 52 52 53 52 51 52 52
43 43 53 54 41 39 42 47 50 49 50 50 49 51 50 47 44 46 48 54 52 51 48 49 46 39 41 48 50 48 50 48 47 44 39 40 47 52 51 49 52 52 51 51 51
43 42 46 45 42 41 39 42 45 50 49 50 49 50 47 46 48 46 48 52 52 51 57 51 45 43 39 43 46 44 47 48 47 41 42 43 48 53 53 50 49 51 52 51 51
42 42 42 40 41 39 41 42 42 44 48 49 46 45 44 41 44 44 47 48 50 54 50 48 42 44 45 45 46 46 47 46 44 46 45 46 44 51 53 52 52 53 50 49 50
43 42 41 39 40 38 40 40 42 44 44 45 43 45 44 42 45 42 45 44 45 48 47 46 43 42 42 47 46 43 46 46 45 45 44 45 46 52 50 50 50 51 50 50 50
41 43 44 41 37 38 38 41 43 44 47 48 45 43 43 46 48 49 48 48 47 45 44 43 41 38 38 42 43 41 46 45 46 47 48 44 50 52 50 50 50 50 50 50 49

GFSSW_sfc_temp_090.txt.gz
Temp
66 66 65 65 65 65 65 65 65 65 66 66 66 66 66 66 66 73 70 72 74 76 78 80 80 79 80 77 79 78 68 66 69 71 75 81 79 81 85 81 84 86 87 88 87
66 65 65 65 65 65 65 65 65 65 65 66 66 66 66 65 68 72 74 73 74 76 77 74 73 76 75 75 76 73 67 69 78 80 78 81 81 80 79 80 80 82 82 88 85
65 65 65 65 65 64 64 64 64 65 65 66 65 65 65 67 66 69 75 75 75 77 77 76 74 73 70 74 75 74 67 76 76 80 81 80 78 82 79 75 83 82 82 83 82
65 65 65 65 65 65 64 64 64 65 65 65 64 65 64 68 62 74 74 73 74 78 76 73 72 68 66 67 75 67 75 75 76 79 77 77 82 78 81 83 85 86 87 82 81
64 64 64 64 64 64 64 64 64 65 65 64 64 65 67 68 70 77 72 74 78 76 73 71 69 67 63 68 71 68 72 76 77 78 77 80 77 79 78 84 81 82 84 81 83
64 64 64 63 63 63 63 64 64 64 64 64 64 64 65 65 76 76 73 75 75 74 73 73 71 72 67 66 66 72 71 73 76 75 77 74 77 76 82 85 79 80 81 82 83
63 63 63 63 62 63 63 63 63 63 64 65 64 66 62 70 76 77 73 73 73 73 70 73 74 69 69 65 72 69 64 70 72 74 72 76 71 71 83 80 78 78 81 80 81
63 63 62 62 62 62 63 63 63 63 64 64 64 66 65 74 77 74 75 74 73 73 71 73 74 69 67 71 68 64 66 58 70 73 74 72 64 77 81 79 79 78 79 75 77
62 62 62 62 62 62 62 62 64 64 65 65 65 63 67 73 72 76 75 71 73 72 72 74 71 66 66 60 59 62 56 60 64 73 71 68 66 78 78 77 77 78 77 76 77
62 61 61 61 61 62 61 62 64 65 67 68 67 62 72 70 72 74 76 71 69 69 67 66 66 61 62 59 49 55 56 59 60 69 68 66 66 71 73 74 74 76 77 77 78
61 61 60 61 61 61 66 73 71 70 68 62 63 63 70 75 74 72 74 70 70 67 61 63 58 55 60 61 61 59 58 58 64 70 66 65 67 68 69 71 72 74 75 76 77
61 61 60 60 60 60 70 66 62 64 56 64 64 63 68 68 65 72 74 66 64 60 62 58 54 62 64 61 58 57 55 56 63 69 67 66 65 72 69 71 73 73 75 76 79
61 60 60 60 60 67 67 63 67 66 57 64 66 65 68 67 66 68 70 67 62 58 58 53 58 64 59 57 54 55 54 56 57 63 66 66 63 67 69 70 71 75 77 78 76
60 60 60 59 63 65 65 66 67 67 57 63 65 69 69 66 63 73 72 67 63 57 57 55 61 58 56 54 57 49 60 59 58 54 50 64 53 64 70 68 69 72 73 73 73
60 59 59 58 66 66 65 67 67 64 47 65 66 76 74 64 67 67 73 67 60 58 57 53 56 54 54 56 60 54 62 59 56 55 57 56 56 65 67 65 69 72 74 72 73
60 59 59 63 65 65 66 66 65 55 47 59 66 63 65 65 66 67 67 69 65 57 54 55 62 57 57 60 60 63 58 56 54 51 44 58 57 61 64 67 71 74 73 72 73
59 58 59 64 65 65 66 65 57 49 61 58 59 63 61 61 62 62 61 60 54 48 43 49 54 59 56 55 58 58 54 41 37 34 40 57 54 63 66 67 68 67 70 71 71
58 57 59 64 66 64 64 62 48 54 56 62 59 60 56 59 62 61 60 57 58 53 44 37 39 53 57 54 53 57 54 43 33 43 48 54 51 61 65 64 64 64 69 68 67
56 67 67 67 64 64 63 55 55 55 58 57 60 56 57 58 56 59 59 57 58 57 45 39 41 58 58 58 57 50 49 46 38 51 51 54 59 65 62 61 61 63 64 63 64
65 67 66 65 65 65 61 53 56 59 59 58 52 55 52 56 56 58 58 59 57 59 61 48 38 55 56 59 59 55 55 41 41 40 42 51 53 58 60 62 61 61 63 61 61
65 65 65 67 67 64 56 55 56 62 60 57 55 54 56 53 55 55 57 60 59 59 60 55 47 46 55 54 52 55 51 53 53 49 45 47 52 63 62 62 62 64 63 61 62
64 61 66 68 60 58 57 54 53 58 61 59 58 57 55 56 55 54 55 59 58 59 55 58 53 41 47 60 60 58 55 56 48 45 50 51 52 63 63 63 64 63 60 61 61
62 61 67 66 55 58 56 54 56 57 58 58 56 57 59 55 51 55 57 62 59 58 56 58 54 47 47 54 57 55 57 56 56 55 48 48 52 63 65 62 63 62 60 60 60
61 57 62 64 57 54 53 54 53 58 57 57 57 58 56 55 58 55 56 60 60 58 57 57 54 51 46 48 50 51 53 55 56 51 51 52 56 64 63 60 60 61 62 62 61
60 57 55 58 57 54 53 52 51 52 57 58 55 53 52 50 54 53 57 58 61 57 59 57 52 52 55 56 54 53 53 53 51 54 49 54 54 62 64 62 63 64 62 61 60
60 57 55 56 50 52 49 52 50 53 53 55 53 53 53 50 54 51 54 56 55 59 57 57 53 52 50 54 53 49 54 53 54 54 54 56 55 61 60 62 63 63 61 60 60
57 58 58 50 50 51 53 52 50 52 56 56 54 52 52 55 57 59 60 59 58 54 53 53 52 50 48 52 52 49 53 52 53 55 56 53 58 61 59 59 61 62 62 61 62

GFSSW_sfc_temp_093.txt.gz
Temp
66 66 66 66 66 65 65 65 65 65 66 66 66 66 66 66 66 81 76 73 76 76 77 84 83 83 83 79 82 82 69 66 70 73 77 86 82 89 92 88 89 92 92 94 91
66 66 66 66 65 65 65 65 65 65 66 66 66 66 66 65 73 78 74 74 75 77 81 79 77 79 76 77 78 73 67 69 80 81 79 84 84 86 81 83 84 88 89 93 89
65 65 65 65 65 65 65 65 65 65 66 66 66 65 65 67 72 75 75 75 76 77 82 81 80 76 73 77 77 75 67 76 80 82 83 82 82 87 80 78 85 85 86 88 87
65 65 65 65 64 64 64 64 65 66 66 65 65 65 65 73 64 80 74 74 75 81 81 78 76 71 69 69 76 69 76 78 78 82 79 78 84 82 83 84 90 89 92 88 86
64 64 64 64 64 64 64 64 64 65 65 65 65 65 70 74 74 82 73 79 83 81 78 75 73 72 66 72 73 70 74 77 80 80 79 81 78 81 82 88 84 85 88 87 87
64 64 64 64 63 63 63 64 64 64 64 64 65 63 72 69 82 83 80 81 80 79 78 78 74 75 70 69 68 74 74 74 77 78 78 75 77 80 83 89 85 82 83 87 87
64 64 63 63 63 63 63 64 64 63 64 64 65 71 70 73 83 84 81 79 79 78 74 78 78 72 74 69 75 73 66 70 72 75 74 78 71 73 84 87 84 82 85 87 87
63 63 63 62 62 63 63 63 63 64 65 65 64 74 72 82 85 80 83 81 79 79 76 78 78 73 70 74 70 66 67 60 72 73 75 74 62 76 84 84 81 81 84 85 86
62 62 62 62 62 62 62 62 64 65 65 65 70 72 72 75 79 82 82 76 78 78 77 79 74 70 70 63 61 65 57 61 66 77 73 71 65 75 83 83 80 83 81 84 82
62 61 61 61 61 62 62 63 66 64 70 74 74 68 77 74 79 79 83 77 74 74 72 70 70 65 66 63 51 57 59 63 62 71 73 69 67 73 80 80 79 82 82 82 82
62 61 61 61 61 61 66 76 75 74 77 69 72 69 76 80 83 78 80 76 75 72 65 70 60 58 63 65 64 61 59 58 64 71 68 67 67 71 77 76 76 79 80 80 82
61 61 60 61 60 60 68 72 68 68 62 73 71 71 76 75 69 77 79 70 70 63 68 64 55 64 66 64 61 59 56 56 63 68 68 67 66 72 77 74 75 77 79 79 82
61 60 60 60 60 68 73 69 73 72 63 71 73 72 74 73 70 73 75 73 67 62 63 57 61 66 62 60 58 58 55 56 57 64 68 66 63 68 76 76 77 79 80 81 81
60 60 60 59 64 74 71 73 74 72 61 66 70 73 75 72 66 78 77 70 68 62 61 59 65 61 60 58 60 52 62 60 57 56 49 66 49 65 71 71 74 76 78 78 77
60 60 59 58 71 72 70 74 74 69 49 68 70 80 78 68 71 71 78 72 63 62 61 57 58 57 55 58 62 56 63 59 59 54 55 51 53 64 71 68 71 75 77 78 77
60 59 59 70 74 72 74 73 69 57 49 63 70 69 70 71 72 72 72 73 72 63 64 60 66 61 60 61 63 64 59 58 57 54 39 43 47 59 65 70 74 77 78 77 74
59 59 60 71 70 73 73 69 58 53 67 61 62 67 66 66 67 69 66 66 59 51 53 56 57 64 62 55 64 60 52 34 34 36 40 49 43 51 64 75 76 78 80 79 77
58 57 62 72 74 72 71 65 51 60 61 67 65 66 61 64 66 66 66 62 66 61 54 45 42 56 63 57 52 55 53 37 30 36 38 55 47 56 66 71 72 73 76 75 73
56 75 75 75 72 72 67 58 59 60 62 60 64 60 62 64 63 65 65 61 63 63 51 47 44 61 63 63 59 55 44 47 35 39 36 49 60 66 69 67 69 70 70 69 71
70 74 74 73 73 71 64 57 61 64 64 64 55 60 55 60 60 61 62 63 60 65 65 56 44 58 61 64 62 55 54 41 40 35 35 49 49 52 63 65 66 67 67 66 67
70 70 70 74 73 68 59 62 61 66 64 61 59 58 60 58 59 59 60 63 64 62 64 61 54 55 59 56 55 55 52 51 52 50 36 42 50 65 63 66 66 67 66 65 66
71 65 73 75 63 69 62 60 55 63 66 63 62 61 59 60 58 58 58 62 64 63 57 62 56 51 53 63 64 61 55 57 41 40 50 43 50 69 68 68 68 65 64 65 65
67 70 74 73 59 64 65 61 61 60 62 61 60 61 63 59 54 60 60 66 65 62 58 60 57 50 50 59 63 59 61 60 58 56 47 43 48 70 68 67 67 64 63 63 63
67 62 68 70 68 61 60 60 57 62 61 62 61 63 60 59 63 57 59 63 66 62 58 59 56 53 47 53 58 54 57 59 58 49 49 49 55 65 66 64 65 64 64 64 64
67 64 63 62 65 62 60 60 57 56 62 63 60 58 56 53 57 58 60 62 65 60 63 61 51 58 58 59 59 57 56 58 55 56 51 56 56 62 63 65 66 66 65 64 63
65 61 63 63 62 60 54 59 55 58 58 58 56 60 59 54 56 53 57 58 57 62 60 62 52 57 55 58 59 55 58 58 58 58 58 59 57 65 66 68 67 66 65 63 63
65 65 62 56 60 58 59 59 56 57 61 60 58 57 55 59 61 61 62 62 61 57 55 56 55 53 51 58 58 52 55 56 57 59 57 54 58 64 63 63 65 66 65 65 65

GFSSW_sfc_temp_096.txt.gz
Temp
66 66 66 66 66 65 65 65 66 66 66 66 66 66 66 66 65 78 74 72 75 77 77 81 82 80 79 73 75 77 60 57 62 66 70 82 79 73 70 77 81 80 82 84 85
65 66 65 65 65 65 65 65 65 66 66 66 66 66 66 65 66 77 74 76 76 77 77 76 76 78 70 71 71 66 58 61 72 75 74 80 79 78 66 72 78 76 85 85 84
65 65 65 65 65 65 65 64 65 65 66 66 66 65 65 66 68 74 76 76 76 77 81 80 78 75 67 70 70 68 59 69 73 77 79 77 78 79 68 70 77 75 80 81 81
65 65 65 65 64 64 64 64 65 65 66 66 65 65 65 66 61 78 75 76 76 78 80 78 75 68 65 64 72 64 71 73 74 77 76 74 79 76 63 63 76 79 84 82 80
64 64 64 64 64 64 64 64 65 65 65 65 65 65 66 69 72 80 76 79 81 82 78 74 71 70 63 68 70 66 69 73 76 76 76 78 73 74 75 78 78 82 76 81 81
64 64 64 64 63 63 64 64 64 65 64 64 65 65 68 67 83 85 82 81 81 78 77 76 72 73 67 66 64 69 69 69 72 72 74 72 72 74 76 80 77 78 76 80 81
64 64 64 63 63 63 63 64 64 63 64 65 65 69 71 72 85 85 83 80 81 77 72 77 76 70 70 64 72 70 62 65 67 70 68 73 66 68 77 81 75 73 76 76 82
63 63 63 62 62 63 63 63 63 63 65 66 65 72 69 84 85 82 85 81 82 80 76 77 77 70 67 70 66 61 62 52 65 68 70 68 56 69 77 77 77 75 75 76 81
63 62 62 62 62 62 63 63 63 65 66 66 68 73 70 75 79 84 83 76 79 80 78 79 74 66 67 59 55 59 50 55 60 71 69 65 58 69 75 76 75 76 75 78 79
62 62 61 61 61 62 62 63 68 66 67 74 75 68 76 74 79 82 83 79 73 74 72 68 65 61 62 58 46 52 52 56 55 64 67 63 61 68 72 74 73 75 76 75 79
62 61 61 61 61 61 64 77 72 68 75 70 72 71 75 79 83 79 83 77 75 70 61 67 59 53 58 61 61 58 55 53 58 65 61 59 62 66 71 70 70 72 76 74 77
62 61 61 61 60 60 64 71 66 67 57 74 74 73 77 77 69 77 80 70 68 61 66 61 53 62 64 62 59 57 54 52 58 63 61 59 59 66 69 69 71 70 71 69 72
61 61 61 60 60 66 72 68 74 72 58 71 75 74 75 74 69 72 76 71 65 61 60 54 59 65 62 59 55 55 53 52 53 58 61 57 54 60 69 72 72 72 74 74 72
61 60 60 60 63 74 70 74 75 72 55 64 69 73 76 73 67 79 79 70 65 60 60 58 64 60 57 55 57 48 58 58 53 50 42 57 41 55 63 66 71 70 69 66 69
60 60 59 58 66 70 70 74 74 67 45 68 70 82 78 71 72 72 79 71 61 61 61 56 56 56 53 56 58 52 55 52 53 50 47 48 42 52 59 61 65 68 69 69 69
60 60 59 66 71 72 74 73 68 52 46 63 71 69 68 72 72 75 74 73 71 63 63 60 66 62 58 61 61 62 54 50 49 46 36 46 43 42 53 60 65 66 69 68 69
60 59 60 69 67 74 72 67 53 49 68 61 62 67 66 65 67 69 66 64 57 49 49 58 57 62 63 55 60 56 45 32 31 33 34 46 40 43 53 58 64 63 58 69 68
59 58 66 72 74 72 69 60 48 61 59 67 64 64 61 65 64 65 64 59 63 58 49 45 42 56 62 57 51 51 45 35 26 31 34 42 36 43 53 58 66 67 71 68 65
58 69 73 74 73 71 62 54 54 57 62 59 62 59 60 64 63 62 61 58 60 60 47 45 45 60 63 62 58 51 42 45 35 36 34 36 44 51 56 62 62 61 60 59 61
61 70 73 75 74 68 60 55 61 65 63 62 53 60 53 58 57 58 59 61 58 62 62 54 43 58 62 64 60 54 51 38 37 31 29 40 46 47 55 58 60 59 57 58 60
61 66 69 75 73 64 55 59 62 67 65 59 57 55 57 56 57 56 58 60 61 59 62 59 52 51 59 55 53 51 50 47 43 39 34 35 42 58 56 59 58 57 57 58 59
67 59 71 73 60 65 60 59 56 63 66 62 62 59 58 57 55 55 56 59 62 61 54 59 51 44 52 61 62 58 53 54 38 37 38 36 40 60 61 60 59 57 57 57 59
63 65 72 71 55 59 65 63 63 60 61 61 59 62 61 56 51 57 58 62 62 59 54 55 49 42 47 52 57 54 58 58 55 48 42 35 40 60 60 59 58 55 56 57 58
62 57 64 66 67 60 58 59 58 62 61 62 60 62 59 56 59 55 57 62 61 62 59 56 50 46 40 47 53 50 54 56 52 42 43 44 49 55 58 57 57 56 56 56 57
61 58 60 57 60 61 61 59 56 57 62 63 58 59 56 50 52 53 57 58 61 59 59 55 46 51 53 55 56 54 53 54 50 50 43 48 49 53 57 58 59 59 59 57 58
56 58 60 58 61 59 55 57 57 58 59 56 56 58 57 51 53 50 54 54 53 58 55 55 47 50 49 56 56 53 55 54 54 53 51 52 49 58 59 59 57 56 58 56 56
64 63 59 54 57 56 57 58 58 59 59 61 57 54 52 55 57 57 57 57 56 52 51 50 48 46 42 54 54 47 51 53 53 54 52 46 49 56 55 57 55 57 59 57 57

GFSSW_sfc_temp_099.txt.gz
Temp
65 66 66 66 66 65 65 65 65 66 66 66 67 67 66 66 65 66 65 67 70 77 76 75 73 73 70 66 69 69 53 51 56 60 64 75 69 71 71 69 69 70 72 78 81
65 65 65 65 65 65 65 65 65 65 66 66 66 66 66 65 61 66 72 76 77 77 71 70 68 70 61 62 64 60 52 55 65 67 67 72 71 70 65 66 66 68 79 81 81
65 65 65 65 65 65 64 64 65 65 66 66 66 65 65 64 61 66 76 77 77 77 73 72 72 68 58 60 61 60 55 63 67 70 71 70 72 75 67 62 63 61 72 78 79
65 64 64 64 64 64 64 64 65 65 66 65 65 65 64 62 54 71 76 77 78 76 72 72 68 60 56 55 64 56 64 66 67 71 71 69 72 70 68 68 68 69 66 78 77
64 64 64 64 64 64 64 64 65 65 65 65 65 65 62 61 64 75 77 77 77 76 72 69 63 59 54 58 60 56 62 67 68 68 69 71 67 69 66 70 69 70 72 68 74
64 64 64 64 63 63 64 64 64 65 64 65 66 65 60 57 76 78 77 76 77 73 70 69 65 66 59 58 55 61 63 63 65 66 68 66 66 69 70 70 69 71 72 73 73
63 64 63 63 63 63 63 64 64 64 64 65 66 65 63 65 76 75 78 74 75 73 68 71 69 63 61 57 63 62 55 58 60 63 63 68 61 64 71 73 69 71 70 72 72
63 63 63 62 62 63 63 63 63 63 64 65 65 61 59 77 73 77 78 75 76 75 72 72 71 65 60 63 60 55 52 44 57 61 64 62 51 63 71 72 69 67 68 69 72
63 62 62 62 62 62 63 63 64 64 65 66 61 58 60 74 73 77 76 73 74 74 72 78 69 60 60 51 46 49 41 46 51 62 60 57 54 63 69 70 71 66 69 72 67
62 62 61 61 62 62 62 63 65 65 64 69 70 59 68 68 74 76 73 75 69 68 66 64 58 51 51 47 40 45 44 49 47 56 59 55 53 61 65 68 69 70 70 72 74
62 61 61 61 61 61 58 62 59 59 62 59 63 65 69 73 76 72 76 72 69 62 52 58 53 47 52 54 55 52 49 47 53 60 55 54 54 57 61 65 63 64 65 73 74
62 61 61 61 60 60 59 60 59 59 50 65 68 69 73 71 65 71 74 63 61 53 57 51 45 55 60 58 55 52 48 46 52 58 54 53 52 58 61 61 67 66 65 67 70
62 61 61 60 60 61 62 62 67 65 49 63 70 69 70 70 65 66 71 64 57 54 53 46 53 62 59 54 52 50 46 47 47 53 53 50 47 51 59 61 66 66 67 66 66
61 61 61 59 61 62 61 67 66 64 45 59 64 69 71 68 62 74 74 65 59 54 54 52 59 57 53 52 54 44 54 53 50 44 35 48 36 46 52 58 60 63 64 63 65
60 60 60 59 55 59 63 65 64 58 36 63 65 76 71 66 66 68 73 65 56 56 52 50 52 52 50 53 56 49 56 52 50 42 37 42 35 42 50 52 54 59 62 63 65
60 60 58 59 57 62 64 63 59 46 40 58 66 64 62 65 66 70 66 67 65 58 56 54 61 57 54 58 58 55 51 48 46 43 30 39 38 37 43 45 52 58 63 63 61
60 59 57 64 57 64 62 56 44 39 61 55 56 60 58 58 62 63 60 54 48 42 42 49 52 57 59 51 56 53 43 30 28 30 31 43 37 38 47 53 54 55 58 59 61
59 59 59 65 63 62 57 50 40 53 52 60 58 58 53 59 58 59 55 49 54 50 42 37 37 51 58 52 48 48 43 32 24 28 32 38 33 42 50 54 57 59 59 57 56
58 56 57 62 66 60 52 42 43 50 57 54 55 51 51 57 55 54 50 50 52 52 40 38 40 56 58 59 54 47 42 42 33 34 33 35 39 46 51 52 52 53 54 55 55
50 54 59 65 65 57 48 47 51 59 58 57 46 52 46 50 50 49 48 54 53 55 52 47 37 51 56 57 55 48 49 38 36 30 25 40 42 43 48 49 50 51 50 52 56
51 54 61 65 61 52 43 47 55 62 60 53 50 49 50 49 49 47 50 53 55 54 54 48 42 44 51 49 46 46 44 45 42 37 32 30 38 54 51 53 52 51 53 51 55
53 50 63 62 49 46 46 54 57 58 59 57 55 53 50 51 48 47 49 52 57 54 48 49 42 36 44 55 57 52 47 49 36 35 38 37 37 53 53 53 52 51 53 52 53
51 53 62 60 44 44 52 58 58 55 55 55 54 56 55 50 45 49 52 57 57 54 48 49 41 33 38 45 50 47 51 52 48 42 36 30 36 54 51 51 51 50 52 53 53
50 49 54 51 50 47 46 52 52 57 56 57 55 56 52 50 51 47 49 55 56 56 59 53 42 39 33 39 44 43 49 51 45 36 38 37 43 49 49 50 50 50 50 51 53
49 49 53 47 50 48 50 51 52 50 55 55 52 52 49 44 46 46 48 50 54 58 53 47 39 42 45 48 49 49 49 49 44 43 38 43 45 48 51 52 52 53 53 53 53
48 48 50 49 54 50 49 50 51 51 50 50 48 51 49 43 45 42 45 44 45 49 46 47 40 42 41 50 50 47 49 49 48 48 46 46 45 52 53 53 52 52 53 53 53
51 53 51 48 50 47 48 51 51 51 53 54 51 47 46 49 50 50 50 48 49 43 42 42 40 37 34 45 46 41 46 47 47 47 45 41 45 50 49 51 49 50 54 53 53

GFSSW_sfc_temp_102.txt.gz
Temp
65 65 66 66 65 65 65 65 65 65 66 66 67 67 66 65 64 64 62 67 69 77 76 71 71 69 67 62 65 65 51 46 52 57 61 70 66 69 70 69 70 72 69 75 78
65 65 65 65 65 65 65 65 65 65 66 66 66 66 66 65 59 63 73 76 77 77 70 66 65 67 59 59 61 57 48 52 62 64 63 68 68 67 65 63 64 67 73 77 78
65 65 65 65 64 64 64 64 65 65 66 66 65 65 65 63 59 64 77 77 78 77 70 69 67 64 56 57 57 56 52 60 64 67 68 67 68 71 63 59 64 64 69 71 71
64 64 64 64 64 64 64 64 65 65 66 65 65 65 64 59 53 69 77 77 79 75 71 69 65 58 53 53 59 52 61 62 63 67 67 65 70 66 65 68 70 70 68 68 68
64 64 64 64 64 64 64 64 65 65 65 64 65 65 61 60 63 74 77 77 75 74 69 65 60 56 51 55 57 53 57 63 64 64 65 67 65 66 65 69 71 72 71 69 70
64 64 64 64 63 63 64 64 65 65 64 64 66 65 60 56 74 75 74 74 74 71 67 66 61 63 56 55 52 57 58 58 60 61 63 63 63 65 68 68 67 68 67 67 66
64 64 64 63 63 63 63 64 64 64 64 64 65 65 61 64 74 73 75 72 72 71 66 68 66 60 58 54 60 60 52 55 58 59 59 63 58 58 69 68 65 66 68 66 68
63 63 63 62 62 63 63 63 63 63 64 65 65 60 59 74 71 75 74 72 73 73 70 70 68 63 58 60 58 53 50 43 55 58 60 59 46 60 67 67 64 63 65 67 67
63 63 62 62 62 63 63 63 64 65 65 66 60 57 59 74 71 75 74 71 71 71 69 76 67 58 58 49 44 46 40 43 49 59 58 55 47 59 63 64 65 63 63 66 69
62 62 62 61 62 62 62 63 65 65 64 67 67 57 66 66 71 73 72 72 67 66 65 61 56 50 49 44 36 41 41 45 45 53 56 52 49 55 60 61 61 64 61 65 68
62 62 61 61 61 61 59 61 57 59 59 56 59 61 66 71 72 70 73 69 66 60 50 55 47 43 48 51 52 49 45 44 49 55 52 51 51 53 58 56 57 59 61 62 68
62 61 61 61 60 60 60 57 56 58 50 62 63 64 69 69 63 68 72 60 58 51 54 49 44 54 56 56 52 49 45 44 49 54 52 50 50 53 56 56 58 59 58 63 63
62 61 61 61 60 61 60 60 64 63 47 59 66 66 67 68 63 64 69 61 55 52 52 44 51 59 56 52 50 48 45 44 45 50 51 47 46 47 54 56 59 60 61 64 63
61 60 60 60 60 58 58 63 62 62 45 56 62 67 68 66 60 71 70 63 57 52 52 49 56 55 52 51 52 43 53 51 49 44 37 47 34 41 48 51 54 54 54 58 60
60 60 60 60 54 57 62 61 61 57 35 60 62 73 67 63 64 66 70 63 53 54 51 48 50 50 49 52 54 49 55 50 49 45 39 41 34 38 45 47 49 52 54 57 61
60 60 59 58 55 59 61 60 58 47 38 56 63 60 59 61 63 65 64 65 61 55 51 51 58 55 53 56 56 57 50 46 44 41 31 37 35 35 39 43 47 52 55 56 62
60 59 58 62 58 60 59 55 45 39 56 52 54 57 54 54 59 59 55 51 46 40 40 46 50 55 56 50 54 52 41 30 26 29 29 38 35 35 44 48 48 49 52 53 54
58 59 59 63 60 60 55 51 39 49 48 57 56 54 52 56 54 55 50 46 52 47 39 35 35 48 55 50 46 45 43 32 22 28 30 39 32 39 48 51 51 52 52 54 54
57 54 56 61 62 58 52 41 42 47 54 52 52 47 47 53 51 51 47 47 48 48 40 37 38 52 55 55 51 44 38 42 33 35 30 36 42 47 52 51 50 50 52 51 52
49 51 55 63 60 54 48 45 48 56 56 53 43 48 42 46 47 45 45 51 51 52 50 44 35 48 53 55 52 45 46 37 37 29 22 34 38 39 47 47 48 49 49 51 52
50 53 60 62 58 51 44 45 53 59 57 51 47 46 46 45 46 43 46 51 53 52 51 44 40 42 48 46 44 43 41 43 39 38 31 26 34 48 46 50 48 48 50 50 52
49 49 60 60 51 45 46 51 56 55 57 54 52 51 47 48 45 45 46 49 54 52 47 46 40 34 41 51 52 49 44 44 35 34 38 35 34 47 46 48 50 50 51 52 53
48 49 59 59 46 45 49 54 56 54 53 52 51 52 52 47 42 46 48 54 53 52 46 47 39 31 37 43 47 43 47 48 43 39 34 29 36 49 47 47 48 49 49 51 52
48 46 51 51 48 49 46 49 50 56 54 54 52 52 49 46 49 45 46 52 53 52 58 52 40 37 31 38 41 40 45 47 42 33 34 34 39 48 47 46 47 48 49 50 52
46 47 51 44 47 48 50 50 48 48 52 53 48 49 46 41 43 44 45 47 50 54 49 45 37 39 42 45 45 43 43 46 41 40 35 39 40 44 46 48 48 50 51 51 51
45 45 47 46 50 49 49 49 49 50 51 48 46 48 47 43 45 42 44 42 44 47 43 43 37 38 38 45 44 43 46 45 45 44 42 42 40 46 47 49 48 49 50 49 50
48 49 50 46 46 46 46 50 52 53 52 53 49 45 44 48 50 49 49 48 49 43 41 39 37 35 31 41 42 39 43 44 43 43 42 38 42 45 45 47 45 46 50 50 49

GFSSW_sfc_temp_105.txt.gz
Temp
65 65 65 65 65 65 65 65 65 66 66 66 67 66 66 65 65 61 61 67 68 77 76 70 70 67 65 60 62 62 49 44 49 54 60 68 66 67 69 66 69 71 67 70 70
65 65 65 65 65 64 64 65 65 65 66 66 66 66 66 65 58 61 73 77 77 78 68 64 63 64 57 57 59 55 47 50 59 61 61 66 66 65 63 63 64 67 69 70 70
65 65 65 64 64 64 64 64 65 65 66 66 65 65 65 63 60 63 78 78 78 77 68 66 64 61 54 55 54 53 48 57 60 64 65 65 65 67 60 57 63 64 66 68 67
64 64 64 64 64 64 64 64 65 65 66 65 65 65 64 57 52 68 78 78 79 74 69 66 63 55 52 50 56 50 57 58 60 63 62 62 67 64 62 65 69 68 68 70 67
64 64 64 64 64 64 64 64 65 65 65 64 65 66 59 59 61 73 78 76 73 72 67 63 57 54 49 52 54 50 54 59 61 60 61 63 61 63 63 68 69 69 69 68 68
64 64 64 64 63 63 64 64 65 65 64 64 65 65 59 56 72 73 72 72 72 69 66 63 59 60 54 52 50 55 56 56 58 59 59 60 59 62 64 66 65 67 66 67 66
64 64 64 63 63 63 64 64 64 64 63 64 65 64 60 62 72 69 71 69 70 69 65 66 64 59 57 53 58 57 50 53 53 57 57 58 54 56 64 68 63 63 64 66 66
63 64 63 63 63 63 63 63 63 63 63 64 65 59 58 72 69 72 72 70 71 70 69 68 66 61 56 58 56 50 48 41 54 56 59 56 45 58 63 61 62 61 59 63 65
63 63 63 63 62 63 63 63 64 65 65 65 59 56 57 74 68 72 72 69 69 68 67 74 65 56 56 47 43 44 38 41 47 57 55 53 46 56 62 60 60 60 58 63 63
63 62 62 61 62 62 62 64 66 64 64 67 66 56 65 65 69 71 69 70 66 65 62 60 53 48 47 43 35 39 39 43 42 51 53 49 47 54 57 57 57 57 59 58 64
62 62 61 61 61 62 59 59 57 58 59 55 57 58 64 70 69 67 70 67 64 59 49 54 46 42 47 49 49 46 43 41 47 53 49 47 48 51 55 55 54 54 55 57 61
62 61 61 61 60 61 59 55 54 56 51 60 60 61 66 66 61 66 69 59 57 50 52 47 41 52 54 54 50 48 44 43 47 52 49 47 47 51 53 54 56 55 55 56 58
62 61 61 61 60 60 58 57 61 60 49 58 64 63 65 66 61 62 66 59 53 50 49 42 50 57 54 51 49 47 44 43 44 50 49 46 42 46 51 53 56 56 56 55 56
61 60 60 60 60 56 57 61 60 60 46 55 60 65 66 64 59 68 67 61 56 50 50 47 55 53 50 49 49 41 51 51 48 44 36 46 32 42 48 48 50 50 50 52 54
60 60 59 58 54 56 59 59 59 56 35 58 61 70 66 60 62 64 67 61 51 52 48 47 49 49 48 50 51 47 52 48 45 40 39 39 34 35 44 42 45 49 52 54 54
60 60 59 57 55 58 58 57 57 46 36 54 60 58 57 59 60 61 61 62 58 51 49 49 54 53 51 55 53 54 48 43 41 37 29 35 35 32 38 44 46 48 50 51 53
60 59 57 60 58 60 58 54 45 38 54 51 52 55 52 52 56 56 52 48 45 39 39 44 48 52 54 47 50 48 40 30 25 26 30 37 35 35 42 46 49 46 47 52 53
58 58 59 61 58 59 55 50 38 47 46 55 53 52 49 52 51 52 47 44 49 44 37 33 35 47 53 47 44 43 39 33 23 25 29 39 32 39 50 51 53 52 52 55 56
57 52 55 59 60 56 52 41 43 45 52 50 51 45 45 50 48 48 43 44 46 47 38 35 36 50 52 52 48 43 35 39 33 35 29 34 43 46 53 52 52 51 50 51 53
48 49 54 61 58 55 49 45 46 53 53 51 41 46 40 44 45 44 43 49 49 50 47 41 33 45 50 52 49 43 44 35 34 29 27 31 34 38 45 47 49 50 47 48 50
49 51 58 59 58 52 45 46 52 57 55 50 45 44 44 43 42 41 44 48 50 51 48 42 38 40 45 43 41 42 40 39 38 37 30 26 33 44 44 48 47 47 46 48 48
47 48 57 58 50 42 45 50 56 54 54 52 50 49 45 45 43 42 44 47 51 51 45 44 38 32 40 48 48 44 41 40 32 29 36 34 33 45 43 48 49 48 49 47 48
47 47 56 57 45 43 48 54 55 52 52 51 50 50 49 45 41 45 45 52 52 49 44 44 37 30 36 42 45 41 43 43 41 36 32 27 35 49 46 45 47 47 49 50 50
46 45 49 49 46 47 47 50 50 54 53 53 50 50 46 44 47 44 44 51 51 50 56 50 38 36 31 36 39 38 43 42 39 31 32 33 37 45 46 45 46 46 48 49 49
45 46 49 43 46 46 49 51 49 48 50 52 47 48 46 39 41 42 44 47 49 52 47 43 35 35 39 42 42 41 41 42 38 38 33 36 38 42 43 43 44 47 48 48 48
43 45 46 47 47 47 47 48 49 49 49 47 46 48 46 42 45 42 44 42 42 45 41 41 35 34 35 42 42 39 44 44 42 41 39 39 38 43 45 44 45 43 47 47 47
46 47 49 45 44 45 45 48 50 53 52 51 50 45 43 47 48 49 49 47 47 43 40 39 34 33 30 38 39 37 42 42 41 41 40 36 40 44 43 45 43 44 47 47 47

GFSSW_sfc_temp_108.txt.gz
Temp
65 65 65 65 65 65 65 65 65 66 66 66 66 66 66 65 65 60 61 66 67 78 75 68 68 65 63 58 60 60 48 42 47 51 56 66 64 66 67 63 67 67 67 69 69
65 65 65 65 65 64 64 65 65 65 66 66 66 66 66 65 58 61 74 78 78 78 67 64 62 62 56 55 57 53 45 48 56 58 57 62 64 64 62 61 61 67 68 69 68
64 65 65 64 64 64 64 64 65 65 66 66 65 65 65 61 59 62 78 78 78 75 66 64 63 60 53 54 53 50 46 54 58 61 62 61 61 66 59 56 61 64 65 65 66
64 64 64 64 64 64 64 64 65 65 66 65 65 65 64 57 51 68 79 78 79 72 67 65 61 54 50 49 54 47 55 56 58 60 59 58 62 61 62 62 68 66 66 66 64
64 64 64 64 64 64 64 64 65 65 65 65 65 66 59 59 60 71 78 75 72 70 65 62 56 53 48 50 53 48 52 58 59 58 57 60 57 58 60 65 67 67 66 65 65
64 64 64 64 64 64 64 64 65 65 64 64 65 65 58 53 70 71 70 70 70 67 64 62 58 58 52 51 49 52 54 54 56 57 57 56 56 56 60 63 64 65 63 65 65
64 64 64 63 63 63 63 64 64 64 63 64 65 63 59 61 69 68 70 67 68 67 63 64 63 58 55 51 56 55 49 52 52 55 55 56 52 53 60 62 61 62 60 63 65
64 64 64 63 63 63 63 63 63 63 63 64 65 58 57 70 68 71 68 69 69 68 66 65 64 59 55 56 54 49 46 40 52 53 56 53 44 56 59 59 59 59 58 62 63
63 63 63 63 62 63 63 63 65 65 65 65 58 56 57 73 67 69 68 66 68 66 65 73 63 54 54 46 41 43 37 39 45 55 53 50 45 55 60 57 57 56 56 58 61
63 62 62 62 62 62 62 64 65 64 64 66 65 56 66 64 68 69 66 68 64 63 60 59 52 47 46 43 35 38 37 41 40 49 50 48 46 51 55 54 54 54 54 55 57
62 62 61 61 62 62 60 58 57 58 59 54 55 57 63 68 67 65 68 65 62 57 48 51 45 40 46 48 47 45 41 40 47 52 47 46 46 50 54 52 51 52 53 54 55
62 61 61 61 60 61 58 54 53 55 51 58 59 59 63 63 60 64 67 58 56 48 49 46 41 49 52 52 49 46 42 41 47 51 48 46 45 51 52 53 53 54 53 53 53
62 61 61 61 61 59 56 54 59 58 51 59 62 61 63 63 59 61 64 57 51 48 45 41 49 55 52 49 46 45 41 41 43 47 47 46 40 44 50 51 53 52 51 52 52
61 60 60 59 59 55 55 59 58 59 46 54 59 62 64 62 57 67 65 59 53 48 47 46 52 52 49 47 47 40 49 47 44 39 33 45 30 39 44 46 47 48 47 49 50
60 60 60 59 53 55 58 58 57 56 35 57 60 68 63 57 59 62 64 58 50 50 46 46 47 47 46 49 49 45 50 45 43 38 34 39 32 35 41 42 46 49 50 51 51
60 60 59 57 54 56 58 57 56 47 35 51 58 56 55 58 58 60 59 59 56 49 47 47 52 50 49 53 50 52 45 42 38 35 29 37 34 31 39 42 45 49 51 54 54
60 59 56 59 56 57 57 55 46 39 52 49 49 53 49 50 53 53 50 47 43 38 36 42 46 49 52 46 49 46 38 28 26 24 24 38 35 35 45 48 49 49 51 54 54
58 58 58 59 56 57 55 52 39 46 44 52 50 50 46 50 48 50 45 43 47 43 35 32 35 46 51 45 42 40 38 30 26 27 29 39 32 38 48 54 52 53 52 53 54
57 50 52 57 58 55 53 43 44 45 51 48 49 43 43 48 46 46 42 42 45 44 36 34 34 47 49 50 46 40 34 38 33 30 29 29 42 45 48 49 50 51 50 50 51
46 47 52 58 57 54 49 46 47 51 53 50 40 44 38 42 43 42 41 46 47 48 45 39 32 43 48 49 47 43 43 33 32 23 25 29 31 37 43 44 48 48 47 47 48
46 49 56 57 56 51 44 44 50 56 55 49 44 42 42 41 40 39 42 46 48 49 46 41 36 39 43 41 39 40 38 38 36 34 25 29 30 45 44 45 44 47 48 47 49
44 45 55 55 48 40 43 49 55 54 53 51 49 48 44 43 40 40 42 46 49 47 42 42 36 31 39 44 46 42 38 38 30 30 32 30 34 44 43 47 48 48 49 47 49
46 44 54 54 43 41 45 51 54 52 51 50 48 49 48 44 39 43 44 50 49 48 41 43 35 29 35 40 43 40 41 40 38 34 30 25 33 45 46 44 47 47 47 48 48
45 44 47 47 44 46 46 48 49 53 52 51 49 49 44 42 45 42 42 48 49 47 54 49 36 34 30 35 37 37 41 39 36 30 30 31 35 42 42 44 44 45 47 48 48
42 44 47 41 44 45 47 50 48 48 51 50 44 47 45 39 39 40 42 44 47 51 44 42 35 33 37 39 39 39 39 39 36 36 32 36 36 41 40 41 42 45 46 47 48
42 41 43 45 46 46 46 46 49 49 49 47 45 47 45 42 44 42 42 40 41 43 39 40 35 34 33 39 39 37 40 39 40 39 38 38 38 42 42 41 42 43 45 45 46
43 44 47 44 43 45 44 48 49 52 51 52 48 44 42 46 48 48 47 46 45 42 39 38 34 31 29 36 37 36 40 41 40 40 40 35 41 41 42 45 42 42 45 45 45

GFSSW_sfc_temp_114.txt.gz
Temp
65 66 66 66 66 65 65 65 66 66 66 66 67 67 67 66 67 81 77 79 79 78 78 79 79 78 78 73 74 74 64 61 63 63 67 75 72 78 79 77 79 81 81 81 83
65 65 65 65 65 65 65 65 66 66 66 66 66 66 66 66 79 80 80 79 79 78 80 77 74 75 73 71 72 69 62 63 68 70 69 73 73 75 73 75 77 78 82 81 81
65 65 65 65 65 65 65 65 65 66 66 66 66 65 66 70 77 77 79 79 79 80 80 78 76 74 68 71 69 67 62 67 69 71 72 70 71 76 72 69 76 75 81 78 78
65 65 65 65 65 65 65 65 65 66 66 66 65 65 66 77 65 81 80 79 78 83 81 77 75 69 66 64 68 62 67 68 68 71 69 68 73 70 72 72 80 80 83 82 78
65 65 65 65 65 65 65 65 65 66 66 65 65 66 73 77 75 84 79 80 83 80 77 74 72 68 64 66 66 64 66 68 70 69 69 70 67 68 71 77 81 81 81 79 79
65 65 65 64 64 64 64 64 65 65 65 65 65 65 78 70 84 85 82 81 80 79 76 76 72 71 67 65 64 67 66 67 68 68 69 65 68 67 73 75 76 76 77 80 81
64 65 64 64 63 63 64 64 64 64 64 64 65 73 77 75 85 85 80 80 80 78 74 76 75 71 69 65 67 66 61 67 67 68 66 67 63 64 73 75 74 76 78 78 80
64 64 64 63 63 63 64 64 64 64 64 64 66 76 75 83 86 82 82 80 80 80 77 77 76 71 68 70 66 62 62 57 66 65 66 65 57 68 74 72 71 74 78 77 78
64 63 63 63 62 63 63 65 65 65 66 67 75 77 73 80 80 82 82 77 78 77 77 77 74 68 68 63 63 61 54 56 58 67 63 62 58 68 73 71 69 72 76 77 77
63 62 62 62 62 63 63 65 66 69 71 74 76 73 78 74 78 78 82 78 75 73 71 71 71 66 68 63 51 53 54 56 56 62 63 59 59 65 68 67 67 70 73 75 77
62 62 61 62 62 62 71 78 76 73 76 70 71 70 74 79 77 79 79 77 75 72 64 66 64 59 61 61 60 58 56 55 60 63 57 58 57 60 63 65 64 67 70 73 73
62 62 61 61 60 61 74 70 64 65 68 69 69 70 73 74 71 76 82 72 69 63 66 64 60 63 63 62 59 60 56 56 59 59 57 56 55 59 62 62 63 64 65 68 70
62 61 61 61 60 70 70 65 69 69 70 68 72 71 73 74 70 72 76 71 65 62 61 58 62 63 61 61 58 60 55 54 53 58 57 55 53 56 63 64 64 64 66 68 68
61 60 61 60 67 70 68 68 70 70 66 64 68 71 74 72 67 75 75 69 66 60 61 60 63 59 60 60 59 54 59 55 53 53 48 55 47 55 58 56 57 61 62 64 67
60 60 60 59 72 71 68 70 71 70 51 64 67 77 73 68 68 69 73 71 62 61 61 59 59 57 57 59 59 56 57 54 53 53 51 51 44 50 53 44 50 55 57 61 65
60 60 59 67 72 69 70 70 70 61 50 59 66 63 65 66 66 69 69 72 66 60 60 59 62 59 60 62 59 61 56 53 53 52 48 46 42 47 40 41 45 51 55 55 57
60 59 61 67 71 70 70 70 61 55 61 58 59 61 60 60 61 62 60 60 57 53 54 58 58 61 60 58 61 60 55 44 45 42 42 50 46 44 46 47 48 50 51 53 56
59 58 62 68 72 69 71 66 53 57 59 60 59 58 57 58 58 59 58 57 59 57 54 49 51 57 60 57 53 53 51 40 31 36 38 49 38 44 48 54 55 54 52 52 53
57 69 69 70 68 69 68 60 61 60 62 59 57 56 55 57 58 58 57 56 57 59 51 49 50 59 58 59 56 55 49 51 38 41 40 45 54 52 53 57 55 53 51 49 50
65 66 66 67 69 69 66 57 61 62 61 60 56 56 54 55 55 56 55 58 56 58 60 54 46 55 57 58 58 56 56 47 48 33 34 47 48 43 47 52 55 55 51 49 50
65 64 64 66 69 67 61 62 60 63 63 59 57 55 56 54 55 54 54 57 58 58 59 56 51 54 54 54 52 55 54 52 50 47 40 41 46 56 53 53 54 56 54 50 49
61 59 64 66 61 62 61 61 58 61 61 59 60 58 57 56 53 53 54 57 59 59 54 56 53 49 52 57 56 55 53 52 47 43 48 45 49 59 57 55 57 57 56 53 52
59 59 64 64 56 57 58 58 61 58 59 58 57 59 58 55 52 55 55 57 58 57 55 56 52 48 50 53 55 53 53 53 50 49 46 44 50 59 58 58 57 55 58 54 55
59 55 56 59 60 61 58 58 56 59 59 60 58 59 55 52 56 53 54 56 57 57 54 57 52 49 47 50 52 50 51 53 51 48 50 51 52 56 55 55 57 54 58 56 56
57 58 63 51 53 57 61 61 56 53 58 59 53 55 54 48 50 52 54 55 55 55 54 55 49 50 52 53 52 50 49 51 48 53 49 51 50 56 57 57 58 58 57 58 57
56 56 54 58 57 56 54 56 57 56 57 55 55 56 55 53 55 52 55 55 55 54 54 53 50 48 48 50 48 46 51 51 51 51 51 53 52 61 60 60 59 59 58 57 57
59 58 62 53 55 54 56 59 57 60 59 62 60 56 53 59 62 62 62 61 60 56 53 51 50 48 47 50 50 49 53 52 53 55 56 52 57 59 57 57 59 59 59 59 58

GFSSW_sfc_temp_117.txt.gz
Temp
66 66 66 66 66 66 66 66 66 66 66 67 67 67 67 66 67 82 81 79 81 79 77 84 84 82 82 77 78 79 65 63 67 68 71 80 76 83 84 79 83 85 85 84 80
65 66 66 66 66 65 65 65 66 66 66 67 67 67 67 66 84 84 79 79 79 79 85 81 78 79 77 75 75 71 65 66 73 73 71 76 76 78 77 77 79 82 88 86 84
65 66 66 66 66 65 65 65 65 66 66 67 66 66 66 71 80 81 79 79 79 80 86 84 82 78 72 74 73 72 64 72 72 74 75 73 74 78 74 71 77 78 84 84 84
65 65 65 65 65 65 65 65 65 66 66 66 66 66 65 80 68 85 80 79 79 86 86 82 80 73 69 68 73 65 72 71 72 74 72 70 75 73 74 74 82 83 85 86 85
65 65 65 65 65 65 65 65 65 66 66 66 66 66 74 79 79 88 80 82 87 86 81 78 76 73 68 70 71 67 71 72 73 72 72 73 70 71 73 79 83 83 83 83 84
65 65 65 65 64 64 64 64 65 65 65 65 65 64 78 74 89 90 87 86 85 84 81 80 75 76 71 70 68 72 70 70 73 72 72 69 70 72 74 80 79 80 80 83 83
65 65 65 64 63 64 64 64 65 65 64 65 66 76 81 78 90 91 86 85 84 83 78 81 80 74 74 70 74 71 65 70 70 71 69 71 64 67 76 78 76 78 81 82 83
64 64 64 63 63 63 64 64 65 65 65 65 66 80 78 88 92 87 88 86 85 84 81 81 80 75 72 75 72 67 67 61 70 69 70 67 57 71 77 76 74 76 79 80 82
64 64 63 63 63 63 64 65 66 66 66 68 76 82 77 81 84 87 87 81 82 82 81 81 78 73 73 68 67 67 59 60 63 71 67 66 60 70 75 73 71 74 76 79 81
63 62 62 62 62 62 63 66 67 67 72 81 83 77 82 78 82 83 88 83 79 78 76 75 74 69 72 65 53 56 57 60 60 67 66 62 62 67 69 68 69 71 74 77 80
62 62 61 62 62 62 67 78 77 76 80 75 77 76 79 84 84 83 85 81 80 76 68 72 66 62 64 65 64 62 61 60 64 66 61 61 60 62 66 67 66 66 70 74 78
62 62 61 61 61 61 72 79 71 73 71 76 76 77 79 80 75 80 86 75 73 67 71 67 63 67 67 67 65 64 61 60 63 65 62 61 59 63 66 64 65 67 67 70 73
62 61 61 61 60 70 77 72 76 76 74 73 78 76 77 78 74 75 79 76 70 66 67 62 66 68 66 64 62 62 58 57 56 63 64 61 56 60 63 63 62 63 64 68 71
61 61 61 60 65 79 75 75 77 77 68 68 71 75 78 76 70 79 79 73 71 64 65 65 68 64 64 63 62 55 62 58 57 56 52 62 48 57 58 57 57 59 59 63 66
61 60 60 59 77 77 74 78 78 75 54 68 71 82 78 71 72 73 78 75 65 65 64 62 62 61 60 61 64 59 63 58 58 57 57 56 48 54 57 48 51 54 55 57 60
61 60 59 73 78 76 78 76 74 62 53 63 71 68 69 70 70 73 73 76 72 65 65 64 68 64 64 65 65 65 64 59 59 57 47 53 47 50 46 45 47 52 53 54 56
61 60 61 74 76 78 77 74 63 57 67 62 64 66 66 65 66 67 65 64 61 57 58 64 63 66 65 61 66 63 59 46 45 45 45 55 49 48 53 52 51 49 50 52 54
60 58 66 76 80 76 75 68 55 65 66 66 65 64 62 63 64 64 63 62 64 62 58 54 52 61 65 60 56 58 56 42 30 38 41 54 42 48 58 58 57 54 51 51 51
58 73 75 78 77 76 71 60 65 68 69 64 63 60 61 62 62 63 62 61 61 63 55 54 54 64 62 63 62 58 53 55 43 46 42 50 55 58 62 61 60 54 50 48 50
71 73 75 76 77 73 66 60 68 71 68 68 61 64 60 61 59 61 60 63 60 62 65 59 51 61 62 63 62 59 60 50 52 34 38 51 51 50 55 56 59 54 49 48 50
69 66 71 75 75 69 61 67 69 70 70 66 65 62 63 60 61 60 60 61 62 61 63 61 56 57 60 58 57 59 58 58 54 51 43 43 48 60 58 58 57 56 50 49 49
69 60 70 73 62 69 64 70 63 66 67 65 67 66 64 62 59 59 59 61 65 63 57 61 57 53 57 62 62 60 57 58 49 47 52 49 49 64 62 61 60 55 55 53 53
63 64 68 70 57 63 68 65 66 64 64 64 63 65 65 61 56 59 60 61 62 61 59 61 56 51 52 55 59 57 59 57 57 55 51 46 51 64 64 62 60 60 55 54 55
64 56 60 61 68 65 64 62 60 67 66 66 65 65 61 58 60 55 56 58 60 61 56 58 57 53 50 54 58 53 57 57 55 49 53 55 55 60 60 59 60 60 57 54 54
61 60 67 54 59 62 67 66 61 56 64 66 60 62 60 55 54 52 58 57 58 57 58 58 52 56 58 58 57 55 54 55 53 55 50 56 54 60 61 61 61 61 62 60 57
58 59 68 65 65 62 59 61 61 63 61 58 60 61 62 58 58 54 58 60 59 59 58 59 53 54 52 59 55 52 55 56 56 57 56 57 56 66 65 65 62 63 61 60 60
60 69 64 58 64 60 61 62 64 66 63 68 63 62 58 62 66 67 67 65 64 59 57 56 54 52 51 56 55 51 57 58 58 60 59 54 61 64 61 61 63 62 62 61 61

GFSSW_sfc_temp_120.txt.gz
Temp
66 66 66 66 66 66 66 66 66 66 66 67 67 67 67 66 67 80 77 78 79 79 78 81 83 82 80 74 75 75 57 55 60 63 65 76 73 80 83 77 77 78 77 71 70
66 66 66 66 66 66 65 65 66 66 66 67 67 67 67 66 76 80 78 80 79 79 82 79 76 78 71 72 71 65 56 61 70 69 66 71 71 73 73 72 73 77 80 73 73
66 66 66 66 66 65 65 65 65 66 66 67 67 66 66 67 74 78 79 80 79 79 85 84 82 77 69 71 70 67 58 67 69 72 71 69 69 74 69 64 70 71 78 78 74
65 65 66 65 65 65 65 65 65 66 67 67 66 66 66 74 65 81 79 80 79 82 85 82 79 71 67 65 73 62 69 70 70 72 70 66 71 68 68 67 75 75 77 78 79
65 65 65 65 65 65 65 65 65 66 66 66 66 66 71 73 77 84 80 81 84 86 81 77 74 70 65 69 70 65 68 71 72 71 70 71 66 67 68 73 77 78 77 74 75
65 65 65 65 64 64 64 65 65 65 65 65 66 65 71 70 89 90 87 86 86 83 80 79 74 74 68 68 66 69 68 68 70 71 71 67 66 68 70 75 73 75 73 74 74
65 65 65 64 63 63 64 64 65 65 65 65 66 73 76 76 90 90 87 85 85 82 76 81 79 72 71 66 73 70 62 66 69 70 67 68 61 63 72 75 71 72 73 73 74
64 64 64 63 63 63 64 64 65 65 65 66 66 76 74 88 91 87 89 86 86 85 81 81 80 73 70 73 69 64 64 56 68 68 67 65 52 66 72 70 68 69 69 72 74
64 64 63 63 62 63 63 64 67 67 67 67 72 76 74 80 82 87 87 81 83 83 81 83 77 69 70 62 60 62 52 56 61 70 66 63 55 66 69 67 65 66 68 70 72
63 62 62 62 62 62 63 64 68 67 68 80 82 73 80 78 83 84 88 83 78 78 75 72 69 64 63 59 46 51 53 57 57 62 62 58 57 62 65 64 62 63 64 67 70
62 62 62 62 62 62 66 72 71 70 78 74 76 76 79 84 85 81 86 82 79 74 64 70 61 56 60 62 62 60 58 57 60 64 58 58 57 60 62 60 58 59 60 63 67
62 62 61 61 61 60 65 74 70 70 69 78 78 78 81 81 74 80 85 74 71 63 69 64 56 64 67 65 62 61 57 55 60 65 60 58 58 59 60 58 58 58 58 61 63
62 61 61 61 60 65 76 73 77 77 67 72 78 78 78 79 73 75 78 73 68 64 65 58 63 68 65 62 60 58 54 52 52 59 62 57 51 56 60 59 59 60 58 59 59
62 61 61 61 63 78 74 77 78 77 61 66 69 75 77 77 68 80 79 72 69 63 63 62 68 64 61 61 60 51 60 59 56 53 45 57 39 49 53 52 53 55 55 56 56
61 61 60 60 64 74 74 78 78 72 47 68 71 82 79 71 72 72 78 73 63 64 62 59 60 58 58 59 62 55 61 58 56 52 50 51 41 48 52 46 48 51 54 54 56
61 61 60 72 70 77 78 77 72 57 49 63 70 67 68 70 71 73 72 74 72 64 64 62 67 63 61 63 64 64 60 59 54 50 39 47 43 41 43 45 49 52 51 52 53
61 60 60 71 71 78 77 71 57 51 69 61 63 67 67 66 67 67 65 63 58 51 53 61 61 64 65 58 63 59 51 37 36 36 35 51 44 40 50 51 50 48 49 50 52
60 60 64 72 80 77 72 62 49 65 65 70 67 66 61 65 64 65 63 59 62 60 53 50 48 59 64 58 53 54 51 35 28 30 34 50 36 44 56 56 55 52 50 50 51
59 64 64 74 75 74 65 52 58 65 70 64 64 59 60 62 60 62 61 60 60 60 50 50 51 62 63 63 59 53 46 51 40 42 36 41 47 53 57 56 55 51 50 48 50
61 66 68 78 76 70 60 54 64 73 71 68 59 62 58 59 57 59 58 61 59 62 61 56 46 60 62 61 60 55 57 43 43 28 30 42 42 41 48 51 53 49 47 48 49
59 60 71 75 73 63 52 58 67 73 71 66 63 62 63 60 60 59 59 59 62 60 60 57 52 52 57 55 53 52 51 52 49 45 34 34 37 52 50 52 50 51 49 47 49
60 52 69 74 55 60 55 63 65 68 69 67 65 66 63 62 59 58 58 59 63 62 56 57 51 46 52 59 61 56 52 52 40 39 43 41 39 57 54 54 53 52 50 51 49
54 59 68 68 51 54 62 63 68 65 64 63 62 66 65 60 54 58 58 59 60 59 55 56 50 43 45 49 54 52 56 54 51 48 41 35 39 58 56 54 55 51 50 52 52
56 50 56 58 61 60 59 61 61 66 66 67 65 65 60 59 59 55 55 56 58 59 57 56 50 47 42 47 52 49 54 54 49 39 43 43 45 52 54 53 53 51 51 53 54
51 53 61 47 51 55 60 64 60 56 63 66 59 60 58 53 54 53 56 53 56 56 56 53 46 52 54 55 55 53 52 52 48 48 41 47 48 51 54 54 54 55 54 54 54
45 51 60 58 58 55 55 57 60 60 59 58 57 59 60 55 55 51 55 53 53 53 53 54 46 50 48 55 55 51 53 53 52 52 51 51 50 57 57 56 54 54 55 54 54
51 53 56 55 57 54 55 58 61 65 62 65 62 59 57 60 62 63 62 61 58 53 52 50 47 46 43 53 52 45 52 53 53 55 53 46 50 56 55 57 55 55 56 55 55